[[{"header":{"parameterUnit":"m.s-1","parameterCategory":1,"la1":30.6,"la2":29.2853,"lo1":-89.7004,"lo2":-87.6739,"dy":0.0162,"dx":0.0183,"nx":112,"ny":82,"refTime":"2026-05-02T00:00:00:Z","depth":0,"parameterNumber":2,"parameterNumberName":"U-component_of_WINDS"},"data":[0.0,0.0,0.0,0.0,0.0,0.0,0.0,0.0,0.0,0.0,0.0,0.0,0.0,0.0,0.0,0.0,0.0,0.0,0.0,0.0,0.0,0.0,0.0,0.0,0.0,0.0,0.0,0.0,0.0,0.0,0.0,0.0,0.0,0.0,0.0,0.0,0.0,0.0,0.0,0.0,0.0,0.0,0.0,0.0,0.0,0.0,0.0,0.0,0.0,0.0,0.0,0.0,0.0,0.0,0.0,0.0,0.0,0.0,0.0,0.0,0.0,0.0,0.0,0.0,0.0,0.0,0.0,0.0,0.0,0.0,0.0,0.0,0.0,0.0,0.0,0.0,0.0,0.0,0.0,0.0,0.0,0.0,0.0,0.0,0.0,0.0,0.0,0.0,0.0,0.0,0.0,-5.7898,-6.4986,-6.8158,-6.5605,-6.2394,-5.8247,-5.2953,0.0,0.0,0.0,0.0,0.0,0.0,0.0,0.0,0.0,0.0,0.0,0.0,0.0,0.0,0.0,0.0,0.0,0.0,0.0,0.0,0.0,0.0,0.0,0.0,0.0,0.0,0.0,0.0,0.0,0.0,0.0,0.0,0.0,0.0,0.0,0.0,0.0,0.0,0.0,0.0,0.0,0.0,0.0,0.0,0.0,0.0,0.0,0.0,0.0,0.0,0.0,0.0,0.0,0.0,0.0,0.0,0.0,0.0,0.0,0.0,0.0,0.0,0.0,0.0,0.0,0.0,0.0,0.0,0.0,0.0,0.0,0.0,0.0,0.0,0.0,0.0,0.0,0.0,0.0,0.0,0.0,0.0,0.0,0.0,0.0,0.0,0.0,0.0,0.0,0.0,0.0,0.0,0.0,0.0,0.0,0.0,0.0,0.0,0.0,0.0,0.0,0.0,0.0,0.0,-5.4039,-6.3826,-6.8506,-6.9899,-6.7346,-6.4638,-6.0615,-5.4766,0.0,0.0,0.0,0.0,0.0,0.0,0.0,0.0,0.0,0.0,0.0,0.0,0.0,0.0,0.0,0.0,0.0,0.0,0.0,0.0,0.0,0.0,0.0,0.0,0.0,0.0,0.0,0.0,0.0,0.0,0.0,0.0,0.0,0.0,0.0,0.0,0.0,0.0,0.0,0.0,0.0,0.0,0.0,0.0,0.0,0.0,0.0,0.0,0.0,0.0,0.0,0.0,0.0,0.0,0.0,0.0,0.0,0.0,0.0,0.0,0.0,0.0,0.0,0.0,0.0,0.0,0.0,0.0,0.0,0.0,0.0,0.0,0.0,0.0,0.0,0.0,0.0,0.0,0.0,0.0,0.0,0.0,0.0,0.0,0.0,0.0,0.0,0.0,0.0,0.0,0.0,0.0,0.0,0.0,0.0,0.0,0.0,0.0,0.0,0.0,0.0,0.0,0.0,-5.3382,-6.0151,-6.6263,-6.9551,-7.0286,-6.7733,-6.4715,-6.046,-5.4465,-4.6112,0.0,0.0,0.0,0.0,0.0,0.0,0.0,0.0,0.0,0.0,0.0,0.0,0.0,0.0,0.0,0.0,0.0,0.0,0.0,0.0,0.0,0.0,0.0,0.0,0.0,0.0,0.0,0.0,0.0,0.0,0.0,0.0,0.0,0.0,0.0,0.0,0.0,0.0,0.0,0.0,0.0,0.0,0.0,0.0,0.0,0.0,0.0,0.0,0.0,0.0,0.0,0.0,0.0,0.0,0.0,0.0,0.0,0.0,0.0,0.0,0.0,0.0,0.0,0.0,0.0,0.0,0.0,0.0,0.0,0.0,0.0,0.0,0.0,0.0,0.0,0.0,0.0,0.0,0.0,0.0,0.0,0.0,0.0,0.0,0.0,0.0,0.0,0.0,0.0,0.0,0.0,0.0,0.0,0.0,0.0,0.0,0.0,0.0,0.0,0.0,0.0,0.0,-6.0074,-6.518,-6.7539,-7.0092,-7.0402,-6.7423,-6.4058,-5.9455,-5.3265,-4.5849,0.0,0.0,0.0,0.0,0.0,0.0,0.0,0.0,0.0,0.0,0.0,0.0,0.0,0.0,0.0,0.0,0.0,0.0,0.0,0.0,0.0,0.0,0.0,0.0,0.0,0.0,0.0,0.0,0.0,0.0,0.0,0.0,0.0,0.0,0.0,0.0,0.0,0.0,0.0,0.0,0.0,0.0,0.0,0.0,0.0,0.0,0.0,0.0,0.0,0.0,0.0,0.0,0.0,0.0,0.0,0.0,0.0,0.0,0.0,0.0,0.0,0.0,0.0,0.0,0.0,0.0,0.0,0.0,0.0,0.0,0.0,0.0,0.0,0.0,0.0,0.0,0.0,0.0,0.0,0.0,0.0,0.0,0.0,0.0,0.0,0.0,0.0,0.0,0.0,0.0,0.0,0.0,0.0,0.0,0.0,0.0,0.0,0.0,0.0,0.0,0.0,0.0,-6.1776,-6.6727,-6.8506,-7.0982,-7.0827,-6.665,-6.3168,-5.8294,-5.1517,-4.4612,0.0,0.0,0.0,0.0,0.0,0.0,0.0,0.0,0.0,0.0,0.0,0.0,0.0,0.0,0.0,0.0,0.0,0.0,0.0,0.0,0.0,0.0,0.0,0.0,0.0,0.0,0.0,0.0,0.0,0.0,0.0,0.0,0.0,0.0,0.0,0.0,0.0,0.0,0.0,0.0,0.0,0.0,0.0,0.0,0.0,0.0,0.0,0.0,0.0,0.0,0.0,0.0,0.0,0.0,0.0,0.0,0.0,0.0,0.0,0.0,0.0,0.0,0.0,0.0,0.0,0.0,0.0,0.0,0.0,0.0,0.0,0.0,0.0,0.0,0.0,0.0,0.0,0.0,0.0,0.0,0.0,0.0,0.0,0.0,0.0,0.0,0.0,0.0,0.0,0.0,0.0,0.0,0.0,0.0,0.0,0.0,0.0,0.0,0.0,0.0,0.0,0.0,-6.1969,-6.6882,0.0,-7.0595,-7.0286,-6.6533,-6.2627,-5.7637,-5.1285,0.0,0.0,0.0,0.0,0.0,0.0,0.0,0.0,0.0,0.0,0.0,0.0,0.0,0.0,0.0,0.0,0.0,0.0,0.0,0.0,0.0,0.0,0.0,0.0,0.0,0.0,0.0,0.0,0.0,0.0,0.0,0.0,0.0,0.0,0.0,0.0,0.0,0.0,0.0,0.0,0.0,0.0,0.0,0.0,0.0,0.0,0.0,0.0,0.0,0.0,0.0,0.0,0.0,0.0,0.0,0.0,0.0,0.0,0.0,0.0,0.0,0.0,0.0,0.0,0.0,0.0,0.0,0.0,0.0,0.0,0.0,0.0,0.0,0.0,0.0,0.0,0.0,0.0,0.0,0.0,0.0,0.0,0.0,0.0,0.0,0.0,0.0,0.0,0.0,0.0,0.0,0.0,0.0,0.0,0.0,0.0,0.0,0.0,0.0,0.0,0.0,0.0,-5.5161,-6.2433,-6.7501,0.0,-7.0556,-7.0092,-6.6147,-6.2162,-5.7095,-5.0511,0.0,0.0,0.0,0.0,0.0,0.0,0.0,0.0,0.0,0.0,0.0,0.0,0.0,0.0,0.0,0.0,0.0,0.0,0.0,0.0,0.0,0.0,0.0,0.0,0.0,0.0,0.0,0.0,0.0,0.0,0.0,0.0,0.0,0.0,0.0,0.0,0.0,0.0,0.0,0.0,0.0,0.0,0.0,0.0,0.0,0.0,0.0,0.0,0.0,0.0,0.0,0.0,0.0,0.0,0.0,0.0,0.0,0.0,0.0,0.0,0.0,0.0,0.0,0.0,0.0,0.0,0.0,0.0,0.0,0.0,0.0,0.0,0.0,0.0,0.0,0.0,0.0,0.0,0.0,0.0,0.0,0.0,0.0,0.0,0.0,0.0,0.0,0.0,0.0,0.0,0.0,0.0,0.0,0.0,0.0,0.0,0.0,0.0,0.0,0.0,0.0,0.0,-5.5238,-6.3478,-6.8777,-6.8816,-7.1059,-7.0518,-6.545,-6.1892,-5.6631,0.0,0.0,0.0,0.0,0.0,0.0,0.0,0.0,0.0,0.0,0.0,0.0,0.0,0.0,0.0,0.0,0.0,0.0,0.0,0.0,0.0,0.0,0.0,0.0,0.0,0.0,0.0,0.0,0.0,0.0,0.0,0.0,0.0,0.0,0.0,0.0,0.0,0.0,0.0,0.0,0.0,0.0,0.0,0.0,0.0,0.0,0.0,0.0,0.0,0.0,0.0,0.0,0.0,0.0,0.0,0.0,0.0,0.0,0.0,0.0,0.0,0.0,0.0,0.0,0.0,0.0,0.0,0.0,0.0,0.0,0.0,0.0,0.0,0.0,0.0,0.0,0.0,0.0,0.0,0.0,0.0,0.0,0.0,0.0,0.0,0.0,0.0,0.0,0.0,0.0,0.0,0.0,0.0,0.0,0.0,0.0,0.0,0.0,0.0,0.0,0.0,0.0,0.0,-5.5161,-6.2433,-6.7423,-6.8661,-7.0518,-7.0092,-6.6185,-6.2704,-5.7714,-5.0589,0.0,0.0,0.0,0.0,0.0,0.0,0.0,0.0,0.0,0.0,0.0,0.0,0.0,0.0,0.0,0.0,0.0,0.0,0.0,0.0,0.0,0.0,0.0,0.0,0.0,0.0,0.0,0.0,0.0,0.0,0.0,0.0,0.0,0.0,0.0,0.0,0.0,0.0,0.0,0.0,0.0,0.0,0.0,0.0,0.0,0.0,0.0,0.0,0.0,0.0,0.0,0.0,0.0,0.0,0.0,0.0,0.0,0.0,0.0,0.0,0.0,0.0,0.0,0.0,0.0,0.0,0.0,0.0,0.0,0.0,0.0,0.0,0.0,0.0,0.0,0.0,0.0,0.0,0.0,0.0,0.0,0.0,0.0,0.0,0.0,0.0,0.0,0.0,0.0,0.0,0.0,0.0,0.0,0.0,0.0,0.0,0.0,0.0,0.0,0.0,0.0,0.0,-5.5161,-6.2278,-6.7268,-6.8661,-7.0286,-6.9899,-6.6495,-6.371,-5.8913,-5.1362,0.0,0.0,0.0,0.0,0.0,0.0,0.0,0.0,0.0,0.0,0.0,0.0,0.0,0.0,0.0,0.0,0.0,0.0,0.0,0.0,0.0,0.0,0.0,0.0,0.0,0.0,0.0,0.0,0.0,0.0,0.0,0.0,0.0,0.0,0.0,0.0,0.0,0.0,0.0,0.0,0.0,0.0,0.0,0.0,0.0,0.0,0.0,0.0,0.0,0.0,0.0,0.0,0.0,0.0,0.0,0.0,0.0,0.0,0.0,0.0,0.0,0.0,0.0,0.0,0.0,0.0,0.0,0.0,0.0,0.0,0.0,0.0,0.0,0.0,0.0,0.0,0.0,0.0,0.0,0.0,0.0,0.0,0.0,0.0,0.0,0.0,0.0,0.0,0.0,0.0,0.0,0.0,0.0,0.0,0.0,0.0,0.0,0.0,0.0,0.0,0.0,0.0,-5.5238,-6.2588,-6.7617,-6.8584,-7.0092,-6.9705,-6.6379,-6.4561,-5.9996,-5.1556,0.0,0.0,0.0,0.0,0.0,0.0,0.0,0.0,0.0,0.0,0.0,0.0,0.0,0.0,0.0,0.0,0.0,0.0,0.0,0.0,0.0,0.0,0.0,0.0,0.0,0.0,0.0,0.0,0.0,0.0,0.0,0.0,0.0,0.0,0.0,0.0,0.0,0.0,0.0,0.0,0.0,0.0,0.0,0.0,0.0,0.0,0.0,0.0,0.0,0.0,0.0,0.0,0.0,0.0,0.0,0.0,0.0,0.0,0.0,0.0,-5.9184,0.0,0.0,0.0,0.0,0.0,0.0,0.0,0.0,0.0,0.0,0.0,0.0,0.0,0.0,0.0,0.0,0.0,0.0,0.0,0.0,0.0,0.0,0.0,0.0,0.0,0.0,0.0,0.0,0.0,0.0,0.0,0.0,0.0,0.0,0.0,0.0,0.0,0.0,0.0,0.0,0.0,-5.5161,-6.1582,-6.6108,-6.7617,-6.87,-6.8236,-6.5489,-6.3671,-5.9609,-5.2376,0.0,0.0,0.0,0.0,0.0,0.0,0.0,0.0,0.0,0.0,0.0,0.0,0.0,0.0,0.0,0.0,0.0,0.0,0.0,0.0,0.0,0.0,0.0,0.0,0.0,0.0,0.0,0.0,0.0,0.0,0.0,0.0,0.0,0.0,0.0,0.0,0.0,0.0,0.0,0.0,0.0,0.0,0.0,0.0,0.0,0.0,0.0,0.0,0.0,0.0,0.0,0.0,0.0,0.0,0.0,0.0,0.0,0.0,0.0,0.0,0.0,-6.2394,0.0,0.0,0.0,0.0,0.0,0.0,0.0,0.0,0.0,0.0,0.0,0.0,0.0,0.0,0.0,0.0,0.0,0.0,0.0,0.0,0.0,0.0,0.0,0.0,0.0,0.0,0.0,0.0,0.0,0.0,0.0,0.0,0.0,0.0,0.0,0.0,0.0,0.0,0.0,0.0,-5.52,-6.1273,-6.5644,-6.7307,-6.8274,-6.7771,-6.5218,-6.3787,-6.0306,-5.3846,-4.9436,0.0,0.0,0.0,0.0,0.0,0.0,0.0,0.0,0.0,0.0,0.0,0.0,0.0,0.0,0.0,0.0,0.0,0.0,0.0,0.0,0.0,0.0,0.0,0.0,0.0,0.0,0.0,0.0,0.0,0.0,0.0,0.0,0.0,0.0,0.0,0.0,0.0,0.0,0.0,0.0,0.0,0.0,0.0,0.0,0.0,0.0,0.0,0.0,0.0,0.0,0.0,0.0,0.0,-7.017,-7.133,-7.1407,-7.2993,-7.4193,-7.4811,-7.1407,-6.8932,-6.7191,0.0,0.0,0.0,0.0,0.0,0.0,0.0,0.0,0.0,0.0,0.0,0.0,0.0,0.0,0.0,0.0,0.0,0.0,0.0,0.0,0.0,0.0,0.0,0.0,0.0,-5.6708,-5.5122,0.0,0.0,0.0,0.0,0.0,0.0,0.0,0.0,0.0,0.0,0.0,0.0,-5.547,-6.1234,-6.5412,-6.7075,-6.7926,-6.7384,-6.4986,-6.399,-6.1041,-5.5354,-5.1254,-4.7154,0.0,0.0,0.0,0.0,0.0,0.0,0.0,0.0,0.0,0.0,0.0,0.0,0.0,0.0,0.0,0.0,0.0,0.0,0.0,0.0,0.0,0.0,0.0,0.0,0.0,0.0,0.0,0.0,0.0,0.0,0.0,0.0,-4.7347,-4.7695,0.0,0.0,0.0,0.0,0.0,0.0,0.0,0.0,0.0,0.0,0.0,0.0,0.0,-6.7617,-6.9938,-7.191,-7.3226,-7.396,-7.5817,-7.6668,-7.6707,-7.7713,-7.8602,-7.9376,-7.9569,0.0,-7.1601,-6.986,0.0,0.0,0.0,0.0,0.0,0.0,0.0,0.0,0.0,0.0,0.0,0.0,0.0,0.0,0.0,0.0,0.0,0.0,0.0,0.0,0.0,0.0,-6.3555,-6.193,-6.2046,-6.2124,0.0,-5.6205,-5.1757,-4.932,-4.6767,0.0,0.0,0.0,0.0,0.0,0.0,0.0,-5.6351,-6.1079,-6.4532,-6.6185,-6.6456,-6.5837,-6.4029,-6.3052,-6.0654,-5.6128,-5.3227,-4.9792,-4.5575,-4.1893,0.0,0.0,0.0,0.0,0.0,0.0,0.0,0.0,0.0,0.0,0.0,0.0,0.0,0.0,0.0,0.0,0.0,0.0,0.0,0.0,0.0,0.0,0.0,0.0,0.0,0.0,0.0,0.0,0.0,-4.754,-5.1447,-5.195,-5.3188,-5.3459,0.0,0.0,0.0,0.0,0.0,0.0,0.0,0.0,0.0,-6.8584,-7.1175,-7.3496,-7.5624,-7.779,-7.9067,-7.9453,-8.1155,-8.2238,-8.2741,-8.3592,-8.4211,-8.4559,-8.4946,-8.2819,-7.8796,-7.5121,-7.1109,-6.6892,0.0,0.0,0.0,0.0,-6.0576,-6.1698,-6.2162,-6.2317,0.0,-6.2743,0.0,0.0,0.0,0.0,0.0,0.0,0.0,0.0,0.0,0.0,0.0,-6.4251,-6.4483,-6.4754,-6.34,-6.0692,-5.7598,0.0,-5.1873,-4.9165,-4.6109,0.0,0.0,0.0,0.0,0.0,-5.6699,-6.1041,-6.399,-6.4715,-6.5218,-6.4831,-6.3129,-6.2627,-6.1002,-5.7675,-5.547,-5.2647,-4.8856,-4.4974,-4.1248,0.0,0.0,0.0,0.0,0.0,0.0,0.0,0.0,0.0,0.0,0.0,0.0,0.0,0.0,0.0,0.0,0.0,0.0,0.0,0.0,0.0,0.0,0.0,0.0,0.0,0.0,0.0,0.0,-5.1563,-5.52,-5.6283,-5.7907,-5.8372,0.0,0.0,0.0,0.0,0.0,0.0,-6.5847,-6.8197,-7.0905,-7.4154,-7.6475,-7.8409,-7.9956,-8.2277,-8.3438,-8.3476,-8.4946,-8.5991,-8.661,-8.7267,-8.7577,-8.7577,-8.7577,-8.6377,-8.4057,-7.9569,-7.543,-7.164,-6.8506,-6.6882,-6.6263,-6.6079,-6.665,-6.7655,-6.8274,-6.8468,-6.8506,-6.8738,0.0,-6.3091,-5.9639,0.0,0.0,0.0,0.0,-6.1389,-6.3758,-6.6069,-6.7539,-6.6263,-6.6417,-6.6456,-6.4986,-6.3826,-6.2046,0.0,-5.6089,-5.3459,-5.0248,0.0,0.0,0.0,0.0,-5.4116,-5.7521,-6.1118,-6.3449,-6.3681,-6.43,-6.4058,-6.2549,-6.2201,-6.1079,-5.8767,-5.6786,-5.4349,-5.137,-4.7332,-4.3761,-4.0771,0.0,0.0,0.0,0.0,0.0,0.0,0.0,0.0,0.0,0.0,0.0,0.0,0.0,0.0,0.0,0.0,0.0,0.0,0.0,0.0,0.0,0.0,0.0,0.0,0.0,0.0,0.0,0.0,0.0,-6.0576,-6.2317,0.0,0.0,0.0,0.0,-6.4406,-6.692,-6.9473,-7.2026,-7.3767,-7.5933,-7.8602,-8.0343,-8.1697,-8.2587,-8.4327,-8.5178,-8.5178,-8.6107,-8.6571,-8.661,-8.6648,-8.6687,-8.6687,-8.6687,-8.6107,-8.5024,-8.2355,-7.9685,-7.7055,-7.4463,-7.3419,-7.3303,-7.2452,-7.3187,-7.4607,-7.4657,-7.4657,-7.4811,-7.5624,-7.1949,-6.6611,-6.3168,-6.0886,0.0,0.0,-6.2124,-6.3913,-6.5644,-6.7384,-6.87,-6.8622,-6.8661,-6.8429,-6.7501,-6.6031,-6.3864,0.0,-5.8333,-5.6283,-5.3691,0.0,-5.1169,-5.2995,-5.4078,-5.5896,-5.9339,-6.135,-6.2781,-6.3603,-6.3758,-6.34,-6.2472,-6.166,-6.0422,-5.8729,-5.6244,-5.4039,-5.2229,-4.8817,-4.6095,-4.4281,-3.9226,0.0,0.0,0.0,0.0,0.0,0.0,0.0,0.0,0.0,0.0,0.0,0.0,0.0,0.0,0.0,0.0,0.0,0.0,0.0,0.0,0.0,0.0,0.0,0.0,0.0,0.0,0.0,0.0,-6.6572,-6.8854,0.0,-6.9048,-6.897,-6.9667,-7.1369,-7.3883,-7.6243,-7.8216,-7.9956,-8.1542,-8.3012,-8.4173,-8.4946,-8.5256,-8.5836,-8.6145,-8.6145,-8.6455,-8.688,-8.7461,-8.7461,-8.7461,-8.7461,-8.7461,-8.661,-8.5178,-8.3747,-8.1658,-7.9105,-7.7132,-7.6011,-7.5546,-7.5779,-7.6243,-7.6862,-7.7403,-7.7248,-7.6552,-7.5237,-7.222,-6.8777,-6.7036,-6.4948,-6.3478,-6.4831,-6.5682,-6.6417,-6.7578,-6.8738,-6.9435,-6.8932,-6.8816,-6.8545,-6.7694,-6.6185,-6.4638,-6.34,-6.1311,-5.93,-5.7869,-5.6167,-5.5432,-5.6592,-5.7056,-5.7869,-5.9648,-6.135,-6.2317,-6.2046,-6.2511,-6.2317,-6.0925,-6.0499,-5.9339,-5.7056,-5.6089,-5.4542,-5.2306,-4.9977,-4.7959,-4.6211,-4.2208,-3.9077,0.0,0.0,0.0,0.0,0.0,0.0,0.0,0.0,0.0,0.0,0.0,0.0,0.0,0.0,0.0,0.0,0.0,0.0,0.0,0.0,0.0,0.0,0.0,0.0,0.0,0.0,-6.8236,-7.133,-7.3767,-7.5082,-7.4773,-7.4773,-7.5314,-7.6707,-7.8989,-8.0885,-8.2316,-8.3747,-8.4869,-8.572,-8.63,-8.661,-8.661,-8.661,-8.661,-8.661,-8.661,-8.6919,-8.7461,-8.7461,-8.7461,-8.7461,-8.7461,-8.6648,-8.5256,-8.4443,-8.2896,-8.0923,-7.9531,-7.8641,-7.8177,-7.8757,-7.8989,-7.8989,-7.8989,-7.8602,-7.7713,-7.516,-7.3148,-7.1523,-7.044,-6.8893,-6.7733,-6.8545,-6.8777,-6.8932,-6.9473,-7.0054,-7.0286,-6.9783,-6.9203,-6.8661,-6.8081,-6.6611,-6.5412,-6.5412,-6.3323,-6.1273,-6.046,-5.9106,-5.8372,-5.8952,-5.9029,-5.9339,-6.019,-6.1273,-6.1737,-6.1157,-6.1389,-6.1118,-5.9996,-5.9106,-5.783,-5.6128,-5.492,-5.3652,-5.2268,-5.0326,-4.8701,-4.754,-4.362,-4.0211,-3.7328,0.0,0.0,0.0,0.0,0.0,0.0,0.0,0.0,0.0,0.0,0.0,0.0,0.0,0.0,0.0,0.0,0.0,0.0,0.0,0.0,0.0,0.0,0.0,-6.2317,-6.6301,-7.0595,-7.4761,-7.6823,-7.8216,-7.9067,-7.9183,-7.9531,-8.0304,-8.1968,-8.3283,-8.4134,-8.4908,-8.572,-8.6571,-8.661,-8.661,-8.661,-8.661,-8.661,-8.661,-8.661,-8.661,-8.661,-8.661,-8.661,-8.6571,-8.6571,-8.6068,-8.5178,-8.4366,-8.3554,-8.2664,-8.1852,-8.1491,-8.1491,-8.1491,-8.1491,-8.122,-7.9531,-7.895,-7.8525,-7.5972,-7.5109,-7.4811,-7.3148,-7.2607,-7.2413,-7.1562,-7.1291,-7.1291,-7.1291,-7.1291,-7.1291,-7.1291,-7.0015,-6.8816,-6.8816,-6.7423,-6.6185,-6.6185,-6.4174,-6.2201,-6.135,-6.0499,-5.9957,-5.9919,-5.9919,0.0,-6.1002,-6.1118,-6.1079,-6.1079,-6.0383,-5.988,-5.9803,-5.7482,-5.5973,-5.5896,-5.2754,-5.1254,-5.2036,-4.9707,-4.8392,-4.8353,-4.344,-3.923,-3.5858,0.0,0.0,0.0,0.0,0.0,0.0,0.0,0.0,0.0,0.0,0.0,0.0,0.0,0.0,0.0,0.0,0.0,0.0,0.0,0.0,0.0,0.0,-6.4831,-6.5953,-7.0827,-7.543,-7.8448,-8.0885,-8.2432,-8.2664,-8.3244,-8.367,-8.3863,-8.4946,-8.5643,-8.5913,-8.6107,-8.6339,-8.661,-8.661,-8.661,-8.661,-8.661,-8.661,-8.661,-8.661,-8.661,-8.661,-8.661,-8.6261,-8.5643,-8.5643,-8.483,-8.3476,-8.3244,-8.2625,-8.1852,-8.1581,-8.1491,-8.1491,-8.1491,-8.1117,-8.0343,-7.8641,-7.8061,-7.7829,-7.6475,-7.5624,-7.4916,-7.3844,-7.3109,-7.2413,-7.1562,-7.1291,-7.1291,-7.1291,-7.1291,-7.1291,-7.1291,-7.0015,-6.8816,-6.8816,-6.7423,-6.6185,-6.6185,-6.5141,-6.4019,-6.3129,-6.2278,-6.1505,-6.0886,-6.077,0.0,-6.1079,-6.1118,-6.0886,-6.0306,-6.0035,-5.9377,-5.8139,-5.6786,-5.52,-5.3343,-5.1757,-5.0473,-4.9475,-4.8778,-4.8082,-4.7463,-4.4253,-4.1538,0.0,0.0,0.0,0.0,0.0,0.0,0.0,0.0,0.0,0.0,0.0,0.0,0.0,0.0,0.0,0.0,0.0,0.0,0.0,0.0,0.0,0.0,-6.5064,-6.9976,-7.1562,-7.5082,-7.8409,-8.1001,-8.3244,-8.4753,-8.5101,-8.5565,-8.5836,-8.5836,-8.63,-8.661,-8.661,-8.661,-8.661,-8.661,-8.661,-8.661,-8.661,-8.661,-8.661,-8.661,-8.661,-8.661,-8.661,-8.6223,-8.5797,0.0,-8.4946,-8.4057,-8.278,-8.278,-8.2277,0.0,0.0,0.0,0.0,0.0,-8.0653,-7.9956,-7.8293,-7.7713,-7.7558,-7.6668,-7.6049,-7.543,-7.427,-7.3535,-7.2877,-7.164,-7.1291,-7.1291,-7.1291,-7.1291,-7.1214,-7.0827,-6.9744,-6.87,-6.8352,-6.7152,-6.6185,-6.6185,-6.5837,0.0,-6.3913,-6.2975,-6.2085,-6.1234,-6.1118,-6.1118,-6.1118,-6.1118,-6.0809,-5.9996,-5.9571,-5.8797,-5.7434,-5.5857,0.0,0.0,0.0,-4.9977,-4.8972,-4.8933,0.0,0.0,0.0,0.0,0.0,0.0,0.0,0.0,-3.7365,-3.7771,0.0,0.0,0.0,0.0,0.0,0.0,0.0,0.0,0.0,0.0,0.0,0.0,0.0,0.0,0.0,0.0,-6.9357,-7.5005,-7.7365,-7.8796,-8.0459,-8.278,-8.4482,-8.5759,-8.6532,-8.661,-8.661,-8.661,-8.661,-8.661,-8.661,0.0,0.0,0.0,0.0,-8.661,-8.661,-8.661,-8.661,-8.661,-8.661,-8.6571,-8.6416,-8.5643,-8.5217,-8.4985,-8.425,-8.3476,-8.2664,-8.2664,-8.22,-8.1491,-8.1491,-8.1465,-8.1271,-8.0382,-7.9995,-7.9685,-7.8099,0.0,0.0,-7.663,-7.6397,-7.6088,-7.4425,-7.3883,-7.3535,-7.1794,-7.1291,-7.1291,-7.1291,-7.1291,-7.1059,-7.0208,-6.9396,-6.8545,-6.7694,-6.6804,-6.6185,-6.6185,-6.6185,-6.5682,-6.399,-6.3052,-6.224,-6.1234,-6.1118,-6.1118,-6.1118,-6.1118,-6.077,-5.9841,0.0,0.0,-5.7241,-5.5006,-5.3614,-5.3498,-5.1177,-4.9861,-4.9861,-4.9861,-4.9861,-4.9861,-4.8314,-4.7192,-4.6464,-4.6387,-4.6464,-4.6503,-4.2337,-4.1685,0.0,0.0,0.0,0.0,0.0,0.0,0.0,0.0,0.0,0.0,0.0,0.0,0.0,0.0,0.0,-6.6882,-7.2258,-7.632,-7.7519,-8.0807,-8.3554,-8.4675,-8.572,-8.6416,-8.6571,-8.661,-8.661,-8.661,-8.661,-8.661,-8.661,-8.661,0.0,-8.661,-8.661,-8.661,-8.661,-8.661,-8.661,-8.661,0.0,0.0,-8.5565,-8.5372,-8.4559,-8.3283,-8.3128,-8.2548,-8.1736,-8.1736,-8.1658,-8.1491,-8.1491,-8.1078,-8.0343,-7.9531,-7.8796,-7.8022,-7.7016,-7.663,-7.663,-7.6436,-7.6397,-7.6088,-7.4425,-7.3883,0.0,-7.1794,-7.1291,-7.1291,-7.1291,-7.1291,-7.1059,-7.0208,-6.9396,-6.8545,-6.7694,-6.6804,-6.6185,-6.6185,-6.6185,-6.5682,-6.399,-6.3565,-6.2897,-6.135,-6.1118,-6.1118,-6.1118,-6.1118,-6.0538,-5.899,-5.869,-5.7946,-5.6399,-5.52,-5.4233,-5.3536,-5.1718,-5.0666,-5.0666,-5.0666,-5.0666,-5.0666,-5.0318,-5.0086,-4.9931,-4.9931,-5.0287,-5.0914,-4.8005,-4.7294,0.0,0.0,0.0,0.0,0.0,0.0,0.0,0.0,0.0,0.0,0.0,-5.5432,-5.9725,0.0,-6.7346,-7.0789,-7.4928,-7.8138,-7.9415,-8.1813,-8.3747,-8.4598,-8.5836,-8.661,-8.661,-8.661,-8.661,-8.661,-8.661,-8.661,-8.661,-8.661,-8.661,-8.661,-8.661,-8.661,-8.661,-8.661,-8.661,-8.661,-8.661,-8.6145,-8.5294,-8.4869,-8.3979,-8.278,-8.2355,-8.189,-8.1491,-8.1491,-8.1233,-8.0846,-8.0846,-8.0575,-8.0072,-7.8796,-7.8061,-7.7558,-7.6707,-7.6397,-7.6397,-7.6397,-7.6397,-7.6088,-7.4425,-7.3883,-7.3535,-7.1794,-7.1291,-7.1291,-7.1291,-7.1291,-7.0982,-6.9705,-6.9087,-6.8429,-6.7114,-6.6495,-6.6185,-6.6185,-6.6185,-6.5682,-6.399,-6.3719,-6.31,-6.135,-6.1118,-6.1118,-6.1118,-6.1118,-6.046,-5.8758,-5.8613,-5.7869,-5.6167,-5.5277,-5.4426,-5.3575,-5.2685,-5.2221,-5.2221,-5.2221,-5.2221,-5.2221,-5.2221,-5.2221,-5.2221,-5.2221,-5.2647,-5.3459,-5.2182,-5.1586,0.0,0.0,0.0,0.0,0.0,0.0,0.0,0.0,-5.0867,-5.4271,-5.7559,-6.0895,-6.43,-6.7975,-7.1369,-7.396,-7.6978,-7.9531,-8.1039,-8.2122,-8.3051,-8.3747,-8.5333,-8.6339,-8.6339,-8.6494,-8.661,-8.661,-8.661,-8.661,-8.661,-8.661,-8.661,-8.661,-8.661,-8.661,-8.661,-8.661,-8.661,-8.661,-8.661,-8.6068,-8.5024,-8.4405,-8.3515,-8.2509,-8.1813,-8.1491,-8.1491,-8.131,-8.0846,-8.0188,-7.984,-7.9724,-7.9569,-7.8216,-7.7597,-7.7365,-7.663,-7.6397,-7.6397,-7.6397,-7.6281,-7.5856,-7.4347,-7.3767,-7.3303,-7.1756,-7.1291,-7.1291,-7.1291,-7.1175,-7.0672,-6.9164,-6.8661,-6.8119,-6.6533,-6.6185,-6.6185,-6.6185,-6.6185,-6.5682,-6.399,-6.3719,-6.31,-6.135,-6.1118,-6.1118,-6.1118,-6.0963,-6.0267,-5.8758,-5.8449,-5.7714,-5.6128,-5.5393,-5.4735,-5.4039,-5.4,-5.3923,-5.3768,-5.3884,-5.3923,-5.376,-5.3915,-5.3984,-5.3975,-5.3975,-5.4323,-5.5019,-5.5019,-5.4615,-4.1925,-4.4284,-4.754,-4.8701,-5.0171,-5.1796,0.0,0.0,-5.6128,-5.9532,-6.2394,-6.5296,-6.8671,-7.0943,-7.3148,-7.5701,-7.7751,-7.9299,-8.0227,-8.1774,-8.2819,-8.2935,-8.4443,-8.5449,-8.5449,-8.6145,-8.661,-8.661,-8.661,-8.661,-8.661,-8.661,-8.661,-8.661,-8.661,-8.661,-8.661,-8.661,-8.661,-8.661,-8.661,-8.5759,-8.4211,-8.4134,-8.3206,-8.1658,-8.1542,-8.1491,-8.1465,-8.0653,-8.0304,-8.0072,-7.8564,-7.7983,-7.7945,-7.7751,-7.721,-7.6514,-7.6436,-7.6397,-7.6397,-7.6397,-7.5895,-7.5082,-7.4154,-7.338,-7.2529,-7.1562,-7.1291,-7.1291,-7.1291,-7.0711,-6.9899,-6.9009,-6.8197,-6.7384,-6.6417,-6.6185,-6.6185,-6.6185,-6.6185,-6.5682,-6.399,-6.3719,-6.31,-6.135,-6.1118,-6.1118,-6.1118,-6.046,-5.9648,-5.869,-5.7907,-5.7048,-5.6089,-5.5935,-5.5818,-5.5741,-5.5741,-5.5393,-5.4697,-5.5354,-5.5367,-5.4598,-5.5323,-5.5691,-5.5644,-5.5644,-5.5683,-5.576,-5.576,-5.5768,-4.5725,-4.8439,-5.1771,0.0,-5.5393,-5.7134,-5.8836,-5.988,-6.1311,-6.4213,-6.6882,-6.9396,-7.1833,-7.3264,-7.4889,0.0,-7.8525,-7.9453,-8.0769,-8.1155,-8.1271,-8.1271,-8.2355,-8.3476,-8.4482,-8.4946,-8.5333,-8.5797,-8.5836,-8.6068,-8.6571,-8.661,-8.661,-8.661,-8.661,-8.661,-8.661,-8.6107,-8.5836,-8.5836,-8.5372,-8.4521,-8.3322,-8.3322,-8.2664,-8.1491,-8.1491,-8.1491,-8.1414,-8.0575,-7.9918,-7.9376,-7.8177,-7.7403,-7.6939,-7.6939,-7.6707,-7.6397,-7.6397,-7.6397,-7.6397,-7.6397,-7.5817,-7.4966,-7.4154,-7.3303,-7.2413,-7.1562,-7.1291,-7.1291,-7.1291,-7.0634,-6.9783,-6.9009,-6.8119,-6.7268,-6.6379,-6.6185,-6.6185,-6.6185,-6.5837,-6.5102,-6.3913,-6.3284,-6.2511,-6.1273,-6.1118,-6.1118,-6.1118,-6.0809,-6.0074,-5.872,-5.7366,-5.639,-5.6051,-5.6012,-5.6012,-5.6012,-5.6012,-5.5857,-5.5509,-5.5831,-5.5843,-5.5477,-5.5788,-5.5924,-5.5895,-5.5895,-5.5895,-5.5895,-5.5895,-5.5924,-4.8987,-5.1863,0.0,-5.7434,-5.9493,-6.1389,-6.3091,-6.3942,-6.5064,-6.7384,-6.9512,-7.1407,-7.2916,-7.4038,-7.5546,-7.7906,-7.868,-7.9492,-8.0962,-8.0807,-8.0459,-8.0227,-8.0769,-8.1658,-8.2896,-8.367,-8.4327,-8.4946,-8.5178,-8.5565,-8.6223,-8.6455,-8.661,-8.661,-8.661,-8.6494,-8.6261,-8.5604,-8.5178,-8.4946,-8.4366,-8.3631,-8.278,-8.2548,-8.2084,-8.1491,-8.1491,-8.1491,-8.1414,-8.0575,-7.9879,-7.9221,-7.8138,-7.7287,-7.6707,-7.6475,-7.6397,-7.6397,-7.6397,-7.6397,-7.6359,-7.6127,-7.5469,-7.4618,-7.3806,-7.2916,-7.2104,-7.1485,-7.1291,-7.1291,-7.1291,-7.0479,-6.9512,-6.8932,-6.7965,-6.6959,-6.634,-6.6185,-6.6185,-6.6185,-6.5528,-6.4725,-6.3835,-6.2975,-6.2085,-6.1234,-6.1118,-6.1118,-6.1118,-6.0692,-5.9841,-5.841,-5.6902,-5.6012,-5.6012,-5.6012,-5.6003,-5.5986,-5.5986,-5.5986,-5.5968,-5.5971,-5.5952,-5.5933,-5.5895,-5.5875,-5.5855,-5.5855,-5.5855,-5.5855,-5.5855,-5.5855,-5.1305,0.0,-5.7589,-5.9377,-6.1698,-6.4029,-6.5682,-6.6108,-6.6611,-6.839,-6.9435,-7.0324,-7.1214,-7.2761,-7.4502,-7.6204,-7.7906,-7.9299,-8.0111,-8.0962,-8.1155,-8.0304,-8.0227,-8.0266,0.0,-8.2625,-8.4095,-8.4134,-8.4869,-8.5294,-8.5333,-8.6145,-8.661,-8.661,-8.661,-8.6184,-8.5333,-8.5294,-8.4908,-8.4134,-8.4095,-8.3631,-8.278,-8.1929,-8.1542,-8.1491,-8.1491,-8.1491,-8.1414,-8.0575,-8.0188,-7.9995,-7.8332,-7.7674,-7.7558,-7.6707,-7.6397,-7.6397,-7.6397,-7.6397,-7.6243,-7.543,-7.4579,-7.3767,-7.2916,-7.2026,-7.133,-7.1291,-7.1291,-7.1291,-7.1291,-7.0054,-6.8816,-6.8816,-6.7501,-6.6224,-6.6224,-6.6185,-6.6185,-6.6185,-6.5528,-6.4725,-6.3835,-6.2975,-6.2085,-6.1234,-6.1118,-6.1118,-6.1118,-5.9687,-5.8333,-5.7434,-5.6545,-5.6012,-5.6012,-5.6012,-5.5986,-5.6018,-5.6018,-5.5952,-5.5905,-5.5905,-5.5875,-5.5797,-5.5797,-5.5766,-5.5714,-5.5714,-5.5714,-5.5714,-5.5714,-5.5714,-5.2958,0.0,-5.8808,-6.1698,-6.3903,-6.5644,-6.6804,-6.7501,-6.8081,-6.87,-6.9009,-6.9473,-7.0286,-7.1369,-7.2916,-7.516,-7.7016,-7.8602,-7.9995,-8.0459,-8.0343,-7.9492,-7.9415,0.0,0.0,0.0,0.0,-8.3128,-8.3476,-8.4134,-8.5256,-8.5565,-8.5991,-8.6571,-8.6029,-8.5604,-8.5294,-8.4211,-8.3515,-8.3244,-8.2664,-8.2238,-8.1929,-8.162,-8.1491,-8.1491,-8.1491,-8.1194,-8.0614,-8.0343,-7.9531,-7.8486,-7.7906,-7.7365,-7.6784,-7.6514,-7.6397,-7.6397,-7.6397,-7.6397,-7.6243,-7.5392,-7.4579,-7.3728,-7.2877,-7.1988,-7.1291,-7.1291,-7.1291,-7.1175,-7.0595,-6.9628,-6.8661,-6.8081,-6.7036,-6.6185,-6.6185,-6.6185,-6.6185,-6.6185,-6.5064,-6.4029,-6.3758,-6.2511,-6.1427,-6.1157,-6.1118,-6.1118,-6.1118,-5.9648,-5.8488,-5.8178,-5.6863,-5.6012,-5.6012,-5.6016,-5.5989,-5.6018,-5.5943,-5.5914,-5.5895,-5.5865,-5.5807,-5.5797,-5.5756,-5.5724,-5.5703,-5.5703,-5.5703,-5.5703,-5.5703,-5.5703,-5.5198,-5.8171,-6.0974,-6.3516,-6.518,-6.6417,-6.7307,-6.7694,-6.781,-6.7501,-6.6959,-6.6766,-6.7578,-6.8468,-7.0092,-7.3226,-7.5701,-7.7829,-7.9531,-8.0304,-8.0382,-7.9531,-7.9183,0.0,0.0,0.0,0.0,-8.1774,-8.2432,-8.3283,-8.4366,-8.4985,-8.541,-8.572,-8.5449,-8.5024,-8.4405,-8.3322,-8.2625,-8.2316,-8.1774,-8.1491,-8.1491,-8.1491,-8.1491,-8.1491,-8.1491,-8.1001,-8.0188,-8.0188,-7.9415,-7.8138,-7.7829,-7.7365,-7.6823,-7.6514,-7.6397,-7.6397,-7.6397,-7.6204,-7.5817,-7.4966,-7.4115,-7.3264,-7.2413,-7.1756,-7.1291,-7.1291,-7.1291,-7.1098,-7.0208,-6.9396,-6.8584,-6.7694,-6.6843,-6.6185,-6.6185,-6.6185,-6.6185,-6.6185,-6.4831,-6.3719,-6.3719,-6.224,-6.1118,-6.1118,-6.1118,-6.1002,-6.0692,-5.9455,-5.8488,-5.8178,-5.6863,-5.6003,-5.5986,-5.5989,-5.5961,-5.5924,-5.5895,-5.5865,-5.5845,-5.5776,-5.5766,-5.5766,-5.5724,-5.5703,-5.5703,-5.5703,-5.5703,-5.5703,-5.5703,-5.5703,-5.7921,-6.1167,-6.4029,-6.4841,-6.5682,-6.6533,-6.723,-6.6727,-6.5876,-6.4986,-6.3362,-6.2433,0.0,0.0,-6.6185,-7.0402,-7.4038,-7.6939,-7.868,-8.042,-8.1194,0.0,0.0,0.0,0.0,0.0,0.0,-8.015,0.0,-8.2741,-8.278,-8.4327,-8.483,-8.4134,-8.4792,-8.4405,-8.2819,-8.2741,-8.2316,-8.1491,-8.1491,-8.1491,-8.1491,-8.1491,-8.1491,-8.1491,-8.1465,-8.0962,-8.015,-8.015,-7.9647,-7.8796,-7.8022,-7.7674,-7.7519,-7.6707,-7.6397,-7.6397,-7.6397,-7.5817,-7.4955,-7.4154,-7.3303,-7.2452,-7.1562,-7.1291,-7.1291,-7.1291,-7.1291,-7.1098,-7.017,-6.9357,-6.8584,-6.7655,-6.6804,-6.6185,-6.6185,-6.6185,-6.6185,-6.6185,-6.4831,-6.3681,-6.3565,-6.2201,-6.1118,-6.1118,-6.1118,-6.0809,-5.9996,-5.9145,-5.8255,-5.7396,-5.6506,-5.5986,-5.6018,-5.6009,-5.5933,-5.5797,-5.5787,-5.5766,-5.5714,-5.5703,-5.5703,-5.5703,-5.5703,-5.5703,-5.5703,-5.5703,-5.5703,-5.5703,-5.5703,-5.5703,-5.9736,-6.2965,-6.5605,-6.5837,-6.7036,-6.7694,-6.6031,-6.545,-6.4715,-6.2549,-6.0228,-5.9068,0.0,0.0,0.0,-6.7771,-7.2375,0.0,-7.779,-8.0034,0.0,-8.0304,0.0,-7.9724,-7.9337,-7.9647,0.0,0.0,-8.1233,-8.2122,-8.278,-8.3206,-8.3631,-8.4095,-8.367,-8.3244,-8.278,-8.2161,-8.1736,-8.1491,-8.1491,-8.1491,-8.1491,-8.1491,-8.1491,-8.1465,-8.0807,-8.0072,-7.9299,-7.9299,-7.8409,-7.7094,-7.7519,-7.7287,-7.6707,-7.6475,-7.6397,-7.6397,-7.6397,-7.5817,-7.4955,-7.4154,-7.3303,-7.2452,-7.1562,-7.1291,-7.1291,-7.1291,-7.1291,-7.0943,-6.9473,-6.897,-6.8429,-6.6882,-6.6379,-6.6185,-6.6185,-6.6185,-6.6185,-6.6185,-6.4831,-6.3294,-6.2008,-6.1389,-6.1118,-6.1118,-6.1118,-6.0809,-5.9996,-5.9145,-5.8255,-5.7396,-5.6506,-5.5986,-5.6018,-5.5943,-5.5895,-5.5797,-5.5756,-5.5724,-5.5703,-5.5703,-5.5703,-5.5703,-5.5703,-5.5703,-5.5703,-5.5703,-5.5703,-5.5703,-5.5703,-5.6049,-6.224,-6.5025,-6.7268,-6.6882,-6.723,-6.7075,-6.4909,-6.3255,-6.1543,-5.9339,-5.6244,0.0,0.0,0.0,0.0,0.0,0.0,0.0,-7.6204,-7.9067,-8.0769,0.0,-8.0188,0.0,-8.0111,-8.015,-8.0382,0.0,-8.122,-8.1697,-8.22,-8.2587,-8.2857,-8.2973,-8.2857,-8.2625,-8.2238,-8.1736,-8.1491,-8.1491,-8.1491,-8.1491,-8.1491,-8.1491,-8.1491,-8.1465,0.0,-7.9724,-7.8989,-7.8602,-7.7635,-7.6436,-7.6939,-7.6823,-7.6397,-7.6397,-7.6397,-7.6359,-7.5972,-7.5276,-7.4502,-7.4038,-7.3032,-7.1949,-7.1446,-7.1291,-7.1291,-7.1291,-7.1021,-7.044,-6.9125,-6.8506,-6.7887,-6.6533,-6.6185,-6.6185,-6.6185,-6.6185,-6.5992,-6.5257,-6.4338,-6.3139,-6.1389,-6.1118,-6.1118,-6.1118,-6.1118,-6.0809,-5.9996,-5.9145,-5.8101,-5.6854,-5.6274,-5.5977,-5.5952,-5.5914,-5.5865,-5.5756,-5.5724,-5.5703,-5.5703,-5.5703,-5.5703,-5.5703,-5.5703,-5.5703,-5.5703,-5.5703,-5.5703,-5.5703,-5.6088,-5.6522,-6.487,-6.7114,-6.8738,-6.7733,-6.692,-6.5799,-6.3681,-6.0538,-5.7482,-5.5432,0.0,-4.9622,-5.2182,-5.284,-5.52,-6.194,0.0,-7.0866,-7.4309,-7.7829,-8.0072,-8.0188,-8.0304,-8.0691,-8.1414,-8.0807,-8.0691,-8.1465,-8.1491,-8.1491,-8.1491,-8.2238,-8.2277,-8.1542,-8.2238,-8.2277,-8.1504,-8.1491,-8.1491,-8.1491,-8.1491,-8.1491,-8.1491,-8.1491,-8.1465,-8.1259,0.0,0.0,-7.8757,-7.7906,-7.7094,-7.6397,-7.6397,-7.6397,-7.6397,-7.6397,-7.6397,-7.6281,-7.5392,-7.4579,-7.3883,-7.3767,-7.2645,-7.1291,-7.1291,-7.1291,-7.1291,-7.1291,-7.0672,-6.9821,-6.9009,-6.8158,-6.7268,-6.6417,-6.6185,-6.6185,-6.6185,-6.6185,-6.5682,-6.4019,-6.371,-6.312,-6.1408,-6.1099,-6.1099,-6.1099,-6.1099,-6.079,-5.9978,-5.9145,-5.7985,-5.636,-5.6081,-5.5959,-5.5905,-5.5895,-5.5845,-5.5714,-5.5703,-5.5703,-5.5703,-5.5703,-5.5703,-5.5703,-5.5818,-5.5857,-5.5857,-5.5972,-5.6049,-5.6049,-5.683,-5.7253,-6.6804,-6.839,-6.9435,-6.7887,-6.7384,-6.6108,-6.1582,-5.7851,0.0,0.0,-4.69,-4.5191,-4.7734,-4.9397,-5.2376,-5.8497,0.0,0.0,0.0,0.0,-7.9453,0.0,0.0,0.0,0.0,0.0,0.0,0.0,0.0,-8.1491,-8.1491,-8.1658,-8.1658,-8.1491,-8.1658,-8.1658,-8.1491,-8.1491,-8.1491,-8.1491,-8.1491,-8.1491,-8.1491,-8.1491,-8.1117,-8.0382,-7.9569,0.0,-7.7867,-7.6978,-7.6552,-7.6397,-7.6397,-7.6397,-7.6397,-7.6397,-7.6397,-7.6281,-7.5392,-7.4579,-7.3767,-7.3071,-7.2142,-7.1291,-7.1291,-7.1291,-7.1291,-7.1291,-7.0672,-6.9821,-6.9009,-6.8158,-6.7268,-6.6417,-6.6185,-6.6185,-6.6185,-6.6185,-6.5711,-6.3959,-6.3611,-6.305,-6.1337,-6.1018,-6.1018,-6.1018,-6.1018,-6.071,-5.986,-5.906,-5.8217,-5.7164,-5.6432,-5.5961,-5.5905,-5.5865,-5.5776,-5.5714,-5.5703,-5.5703,-5.5703,-5.5703,-5.5703,-5.5703,-5.6406,-5.6791,-5.6791,-5.7511,-5.7857,-5.7857,-5.8011,-5.8434,-6.7926,-6.9396,-7.0286,-6.8584,-6.7191,-6.4986,-6.0306,0.0,0.0,0.0,-4.3986,-4.2047,-4.465,0.0,0.0,0.0,0.0,0.0,0.0,0.0,0.0,0.0,0.0,0.0,0.0,0.0,0.0,0.0,0.0,-8.1491,-8.1491,-8.1491,-8.1491,-8.1491,-8.1491,-8.1491,-8.1491,-8.1491,-8.1491,-8.1491,-8.1491,-8.1491,-8.1491,-8.1039,-8.0614,-8.015,-7.8873,0.0,-7.7635,-7.6746,-7.6397,-7.6397,-7.6397,-7.6397,-7.6397,-7.6397,-7.6397,-7.6204,-7.4928,-7.4502,-7.4231,-7.2491,-7.164,-7.1291,-7.1291,-7.1291,-7.1291,-7.1291,-7.0363,-6.928,-6.8893,-6.781,-6.6727,-6.6301,-6.6185,-6.6185,-6.6185,-6.6165,-6.5786,-6.4528,-6.3879,-6.3152,-6.1846,-6.1257,-6.0987,-6.0987,-6.0987,-6.0832,-6.0408,-5.9688,-5.8674,-5.74,-5.684,-5.6377,-5.5904,-5.5807,-5.5766,-5.5714,-5.5703,-5.5703,-5.5703,-5.6137,-5.6368,-5.6368,-5.7242,-5.7665,-5.7665,-5.8088,-5.8319,-5.8319,-5.8742,-5.9127,-6.8777,-7.0131,-7.0866,-6.9009,-6.6766,-6.371,-5.8874,-5.3241,0.0,0.0,-4.1447,-3.9348,-4.1988,0.0,-4.5662,0.0,0.0,0.0,0.0,0.0,0.0,0.0,0.0,0.0,0.0,0.0,0.0,0.0,0.0,0.0,-8.1491,-8.1491,-8.1491,-8.1491,-8.1491,-8.1491,-8.1491,-8.1491,-8.1491,-8.1491,-8.1491,-8.1387,-8.1194,-8.0498,-7.9995,-7.9608,-7.8254,0.0,0.0,-7.6668,-7.6397,-7.6397,-7.6397,-7.6397,-7.6397,-7.6397,-7.6281,-7.5895,-7.4425,-7.4309,-7.4463,-7.2065,-7.1446,-7.1523,-7.1369,-7.1291,-7.1253,-7.1059,-6.9938,-6.8777,-6.8584,-6.7374,-6.6165,-6.6155,-6.6144,-6.6144,-6.6144,-6.6112,-6.5848,-6.5026,-6.4249,-6.3406,-6.2343,-6.1649,-6.1186,-6.0993,-6.0955,-6.0955,-6.0955,-6.0376,-5.9374,-5.7832,-5.7495,-5.7061,-5.6375,-5.6354,-5.6295,-5.6242,-5.6242,-5.6242,-5.6242,-5.6896,-5.7291,-5.7291,-5.8127,-5.855,-5.855,-5.8742,-5.8858,-5.8858,-5.9473,-5.9781,-6.9424,-7.0595,-7.0711,-6.8236,-6.6301,-6.3284,-5.667,0.0,0.0,-4.2001,-3.8325,-3.6665,-3.9283,-4.0486,-4.2739,0.0,0.0,-5.705,0.0,0.0,0.0,0.0,0.0,0.0,0.0,0.0,0.0,0.0,0.0,0.0,-8.1491,-8.1491,-8.1491,-8.1491,-8.1491,-8.1491,-8.1491,-8.1491,-8.1491,-8.1491,-8.1491,-8.1078,-8.0343,-8.0227,-7.9376,-7.7906,-7.7751,0.0,0.0,-7.6436,-7.6397,-7.6397,-7.6397,-7.6397,-7.6397,-7.6397,-7.5895,-7.5082,-7.4231,-7.396,-7.3728,-7.1872,-7.1833,-7.2336,-7.1523,-7.1291,-7.1137,-7.0324,-6.9473,-6.8622,-6.781,-6.6879,-6.6091,-6.6036,-6.6024,-6.6024,-6.6024,-6.6013,-6.577,-6.4876,-6.466,-6.407,-6.2394,-6.2036,-6.1728,-6.0958,-6.0843,-6.0843,-6.0843,-6.0766,-6.0342,-5.9369,-5.8644,-5.8175,-5.8088,-5.8083,-5.805,-5.805,-5.805,-5.805,-5.805,-5.8127,-5.8165,-5.8165,-5.8973,-5.9396,-5.9396,-6.0165,-6.055,-6.055,-6.0666,-6.0666,-6.7374,-6.8738,-6.9319,-6.723,-6.4677,-6.1263,-5.5947,0.0,-4.4584,-4.1328,-3.7906,-3.6151,-3.8246,-3.9346,-4.1412,-4.5982,-4.9945,-5.4181,-5.934,0.0,0.0,0.0,0.0,0.0,0.0,0.0,0.0,0.0,0.0,0.0,-8.1491,-8.1491,-8.1491,-8.1491,-8.1491,-8.1491,-8.1491,-8.1491,-8.1491,-8.1491,-8.0962,-8.0536,-8.0188,-7.9144,-7.8332,-7.7674,-7.7132,0.0,0.0,-7.6397,-7.6397,-7.6397,-7.6397,-7.6397,-7.632,-7.5817,-7.5392,-7.4916,-7.3574,-7.3767,-7.427,-7.2026,-7.2236,-7.3064,-7.1706,-7.1291,-7.1098,-7.0247,-6.9435,-6.8573,-6.769,-6.6747,-6.6036,-6.6013,-6.6001,-6.6001,-6.6001,-6.5978,-6.5916,-6.5546,-6.5048,-6.4434,-6.3705,-6.2793,-6.1985,-6.1639,-6.1127,-6.0781,-6.0781,-6.0781,-6.0666,-6.0319,-5.9534,-5.8814,-5.8352,-5.8292,-5.8319,-5.8319,-5.8319,-5.8319,-5.8319,-5.8781,-5.9011,-5.9011,-5.9858,-6.0281,-6.0281,-6.0627,-6.0781,-6.0781,-6.0781,-6.0781,-6.5479,-6.7307,-6.8274,-6.6031,-6.3274,-5.9852,0.0,-4.904,-4.3744,-4.113,-3.8064,-3.6317,-3.7788,-3.8772,-4.0605,-4.4315,-4.7433,-5.1057,-5.5959,0.0,0.0,0.0,0.0,0.0,0.0,0.0,0.0,0.0,0.0,0.0,0.0,-8.1491,-8.1491,-8.1491,-8.1491,-8.1491,-8.1491,-8.1491,-8.1387,-8.1117,-8.0498,-7.9956,-7.9415,-7.8254,-7.7558,-7.7287,0.0,0.0,0.0,-7.6397,-7.6397,-7.6359,-7.6127,-7.6011,-7.5895,-7.5044,-7.4579,-7.4231,-7.3303,-7.3574,-7.4065,-7.2236,-7.2434,-7.3145,-7.17,-7.1236,-7.1004,-6.9894,-6.8801,-6.7862,-6.7448,-6.6669,-6.6055,-6.6263,-6.6148,-6.5955,-6.5955,-6.5958,-6.5972,-6.5972,-6.5435,-6.4897,-6.4628,-6.3397,-6.2358,-6.2139,-6.1358,-6.0781,-6.0781,-6.0781,-6.0781,-6.0781,-6.0242,-5.9665,-5.9088,-5.905,-5.905,-5.905,-5.905,-5.905,-5.905,-5.9588,-5.9896,-5.9896,-6.0473,-6.0781,-6.0781,-6.0781,-6.0781,-6.0781,-6.0781,-6.0781,-6.427,-6.6882,-6.7965,-6.4571,-6.2404,-5.9553,0.0,-4.8174,-4.3674,-4.1123,-3.8505,-3.6969,-3.7853,-3.87,-4.0146,-4.2726,-4.4583,-4.7276,-5.1653,0.0,0.0,0.0,0.0,0.0,0.0,0.0,0.0,0.0,0.0,0.0,0.0,-8.1491,-8.1491,-8.1491,-8.1491,-8.1491,-8.1491,-8.1491,-8.1078,-8.0227,-8.0188,-7.9337,-7.7713,-7.7713,-7.721,0.0,0.0,0.0,0.0,-7.6397,-7.6397,-7.632,-7.5469,-7.5109,-7.5044,-7.4231,-7.338,-7.2761,-7.3574,-7.3342,-7.2595,-7.25,-7.2476,-7.2348,-7.1388,-7.1106,-7.0758,-6.9099,-6.7363,-6.6221,-6.701,-6.6613,-6.6177,-6.6923,-6.6474,-6.5897,-6.5897,-6.5897,-6.5897,-6.5897,-6.5897,-6.559,-6.4743,-6.3858,-6.3012,-6.2216,-6.1358,-6.0781,-6.0781,-6.0781,-6.0781,-6.0781,-6.0781,-6.0781,-6.0781,-6.0781,-6.0781,-6.0781,-6.0781,-6.0781,-6.0781,-6.0781,-6.0781,-6.0781,-6.0781,-6.0781,-6.0781,-6.0781,-6.0781,-6.0781,-6.0781,-6.0781,-5.9128,-6.1563,-6.3004,-6.0693,-5.8433,-5.5593,-5.1322,-4.6389,-4.2117,-4.0123,-3.8092,-3.6962,-3.7853,-3.87,-4.0131,-4.2678,-4.4058,-4.6535,0.0,0.0,0.0,0.0,0.0,0.0,0.0,0.0,0.0,0.0,0.0,0.0,0.0,-8.0962,-8.0885,-8.1491,-8.1491,-8.1491,-8.1491,-8.0923,-8.0459,-8.0188,-7.9028,-7.8191,-7.7613,-7.6995,0.0,0.0,0.0,0.0,0.0,-7.5619,-7.5388,-7.531,-7.4461,-7.4152,-7.4036,-7.3186,-7.3058,-7.3213,-7.2286,-7.2595,-7.3162,-7.1953,-7.1916,-7.211,-7.0658,-7.022,-6.991,-6.8212,-6.7289,-6.6752,-6.6459,-6.655,-6.6654,-6.6372,-6.609,-6.5897,-6.5897,-6.5897,-6.5897,-6.5897,-6.5897,-6.582,-6.5551,-6.4782,-6.3897,-6.3051,-6.2204,-6.1485,-6.0858,-6.0781,-6.0781,-6.0781,-6.0781,-6.0781,-6.0781,-6.0781,-6.0781,-6.0781,-6.0781,-6.0781,-6.0781,-6.0781,-6.0781,-6.0781,-6.0781,-6.0781,-6.0781,-6.0781,-6.0781,-6.0781,-6.0781,-6.0781,-5.4446,-5.7187,-5.8742,-5.7013,-5.4871,-5.2412,-4.9225,-4.4807,-4.1054,-3.9985,-3.8392,-3.7469,-3.8315,-3.9169,-4.0477,-4.2739,-4.3803,0.0,0.0,0.0,0.0,0.0,0.0,0.0,0.0,0.0,0.0,0.0,0.0,0.0,0.0,-8.0113,-7.992,-8.0461,-8.055,-8.0575,-8.0575,-8.0034,-7.9569,-7.926,-7.8153,-7.7459,-7.7074,-7.6508,0.0,0.0,0.0,0.0,0.0,-7.5131,-7.4707,-7.4359,-7.3549,-7.3202,-7.3125,-7.261,-7.2726,-7.3112,-7.234,-7.2572,-7.3022,-7.1917,-7.1441,-7.1004,-6.931,-6.8809,-6.8692,-6.7909,-6.746,-6.7115,-6.6961,-6.7013,-6.6974,-6.6474,-6.6128,-6.5897,-6.5897,-6.5897,-6.5897,-6.5897,-6.5897,-6.5897,-6.5897,-6.5166,-6.4436,-6.3858,-6.3089,-6.2243,-6.1396,-6.1281,-6.1166,-6.0819,-6.0781,-6.0781,-6.0781,-6.0781,-6.0781,-6.0781,-6.0781,-6.0781,-6.0781,-6.0781,-6.0781,-6.0781,-6.0781,-6.0781,-6.0781,-6.0781,-6.0781,-6.0781,-6.0781,-6.0781,0.0,-5.3454,-5.5152,-5.3531,-5.1874,-4.9949,-4.7319,-4.3511,0.0,-4.0439,-3.9161,-3.8354,-3.9169,-4.0015,-4.117,-4.2893,-4.3932,0.0,0.0,0.0,0.0,0.0,0.0,0.0,0.0,0.0,0.0,0.0,0.0,0.0,0.0,-7.9144,-7.872,-7.872,-7.876,-7.8861,-7.8977,-7.8938,-7.8474,-7.7662,-7.7562,-7.7061,-7.6288,-7.6225,0.0,0.0,0.0,0.0,0.0,-7.4771,-7.4269,-7.3498,-7.2649,-7.234,-7.2379,-7.2405,-7.2469,-7.2662,-7.3369,-7.3099,-7.2431,-7.2174,-7.0952,-6.9206,-6.759,-6.709,-6.7244,-6.8013,-6.7705,-6.7359,-6.8052,-6.7705,-6.7167,-6.7051,-6.6436,-6.5897,-6.5897,-6.5897,-6.5897,-6.5897,-6.5897,-6.5897,-6.5897,-6.5243,-6.4666,-6.4628,-6.3897,-6.3089,-6.2281,-6.2178,-6.187,-6.105,-6.0973,-6.0935,-6.0896,-6.0819,-6.0781,-6.0781,-6.0781,-6.0781,-6.0781,-6.0781,-6.0781,-6.0781,-6.0781,-6.0781,-6.0781,-6.0781,-6.0781,-6.0781,-6.0781,-6.0781,-4.4512,0.0,-5.1738,-5.067,-4.9611,-4.812,0.0,-4.264,-4.0323,-3.9708,-3.9284,-3.9053,-3.9246,-4.0508,-4.2047,-4.3739,-4.5316,0.0,0.0,0.0,0.0,0.0,0.0,0.0,0.0,0.0,0.0,0.0,0.0,0.0,0.0,-7.8257,-7.7794,-7.7794,-7.7203,-7.7486,-7.8837,-7.8194,-7.7756,-7.7524,-7.6855,-7.6391,-7.6145,-7.6131,0.0,0.0,0.0,0.0,-7.4648,-7.3339,-7.2723,-7.2454,-7.1607,-7.1645,-7.2261,-7.2261,-7.307,-7.4018,-7.2916,-7.2839,-7.2902,-7.0964,-6.9142,-6.7628,-6.7205,-6.709,-6.7013,-6.659,-6.7244,-6.7859,-6.6782,-6.7282,-6.7782,-6.6474,-6.6051,-6.5897,-6.5897,-6.5897,-6.5897,-6.5897,-6.5897,-6.5897,-6.5897,-6.5743,-6.5359,-6.4705,-6.4436,-6.3974,-6.3128,-6.3012,-6.2935,-6.2743,-6.2704,-6.2474,-6.187,-6.1166,-6.0781,-6.0781,-6.0781,-6.0781,-6.0781,-6.0781,-6.0781,-6.0781,-6.0781,-6.0781,-6.0781,-6.0781,-6.0781,-6.0781,-6.0781,-6.0781,-4.1931,-4.509,-4.7782,-4.7717,-4.7062,-4.5928,-4.4171,-4.1777,-3.9938,-3.9861,-3.9554,-3.9515,-4.0315,-4.1508,-4.3085,-4.5163,-4.7278,0.0,0.0,0.0,0.0,0.0,0.0,0.0,0.0,0.0,0.0,0.0,0.0,0.0,0.0,-7.7299,-7.6798,-7.6798,-7.6335,-7.6594,-7.7587,-7.7124,-7.6893,-7.6893,-7.6403,-7.6131,-7.609,-7.6062,-7.5827,0.0,0.0,0.0,-7.3476,-7.2552,-7.1937,-7.1552,-7.1091,-7.1437,-7.2245,-7.2629,-7.3591,-7.4591,-7.3668,-7.3168,-7.2476,-6.9937,-6.8475,-6.7552,-6.6782,-6.6551,-6.6551,-6.6474,-6.709,-6.759,-6.6705,-6.7128,-6.7475,-6.6205,-6.5897,-6.5897,-6.5897,-6.5897,-6.5897,-6.5897,-6.5897,-6.5897,-6.5897,-6.5897,-6.5743,-6.5282,-6.5205,-6.4897,-6.4012,-6.3897,-6.3743,-6.3346,-6.3308,-6.3128,-6.2704,-6.2204,-6.1627,-6.0858,-6.0781,-6.0781,-6.0781,-6.0781,-6.0781,-6.0781,-6.0781,-6.0781,-6.0781,-6.0781,-6.0781,-6.0781,-6.0781,-6.0781,-4.1077,-4.3008,-4.4547,-4.5556,-4.5355,-4.4624,-4.3701,-4.1623,0.0,0.0,0.0,-4.0354,-4.1893,-4.3085,0.0,0.0,0.0,0.0,0.0,0.0,0.0,0.0,0.0,0.0,0.0,0.0,0.0,0.0,0.0,0.0,0.0,-7.6399,-7.6015,-7.6015,-7.6015,-7.6034,-7.6159,-7.6159,-7.6159,-7.6159,-7.6104,-7.6076,-7.6076,-7.6044,-7.5515,0.0,0.0,0.0,-7.2168,-7.2052,-7.1552,-7.0898,-7.0898,-7.1514,-7.2476,-7.3245,-7.4091,-7.4899,-7.4745,-7.3514,-7.1629,-6.9475,-6.8513,-6.7936,-6.6513,-6.6013,-6.6051,-6.6705,-6.7013,-6.709,-6.709,-6.709,-6.6936,-6.6244,-6.5974,-6.5897,-6.5897,-6.5897,-6.5897,-6.5897,-6.5897,-6.5897,-6.5897,-6.5897,-6.5897,-6.5897,-6.5897,-6.5628,-6.4897,-6.4782,-6.4512,-6.3782,-6.3705,-6.3628,-6.3512,-6.3512,-6.2858,-6.1281,-6.105,-6.0935,-6.0819,-6.0781,-6.0781,-6.0781,-6.0781,-6.0781,-6.0781,-6.0781,-6.0781,-6.0781,-6.0781,-6.0858,-4.0923,-4.3008,-4.4701,-4.6317,-4.7124,-4.7124,-4.5556,-4.3816,-4.2547,0.0,0.0,0.0,0.0,-4.5778,0.0,0.0,0.0,0.0,0.0,0.0,0.0,0.0,0.0,0.0,0.0,0.0,0.0,0.0,0.0,0.0,0.0,-7.6053,-7.6015,-7.6015,-7.6015,-7.6029,-7.6005,-7.6005,-7.6005,-7.6005,-7.6005,-7.6029,-7.5991,-7.5976,-7.5515,0.0,0.0,-7.3129,-7.2129,-7.1398,-7.1014,-7.0898,-7.0898,-7.1898,-7.3322,-7.3437,-7.4476,-7.5707,-7.4976,-7.3129,-7.1052,-7.0629,-6.9052,-6.7244,-6.6974,-6.6436,-6.5936,-6.6051,-6.6551,-6.709,-6.709,-6.709,-6.7051,-6.6936,-6.6397,-6.5897,-6.5897,-6.5897,-6.5897,-6.5897,-6.5897,-6.5897,-6.5897,-6.5897,-6.5897,-6.5897,-6.5897,-6.5859,-6.5705,-6.5705,-6.5628,-6.5513,-6.5513,-6.5205,-6.4474,-6.4397,-6.3974,-6.2974,-6.2281,-6.1562,-6.0819,-6.0781,-6.0781,-6.0781,-6.0781,-6.0781,-6.0781,-6.0781,-6.0781,-6.0781,-6.0781,-6.1204,-4.0315,-4.2662,-4.4701,-4.6471,-4.8202,-4.9163,-4.7932,-4.6355,-4.5163,0.0,0.0,0.0,0.0,0.0,0.0,0.0,0.0,0.0,0.0,0.0,0.0,0.0,0.0,0.0,0.0,0.0,0.0,0.0,0.0,0.0,0.0,0.0,-7.6015,-7.6015,-7.5553,-7.5284,-7.5284,-7.4861,-7.5091,-7.6015,-7.6015,-7.6015,-7.6015,-7.6015,-7.5284,-7.4053,0.0,-7.2745,-7.1475,-7.1052,-7.0898,-7.0898,-7.0898,-7.1668,-7.286,-7.3322,-7.4245,-7.5168,-7.4361,-7.3591,-7.2783,-7.1898,-7.0475,-6.8975,-6.809,-6.7205,-6.6436,-6.6013,-6.6167,-6.6551,-6.6974,-6.709,-6.7205,-6.7705,-6.7167,-6.6551,-6.6551,-6.6205,-6.5897,-6.5897,-6.5897,-6.5897,-6.5897,-6.5897,-6.5897,-6.5897,-6.5897,-6.5897,-6.5897,-6.5897,-6.5897,-6.5897,-6.5897,-6.5743,-6.532,-6.5282,-6.4743,-6.3397,-6.2935,-6.2551,-6.2166,-6.2166,-6.2166,-6.2166,-6.2166,-6.2166,-6.2166,-6.2166,-6.2166,-6.2166,-6.2166,-6.2358,-3.9861,-4.2085,-4.4239,-4.6355,-4.8817,-5.0519,-4.9856,-4.8702,-4.7855,-4.8038,0.0,0.0,0.0,0.0,0.0,0.0,0.0,0.0,0.0,0.0,0.0,0.0,0.0,0.0,0.0,0.0,0.0,0.0,0.0,0.0,0.0,0.0,-7.5899,-7.5707,-7.5053,-7.463,-7.4437,-7.3822,-7.413,-7.5399,-7.5399,-7.5515,-7.5707,-7.5707,-7.5014,-7.3769,-7.3591,-7.2629,-7.1206,-7.0975,-7.0898,-7.0898,-7.0898,-7.1437,-7.2322,-7.3168,-7.3899,-7.4361,-7.3937,-7.4053,-7.4245,-7.3129,-7.2052,-7.0975,-6.9667,-6.8398,-6.7282,-6.6667,-6.6205,-6.609,-6.6898,-6.6974,-6.7013,-6.7898,-6.759,-6.709,-6.709,-6.6628,-6.6167,-6.6167,-6.6013,-6.5897,-6.5897,-6.5897,-6.5897,-6.5897,-6.5897,-6.5897,-6.5897,-6.5897,-6.5897,-6.5897,-6.5897,-6.5897,-6.5897,-6.5897,-6.532,-6.4012,-6.3551,-6.3308,-6.3308,-6.3308,-6.3308,-6.3308,-6.3308,-6.3308,-6.3308,-6.3308,-6.3308,-6.3308,-6.3308,-6.3423,-4.0015,-4.12,-4.2769,-4.6077,-4.8817,-5.0673,-5.0635,-5.0519,-5.0625,-5.1385,0.0,0.0,0.0,0.0,0.0,0.0,0.0,0.0,0.0,0.0,0.0,0.0,0.0,0.0,0.0,0.0,0.0,0.0,0.0,0.0,0.0,0.0,0.0,-7.4822,-7.4745,-7.4361,-7.3577,-7.3553,-7.3553,-7.3668,-7.3668,-7.4091,-7.4784,-7.4784,-7.4745,-7.4591,-7.3822,-7.2976,-7.2052,-7.1245,-7.0898,-7.0898,-7.0898,-7.1437,-7.2322,-7.3168,-7.3538,-7.3668,-7.4361,-7.4168,-7.3707,-7.4322,-7.3437,-7.2091,-7.1937,-7.0244,-6.8269,-6.8244,-6.709,-6.609,-6.6898,-6.6551,-6.6205,-6.7013,-6.7128,-6.709,-6.709,-6.7051,-6.7013,-6.7013,-6.6397,-6.5897,-6.5897,-6.5897,-6.5897,-6.5897,-6.5897,-6.5897,-6.5897,-6.5897,-6.5897,-6.5897,-6.5897,-6.5897,-6.5897,-6.5897,-6.5859,-6.5705,-6.4205,-6.3308,-6.3308,-6.3308,-6.3308,-6.3308,-6.3308,-6.3308,-6.3308,-6.3308,-6.3308,-6.3308,-6.3308,-6.3743,-4.0315,-4.1138,-4.2508,-4.5355,-4.8009,-5.0433,-5.2587,-5.3857,-5.5011,-5.6357,-5.6896,0.0,0.0,0.0,0.0,0.0,0.0,0.0,0.0,0.0,0.0,0.0,0.0,0.0,0.0,0.0,0.0,0.0,0.0,0.0,0.0,0.0,0.0,-7.3976,-7.3437,-7.3245,-7.3514,-7.2437,-7.2168,-7.2706,-7.3245,-7.3654,-7.3976,-7.3976,-7.3668,-7.3129,-7.2822,-7.2206,-7.136,-7.1052,-7.0898,-7.0898,-7.0898,-7.1091,-7.1437,-7.1745,-7.2245,-7.2745,-7.3053,-7.363,-7.4322,-7.4591,-7.4284,-7.3668,-7.3168,-7.1591,-6.986,-6.936,-6.7948,-6.6653,-6.7013,-6.6859,-6.6859,-6.7705,-6.7475,-6.7244,-6.7782,-6.7475,-6.7244,-6.7782,-6.7244,-6.6628,-6.6628,-6.6244,-6.5897,-6.5897,-6.5897,-6.5897,-6.5897,-6.5897,-6.5897,-6.5897,-6.5897,-6.5897,-6.5897,-6.5897,-6.5897,-6.5897,-6.5282,-6.4936,-6.4936,-6.4936,-6.4936,-6.4936,-6.4936,-6.4936,-6.4936,-6.4936,-6.4936,-6.4936,-6.4936,-6.5089,-4.1255,-4.1536,-4.247,-4.5316,-4.7932,-5.0779,-5.4434,-5.6588,-5.8346,-6.0319,-6.0935,-6.1281,-6.1897,0.0,0.0,0.0,0.0,0.0,0.0,0.0,0.0,0.0,0.0,0.0,0.0,0.0,0.0,0.0,0.0,0.0,0.0,0.0,0.0,0.0,-7.2514,-7.236,-7.2668,-7.1514,-7.1206,-7.1783,-7.2399,-7.2822,-7.3091,-7.3091,-7.2899,-7.2591,-7.2322,-7.186,-7.1283,-7.1014,-7.0898,-7.0898,-7.0898,-7.0898,-7.0898,-7.0898,-7.1283,-7.1822,-7.2091,-7.2937,-7.4014,-7.4553,-7.4707,-7.4668,-7.4361,-7.2899,-7.1206,-7.0629,-6.8998,-6.7407,-6.7341,-6.6984,-6.6794,-6.7435,-6.732,-6.7218,-6.7859,-6.7513,-6.7359,-6.8244,-6.7705,-6.709,-6.709,-6.6628,-6.6205,-6.5936,-6.5897,-6.5897,-6.5897,-6.5897,-6.5897,-6.5897,-6.5897,-6.5897,-6.5897,-6.5897,-6.5897,-6.5897,-6.5897,-6.5897,-6.5897,-6.5897,-6.5897,-6.5897,-6.5897,-6.5897,-6.5897,-6.5897,-6.5897,-6.5897,-6.5897,-6.5897,-4.2871,-4.2394,-4.2654,-4.6077,-4.8856,-5.1828,-5.6099,-5.8357,-6.0281,-6.282,-6.4051,-6.4628,-6.4628,0.0,0.0,0.0,0.0,0.0,0.0,0.0,0.0,0.0,0.0,0.0,0.0,0.0,0.0,0.0,0.0,0.0,0.0,0.0,0.0,0.0,-7.2168,-7.1783,-7.0937,-7.0898,-7.0898,-7.0898,-7.0898,-7.136,-7.2168,-7.2168,-7.2668,-7.3437,-7.2552,-7.2168,-7.2129,-7.1245,-7.0898,-7.0898,-7.0898,-7.0898,-7.0898,-7.0898,-7.0898,-7.1014,-7.1898,-7.2168,-7.2476,-7.4168,-7.4707,-7.4861,-7.5745,-7.4245,-7.2206,-7.2206,-7.0343,-6.8234,-6.7906,-6.6742,-6.5646,-6.5767,-6.6408,-6.7011,-6.7077,-6.709,-6.7359,-6.8244,-6.7705,-6.7128,-6.7128,-6.709,-6.6821,-6.6013,-6.5897,-6.5897,-6.5897,-6.5897,-6.5897,-6.5897,-6.5897,-6.5897,-6.5897,-6.5897,-6.5897,-6.5897,-6.5897,-6.5897,-6.5897,-6.5897,-6.5897,-6.5897,-6.5897,-6.5897,-6.5897,-6.5897,-6.5897,-6.5897,-6.5897,-6.5897,-4.3618,-4.3709,0.0,-4.8586,0.0,0.0,0.0,-6.1858,0.0,0.0,-6.8013,-6.7821,-6.659,0.0,0.0,0.0,0.0,0.0,0.0,0.0,0.0,0.0,0.0,0.0,0.0,0.0,0.0,0.0,0.0,0.0,0.0,0.0,0.0,0.0,-7.1283,-7.1475,-7.1822,-7.1206,-7.1206,-7.1822,-7.1206,-7.1052,-7.1283,-7.1283,-7.1437,-7.1668,-7.1398,-7.1283,-7.1283,-7.1014,-7.0898,-7.0898,-7.0898,-7.0898,-7.0898,-7.0898,-7.0898,-7.0937,-7.1206,-7.1668,-7.236,-7.3514,-7.4245,-7.4861,-7.5745,-7.5053,-7.386,-7.3283,-7.1608,-6.9773,-6.882,-6.7785,-6.6885,-6.6415,-6.6165,-6.6214,-6.6949,-6.709,-6.7552,-6.9013,-6.8629,-6.8205,-6.8821,-6.7898,-6.7013,-6.6782,-6.6244,-6.5897,-6.5897,-6.5897,-6.5897,-6.5897,-6.5897,-6.5897,-6.5897,-6.5897,-6.5897,-6.5897,-6.5897,-6.5897,-6.5897,-6.5897,-6.5897,-6.5897,-6.5897,-6.5897,-6.5897,-6.5897,-6.5897,-6.5897,-6.5897,-6.5897,-4.4346,-4.5475,0.0,-5.1202,-5.4241,-5.778,-6.3743,0.0,0.0,0.0,0.0,0.0,0.0,0.0,0.0,0.0,0.0,0.0,0.0,0.0,0.0,0.0,0.0,0.0,0.0,0.0,0.0,0.0,0.0,0.0,0.0,0.0,0.0,0.0,-7.0898,-7.1168,-7.1668,-7.1168,-7.1168,-7.1668,-7.1168,-7.0898,-7.0898,-7.0898,-7.0898,-7.0937,-7.1283,-7.1206,-7.0937,-7.1283,-7.1206,-7.0898,-7.0898,-7.0898,-7.0898,-7.0898,-7.0898,-7.0898,-7.0898,-7.1245,-7.186,-7.3091,-7.3822,-7.4437,-7.563,-7.5399,-7.4591,-7.413,-7.263,-7.0976,-6.9988,-6.8859,-6.7739,-6.6652,-6.62,-6.6045,-6.6433,-6.6512,-6.6934,-6.8358,-6.8204,-6.8127,-6.9038,-6.8321,-6.7513,-6.7128,-6.6372,-6.5846,-6.5781,-6.5846,-6.5859,-6.5859,-6.5885,-6.5897,-6.5897,-6.5897,-6.5897,-6.5897,-6.5897,-6.5897,-6.5897,-6.5897,-6.5897,-6.5897,-6.5897,-6.5897,-6.5897,-6.5897,-6.5897,-6.5897,-6.5897,-6.5897,-4.5064,-4.7549,0.0,-5.3923,-5.8127,0.0,-6.8436,-6.9744,-7.0014,0.0,0.0,0.0,0.0,0.0,0.0,0.0,0.0,0.0,0.0,0.0,0.0,0.0,0.0,0.0,0.0,0.0,0.0,0.0,0.0,0.0,0.0,0.0,0.0,-7.0898,-7.0898,-7.0898,-7.0898,-7.0898,-7.0898,0.0,-7.0898,-7.0898,-7.0898,-7.0898,-7.0898,-7.0937,-7.1745,-7.1629,-7.0975,-7.1745,-7.1591,-7.0898,-7.0898,-7.0898,-7.0898,-7.0898,-7.0898,-7.0885,-7.0885,-7.0923,-7.1255,-7.2909,-7.3524,-7.387,-7.5485,-7.5408,-7.4755,-7.4601,-7.3368,-7.1909,-7.1066,-6.9759,-6.8262,-6.6698,-6.6362,-6.6281,-6.5747,-6.559,-6.5848,-6.6866,-6.7047,-6.7305,-6.8346,-6.8462,-6.8129,-6.7321,-6.6512,-6.5931,-6.5824,-6.5918,-6.5997,-6.601,-6.609,-6.609,-6.6013,-6.6013,-6.5974,-6.5897,-6.5897,-6.5897,-6.5897,-6.5897,-6.5897,-6.5897,-6.5897,-6.5897,-6.5897,-6.5897,-6.5897,-6.5897,-6.5897,-6.5897,-4.6327,-4.8805,0.0,0.0,-6.1591,-6.6436,-6.909,-7.0206,0.0,0.0,0.0,0.0,0.0,0.0,0.0,0.0,0.0,0.0,0.0,0.0,0.0,0.0,0.0,0.0,0.0,0.0,0.0,0.0,0.0,0.0,0.0,0.0,0.0,-7.0898,-7.0898,-7.0898,-7.0898,-7.0898,-7.0898,0.0,-7.0898,-7.0898,-7.0898,-7.0898,-7.0898,-7.0898,-7.1091,-7.1052,-7.0898,-7.1091,-7.1052,-7.0898,-7.0898,-7.0898,-7.0898,-7.0898,-7.0857,-7.0815,-7.0815,-7.1195,-7.1865,-7.2916,-7.3707,-7.4474,-7.5433,-7.5641,-7.5219,-7.3914,-7.3089,-7.2192,-7.0384,-6.9582,-6.8779,-6.6883,-6.616,-6.5897,-6.5921,-6.5558,-6.5703,-6.7332,-6.7237,-6.7442,-6.914,-6.8859,-6.8333,-6.8087,-6.7673,-6.7401,-6.7446,-6.7416,-6.7431,-6.7602,-6.7779,-6.759,-6.6898,-6.6821,-6.6551,-6.5936,-6.5897,-6.5897,-6.5897,-6.5897,-6.5897,-6.5897,-6.5897,-6.5897,-6.5897,-6.5897,-6.5897,-6.5897,-6.5897,-6.5897,-4.596,0.0,0.0,-6.0748,0.0,-6.8167,-6.9898,0.0,0.0,0.0,0.0,0.0,0.0,0.0,0.0,0.0,0.0,0.0,0.0,0.0,0.0,0.0,0.0,0.0,0.0,0.0,0.0,0.0,0.0,0.0,0.0,-7.0898,-7.0898,-7.0898,-7.0898,-7.0898,-7.0898,-7.0898,-7.0898,-7.0898,-7.0898,-7.0898,-7.0898,-7.0898,-7.0898,-7.0937,-7.1321,-7.1283,-7.0937,-7.136,-7.1283,-7.0898,-7.0898,-7.0898,-7.0937,-7.136,-7.1472,-7.1387,-7.1229,-7.1673,-7.2341,-7.2643,-7.3278,-7.4155,-7.4956,-7.4974,-7.4478,-7.3601,-7.2619,-7.1598,-7.0297,-6.9578,-6.88,-6.7255,-6.6802,-6.6591,-6.5974,-6.5951,-6.6263,-6.6957,-6.6872,-6.7078,-6.8202,-6.8064,-6.7743,-6.7634,-6.6995,-6.6574,-6.6612,-6.6542,-6.6558,-6.6682,-6.6978,-6.6961,-6.6499,-6.65,-6.6359,-6.5936,-6.5897,-6.5897,-6.5897,-6.5897,-6.5897,-6.5897,-6.5897,-6.5897,-6.5897,-6.5897,-6.5897,-6.5897,-6.5897,-6.5897,-4.4878,0.0,-5.6919,-6.4898,-6.7667,0.0,0.0,0.0,0.0,0.0,0.0,0.0,0.0,0.0,0.0,0.0,0.0,0.0,0.0,0.0,0.0,0.0,0.0,0.0,0.0,0.0,0.0,0.0,0.0,0.0,-7.0898,-7.0898,-7.0898,-7.0898,-7.0898,-7.0898,-7.0898,-7.0898,-7.0898,-7.0898,-7.0898,-7.0898,-7.0898,-7.0898,-7.0898,-7.0937,-7.1668,-7.1552,-7.0975,-7.1668,-7.1552,-7.0898,-7.0898,-7.0898,-7.1014,-7.186,-7.215,-7.2033,-7.186,-7.2265,-7.281,-7.247,-7.2939,-7.3677,-7.4265,-7.3982,-7.3396,-7.3093,-7.1933,-7.0712,-7.0267,-6.9544,-6.8668,-6.7574,-6.7658,-6.7632,-6.6244,-6.6498,-6.69,-6.661,-6.6645,-6.6773,-6.6954,-6.7307,-6.7474,-6.717,-6.633,-6.5705,-6.5508,-6.5403,-6.542,-6.5553,-6.59,-6.6099,-6.5997,-6.6192,-6.6282,-6.6128,-6.6244,-6.632,-6.632,-6.632,-6.6244,-6.609,-6.5974,-6.5897,-6.5897,-6.5897,-6.5897,-6.5885,-6.5885,-6.5872,-4.3926,0.0,-5.9741,0.0,-6.7244,-6.8667,0.0,0.0,0.0,0.0,0.0,0.0,0.0,0.0,0.0,0.0,0.0,0.0,0.0,0.0,0.0,0.0,0.0,0.0,0.0,0.0,0.0,0.0,0.0,0.0,-7.0898,-7.0898,-7.0898,-7.0898,-7.0898,-7.0898,-7.0898,-7.0898,-7.0898,-7.0898,-7.0898,-7.0898,-7.0898,-7.0898,-7.0898,-7.0898,-7.1014,-7.1014,-7.0898,-7.1014,-7.1014,-7.0898,-7.0898,-7.0898,-7.1014,-7.186,-7.2083,-7.1981,-7.241,-7.3,-7.3516,-7.3195,-7.3619,-7.4148,-7.3565,-7.3338,-7.2923,-7.1488,-7.0776,-7.0283,-6.9416,-6.8967,-6.8511,-6.7526,-6.7885,-6.8156,-6.7286,-6.6784,-6.6705,-6.7443,-6.7596,-6.747,-6.7012,-6.8265,-6.9036,-6.8167,-6.8057,-6.7804,-6.7103,-6.6692,-6.6614,-6.6971,-6.7333,-6.7331,-6.6797,-6.7549,-6.7744,-6.6974,-6.7667,-6.809,-6.809,-6.809,-6.7705,-6.6936,-6.6244,-6.5897,-6.5897,-6.5897,-6.5872,-6.5807,-6.5807,-6.5728,-4.6366,-5.3379,-5.9766,0.0,-6.7128,0.0,0.0,0.0,0.0,0.0,0.0,0.0,0.0,0.0,0.0,0.0,0.0,0.0,0.0,0.0,0.0,0.0,0.0,0.0,0.0,0.0,0.0,0.0,0.0,-7.0014,-6.9552,-6.9513,-6.9513,-6.9513,-6.9513,-6.9513,-6.9513,-6.9513,-6.9717,-7.0099,-7.0099,-7.0354,-7.0772,-7.0772,-7.0815,-7.0898,-7.0898,-7.0898,-7.0898,-7.0898,-7.0898,-7.0898,-7.0898,-7.0898,-7.1052,-7.2437,-7.2798,-7.2678,-7.3018,-7.3571,-7.393,-7.2964,-7.2851,-7.31,-7.2763,-7.1977,-7.1116,-7.0345,-6.9752,-6.9248,-6.8842,-6.8674,-6.848,-6.806,-6.8246,-6.8407,-6.806,-6.7831,-6.7726,-6.7926,-6.7429,-6.7044,-6.7286,-6.7803,-6.8091,-6.7921,-6.7431,-6.6862,-6.6409,-6.572,-6.5339,-6.5634,-6.6032,-6.6405,-6.6629,-6.7204,-6.7585,-6.77,-6.8084,-6.8315,-6.8315,-6.8304,-6.8139,-6.7793,-6.7,-6.6359,-6.5897,-6.5897,-6.5859,-6.5793,-6.5632,-6.5537,-4.7201,-5.2895,-5.7621,-6.3386,0.0,0.0,0.0,0.0,0.0,0.0,0.0,0.0,0.0,0.0,0.0,0.0,0.0,0.0,0.0,0.0,0.0,0.0,0.0,0.0,0.0,0.0,0.0,0.0,0.0,-6.909,-6.8423,-6.8385,-6.8385,-6.8385,-6.8385,-6.85,-6.8744,-6.8744,-6.8896,-6.9212,-6.9347,-6.9696,-7.0233,-7.0362,-7.0508,-7.0593,-7.0787,-7.0843,-7.0843,-7.0843,-7.0843,-7.0843,-7.0843,-7.0843,-7.1035,-7.2573,-7.3108,-7.3139,-7.3365,-7.3838,-7.4094,-7.2659,-7.2209,-7.2135,-7.1663,-7.0698,-6.967,-6.9447,-6.8964,-6.8481,-6.8481,-6.8481,-6.8481,-6.8481,-6.8481,-6.8481,-6.8481,-6.8578,-6.8507,-6.805,-6.7276,-6.6855,-6.7397,-6.7365,-6.7331,-6.7538,-6.6917,-6.6275,-6.5888,-6.5116,-6.4716,-6.4885,-6.5237,-6.579,-6.6556,-6.7016,-6.7562,-6.8212,-6.8479,-6.861,-6.8694,-6.8761,-6.8757,-6.8555,-6.805,-6.7244,-6.6205,-6.6013,-6.5859,-6.5753,-6.5412,-6.5337,-4.3929,-4.8402,0.0,-5.7416,0.0,0.0,0.0,0.0,0.0,0.0,0.0,0.0,0.0,0.0,0.0,0.0,0.0,0.0,0.0,0.0,0.0,0.0,0.0,0.0,0.0,0.0,0.0,0.0,0.0,-6.8462,-6.8385,-6.8385,-6.8385,-6.8385,-6.8385,-6.8821,-6.9629,-6.9629,-6.9204,-6.8381,-6.8878,-6.9088,-6.8989,-6.9527,-6.9758,-6.9796,-7.0445,-7.0723,-7.0723,-7.0723,-7.0723,-7.0723,-7.0723,-7.0723,-7.0799,-7.1758,-7.239,-7.2864,-7.3227,-7.3684,-7.3902,-7.2646,-7.2209,-7.1886,-7.0326,-6.9744,-6.9521,-6.8778,-6.8518,-6.8481,-6.8481,-6.8481,-6.8481,-6.8481,-6.8481,-6.8481,-6.8481,-6.8506,-6.8318,-6.774,-6.7663,-6.756,-6.7009,-6.7714,-6.8054,-6.726,-6.7515,-6.7476,-6.6555,-6.6172,-6.6058,-6.6269,-6.6432,-6.6603,-6.684,-6.777,-6.8356,-6.8394,-6.9171,-6.9757,-6.9974,-7.0124,-6.9941,-6.9366,-6.9484,-6.8744,-6.7051,-6.6282,-6.5795,-6.5594,-6.5337,-6.5229,-4.0507,-4.432,0.0,0.0,0.0,0.0,0.0,0.0,0.0,0.0,0.0,0.0,0.0,0.0,0.0,0.0,0.0,0.0,0.0,0.0,0.0,0.0,0.0,0.0,0.0,0.0,0.0,0.0,0.0,0.0,-6.6859,-6.6743,-6.6717,-6.6717,-6.6663,-6.6751,-6.7058,-6.7058,-6.7103,-6.7156,-6.7229,-6.7732,-6.8583,-6.8679,-6.9055,-6.9584,-6.9816,-6.9981,-7.005,-7.005,-7.005,-7.005,-7.005,-7.005,-7.0164,-7.1058,-7.1444,-7.1692,-7.2649,-7.2725,-7.2398,-7.2249,-7.1478,-7.0475,-6.9855,-6.9335,-6.8853,-6.8556,-6.8481,-6.8593,-6.9113,-6.889,-6.8481,-6.8481,-6.8481,-6.8481,-6.8481,-6.8481,-6.848,-6.8348,-6.7995,-6.7878,-6.8312,-6.8329,-6.8296,-6.8416,-6.8098,-6.7679,-6.7195,-6.6505,-6.6161,-6.6247,-6.6431,-6.6812,-6.7484,-6.801,-6.8506,-6.9073,-6.9395,-6.9643,-6.9816,-7.0035,-7.0112,-6.996,-6.9702,-6.8781,-6.709,-6.6821,-6.6294,-6.5594,-6.5089,-6.4997,-3.7668,-4.0649,0.0,0.0,0.0,0.0,0.0,0.0,0.0,0.0,0.0,0.0,0.0,0.0,0.0,0.0,0.0,0.0,0.0,0.0,0.0,0.0,0.0,0.0,0.0,0.0,0.0,0.0,0.0,0.0,-6.5974,-6.5833,-6.5753,-6.5618,-6.5665,-6.5589,-6.5299,-6.5605,-6.5779,-6.5851,-6.5945,-6.6465,-6.7367,-6.771,-6.8189,-6.879,-6.9053,-6.934,-6.9644,-6.9644,-6.9644,-6.9644,-6.9644,-6.9644,-6.972,-7.0287,-7.0587,-7.0893,-7.1952,-7.2084,-7.1784,-7.1764,-7.1032,-7.0004,-6.9447,-6.8927,-6.8481,-6.8481,-6.8691,-6.9038,-6.9558,-6.9298,-6.889,-6.889,-6.8704,-6.8481,-6.8481,-6.8481,-6.853,-6.8602,-6.826,-6.8174,-6.8848,-6.8607,-6.8463,-6.8908,-6.8429,-6.8016,-6.7868,-6.729,-6.6932,-6.6965,-6.709,-6.7427,-6.804,-6.8232,-6.8543,-6.9128,-6.9166,-6.923,-6.9399,-6.9623,-6.9872,-7.0147,-6.9887,-6.9141,-6.787,-6.7333,-6.6717,-6.6016,-6.5106,-6.4789,0.0,0.0,0.0,0.0,0.0,0.0,0.0,0.0,0.0,0.0,0.0,0.0,0.0,0.0,0.0,0.0,0.0,0.0,0.0,0.0,0.0,0.0,0.0,0.0,0.0,0.0,0.0,0.0,0.0,-6.5936,-6.5897,-6.582,-6.5604,-6.5175,-6.5673,-6.5533,-6.4699,-6.5533,-6.5479,-6.4575,-6.5138,-6.5366,-6.5352,-6.6639,-6.728,-6.7354,-6.811,-6.8832,-6.9481,-6.9481,-6.9481,-6.9481,-6.9481,-6.9481,-6.9481,-6.9481,-6.9825,-7.0436,-7.1148,-7.1797,-7.2174,-7.1243,-7.0895,-7.0561,-6.9001,-6.8518,-6.8481,-6.8518,-6.9076,-6.9707,-6.9707,-6.9744,-6.9744,-6.9707,-6.9076,-6.8518,-6.8506,-6.8481,-6.8481,-6.8481,-6.8481,-6.8481,-6.8481,-6.8481,-6.8481,-6.8481,-6.8481,-6.8481,-6.8481,-6.8481,-6.8481,-6.8481,-6.8481,-6.8481,-6.8481,-6.8481,-6.8481,-6.8481,-6.8481,-6.8565,-6.8809,-6.8997,-6.9303,-6.9797,-7.012,-7.0002,-6.9428,-6.7908,-6.7063,-6.6859,-6.5389,-6.4646,-3.4274,0.0,0.0,0.0,0.0,0.0,0.0,0.0,0.0,0.0,0.0,0.0,0.0,0.0,0.0,0.0,0.0,0.0,0.0,0.0,0.0,0.0,0.0,0.0,0.0,0.0,0.0,0.0,-6.6751,-6.6354,-6.5701,-6.5435,-6.5134,-6.4848,-6.4876,-6.4803,-6.4558,-6.4803,-6.4709,-6.431,-6.4994,-6.5256,-6.5098,-6.6012,-6.676,-6.7317,-6.754,-6.8068,-6.8777,-6.8777,-6.8777,-6.8777,-6.8777,-6.8777,-6.8777,-6.8777,-6.888,-6.9219,-7.0549,-7.076,-7.0599,-7.154,-7.1032,-6.993,-6.9484,-6.8964,-6.8593,-6.9187,-6.9521,-6.9818,-7.0412,-7.1032,-7.118,-6.9992,-6.9521,-6.9187,-6.8654,-6.8481,-6.8481,-6.8481,-6.8481,-6.8481,-6.8481,-6.8481,-6.8481,-6.8481,-6.8481,-6.8481,-6.8481,-6.8481,-6.8481,-6.8481,-6.8481,-6.8481,-6.8481,-6.8481,-6.8481,-6.8481,-6.8481,-6.8578,-6.8744,-6.8923,-6.9187,-6.9519,-6.9965,-7.0133,-7.0042,-6.8709,-6.7664,-6.6859,-6.5449,-6.4613,-3.5404,-3.5479,0.0,0.0,0.0,0.0,0.0,0.0,0.0,0.0,0.0,0.0,0.0,0.0,0.0,0.0,0.0,0.0,0.0,0.0,0.0,0.0,0.0,0.0,0.0,0.0,0.0,-6.5963,-6.5963,-6.5756,-6.5213,-6.4896,-6.4651,-6.4463,-6.4229,-6.4128,-6.4128,-6.4128,-6.4067,-6.3958,-6.4716,-6.5016,-6.4956,-6.6077,-6.6685,-6.6834,-6.7503,-6.7874,-6.8023,-6.8357,-6.8481,-6.8481,-6.8481,-6.8481,-6.8481,-6.8481,-6.8481,-6.8704,-7.0338,-7.0598,-7.0412,-7.1738,-7.1515,-7.0623,-6.9893,-6.9595,-6.9521,-6.967,-7.0215,-7.092,-7.1738,-7.1812,-7.1403,-7.0412,-6.967,-6.9076,-6.8617,-6.8481,-6.8481,-6.8481,-6.8481,-6.8481,-6.8481,-6.8481,-6.8481,-6.8481,-6.8481,-6.8481,-6.8481,-6.8481,-6.8481,-6.8481,-6.8481,-6.8481,-6.8481,-6.8481,-6.8481,-6.8481,-6.8481,-6.853,-6.8602,-6.873,-6.8877,-6.9122,-6.9504,-6.9626,-6.9485,-6.8716,-6.7539,-6.6048,-6.5213,-6.4652,-3.8116,-3.7708,-3.7275,0.0,0.0,0.0,-3.9939,-4.2959,0.0,0.0,0.0,0.0,0.0,0.0,0.0,0.0,0.0,0.0,0.0,0.0,0.0,0.0,0.0,0.0,0.0,-6.5136,-6.4681,-6.4681,-6.4681,-6.4628,-6.4557,-6.431,-6.4128,-6.4079,-6.3758,-6.3602,-6.3602,-6.3602,-6.3602,-6.3602,-6.4508,-6.4879,-6.4842,-6.6537,-6.6871,-6.6202,-6.7614,-6.7874,-6.7354,-6.8073,-6.8431,-6.8481,-6.8481,-6.8481,-6.8481,-6.8481,-6.8481,-6.8704,-7.0338,-7.0895,-7.1044,-7.1998,-7.2283,-7.1949,-7.0437,-7.0412,-7.0747,-7.0152,-7.1106,-7.2506,-7.3212,-7.2221,-7.1007,-7.0932,-6.9744,-6.8593,-6.8518,-6.8481,-6.8481,-6.8481,-6.8481,-6.8481,-6.8481,-6.8481,-6.8481,-6.8481,-6.8481,-6.8481,-6.8481,-6.8481,-6.8481,-6.8481,-6.8481,-6.8481,-6.8481,-6.8481,-6.8481,-6.8481,-6.8481,-6.8481,-6.8481,-6.8481,-6.8589,-6.8786,-6.8997,-6.8868,-6.8395,-6.8308,-6.7209,-6.5162,-6.5075,-6.484,-4.0828,-4.0271,-3.9728,-3.9877,0.0,0.0,0.0,-4.0049,0.0,0.0,0.0,0.0,0.0,0.0,0.0,0.0,0.0,0.0,0.0,0.0,0.0,0.0,0.0,0.0,0.0,-6.4652,-6.4539,-6.4539,-6.4539,-6.4464,-6.4271,-6.4206,-6.4021,-6.3867,-6.3691,-6.3602,-6.3602,-6.3602,-6.3602,-6.3616,-6.5125,-6.5496,-6.4842,-6.6537,-6.6871,-6.6128,-6.6425,-6.6871,-6.7317,-6.7465,-6.7924,-6.8481,-6.8481,-6.8481,-6.8481,-6.8481,-6.8481,-6.8704,-7.0338,-7.0895,-7.1155,-7.2666,-7.2729,-7.2135,-7.1812,-7.1329,-7.1007,-7.1552,-7.2432,-7.3212,-7.3361,-7.2692,-7.1775,-7.1044,-7.0152,-6.9261,-6.863,-6.8481,-6.8481,-6.8481,-6.8481,-6.8481,-6.8481,-6.8481,-6.8481,-6.8481,-6.8481,-6.8481,-6.8481,-6.8481,-6.8481,-6.8481,-6.8481,-6.8481,-6.8481,-6.8481,-6.8481,-6.8481,-6.8481,-6.8481,-6.8481,-6.8481,-6.8578,-6.8721,-6.9012,-6.888,-6.824,-6.8485,-6.7967,-6.6726,-6.6139,-6.5634,-4.4544,-4.3429,-4.2092,-4.1683,0.0,0.0,0.0,0.0,0.0,0.0,0.0,0.0,0.0,0.0,0.0,0.0,0.0,0.0,0.0,0.0,0.0,0.0,0.0,0.0,0.0,-6.3709,-6.3297,-6.2885,-6.2847,-6.2994,-6.328,-6.3254,-6.3392,-6.3691,-6.3624,-6.3602,-6.3602,-6.3602,-6.3602,-6.3616,-6.5311,-6.5868,-6.5496,-6.7168,-6.7243,-6.6128,-6.6537,-6.6462,-6.6128,-6.6982,-6.754,-6.7948,-6.8333,-6.8481,-6.8481,-6.8481,-6.8481,-6.8704,-7.0338,-7.0895,-7.1155,-7.2852,-7.3138,-7.2629,-7.1812,-7.1255,-7.1155,-7.2444,-7.3101,-7.3398,-7.3398,-7.2481,-7.1441,-7.1007,-6.9967,-6.8964,-6.8593,-6.8481,-6.8481,-6.8481,-6.8481,-6.8481,-6.8481,-6.8481,-6.8481,-6.8481,-6.8481,-6.8481,-6.8481,-6.8481,-6.8481,-6.8481,-6.8481,-6.8481,-6.8481,-6.8481,-6.8481,-6.8481,-6.8481,-6.8481,-6.8481,-6.8481,-6.853,-6.8602,-6.8791,-6.8668,-6.8331,-6.8596,-6.824,-6.722,-6.6787,-6.6389,0.0,0.0,0.0,0.0,0.0,-3.912,0.0,0.0,0.0,0.0,0.0,0.0,0.0,0.0,0.0,0.0,0.0,0.0,0.0,0.0,0.0,0.0,0.0,0.0,0.0,-6.2079,-6.141,-6.0778,-6.0741,-6.1076,-6.1893,-6.2227,-6.271,-6.3379,-6.3527,-6.3602,-6.3602,-6.3602,-6.3602,-6.3616,-6.5311,-6.6091,-6.6165,-6.78,-6.7725,-6.6388,-6.702,-6.6462,-6.5162,-6.6685,-6.7317,-6.7391,-6.8184,-6.8481,-6.8481,-6.8481,-6.8481,-6.8704,-7.0338,-7.0895,-7.1155,-7.2852,-7.3324,-7.2889,-7.1341,-7.1007,-7.1441,-7.2778,-7.3287,-7.3361,-7.3212,-7.2035,-7.0858,-7.071,-6.9558,-6.8481,-6.8481,-6.8593,-6.8691,-6.8518,-6.8654,-6.8667,-6.8518,-6.8481,-6.8481,-6.8481,-6.8481,-6.8481,-6.8481,-6.8481,-6.8481,-6.8481,-6.8481,-6.8481,-6.8481,-6.8481,-6.8481,-6.8481,-6.8481,-6.8481,-6.8481,-6.8481,-6.8481,-6.8481,-6.8481,-6.8481,-6.8481,-6.8707,-6.8388,-6.7638,-6.7332,-6.7176,0.0,0.0,0.0,0.0,-4.3132,0.0,0.0,0.0,0.0,0.0,0.0,0.0,0.0,0.0,0.0,0.0,0.0,0.0,0.0,0.0,0.0,0.0,0.0,0.0,0.0,0.0,-5.9069,-5.8995,-5.8995,-5.9367,-6.0125,-6.1596,-6.245,-6.2524,-6.323,-6.3602,-6.3602,-6.3602,-6.3602,-6.3616,-6.5311,-6.6091,-6.6165,-6.78,-6.7999,-6.7168,-6.728,-6.6797,-6.6017,-6.6945,-6.7317,-6.7391,-6.8184,-6.8481,-6.8481,-6.8481,-6.8481,-6.8704,-7.0338,-7.0895,-7.1155,-7.2852,-7.2915,-7.2172,-7.1218,-7.1441,-7.2098,-7.2283,-7.2878,-7.325,-7.2544,-7.1626,-7.071,-7.0004,-6.915,-6.8481,-6.8481,-6.9038,-6.9335,-6.863,-6.9076,-6.9335,-6.8593,-6.8481,-6.8481,-6.8481,-6.8481,-6.8481,-6.8481,-6.8481,-6.8481,-6.8481,-6.8481,-6.8481,-6.8481,-6.8481,-6.8481,-6.8481,-6.8481,-6.8481,-6.8481,-6.8481,-6.8481,-6.8481,-6.8481,-6.8481,-6.8481,-6.865,-6.878,-6.8876,-6.8241,-6.7902,0.0,0.0,0.0,0.0,0.0,0.0,-3.8562,0.0,-3.8599,0.0,0.0,0.0,0.0,0.0,0.0,0.0,0.0,0.0,0.0,0.0,0.0,0.0,0.0,0.0,0.0,0.0,0.0,0.0,0.0,-5.6617,-5.8401,-6.0555,-6.193,-6.2413,-6.3193,-6.3602,-6.3602,-6.3602,-6.3602,-6.3616,-6.5311,-6.6091,-6.6165,-6.78,-6.806,-6.7317,-6.7317,-6.6834,-6.6165,-6.6982,-6.7317,-6.7391,-6.8184,-6.8481,-6.8481,-6.8481,-6.8778,-6.9335,-7.0487,-7.1255,-7.1849,-7.3001,-7.2878,-7.2246,-7.2332,-7.2258,-7.2321,-7.2767,-7.3138,-7.3324,-7.299,-7.2258,-7.1552,-7.1218,-7.014,-6.9298,-6.9781,-6.9781,-6.9595,-6.9261,-6.9447,-6.9447,-6.863,-6.8481,-6.8481,-6.8481,-6.8481,-6.8481,-6.8481,-6.8481,-6.8481,-6.8481,-6.8481,-6.8481,-6.8481,-6.8481,-6.8481,-6.8481,-6.8481,-6.8481,-6.8481,-6.8481,-6.8481,-6.8481,-6.8481,-6.8481,-6.8481,-6.8554,-6.8613,-6.874,-6.8623,-6.8547,-5.6209,0.0,0.0,0.0,0.0,0.0,0.0,0.0,0.0,0.0,0.0,0.0,0.0,0.0,0.0,0.0,0.0,0.0,0.0,0.0,0.0,0.0,0.0,0.0,0.0,0.0,0.0,0.0,0.0,0.0,-5.6692,-5.9181,-6.1001,-6.2041,-6.2859,-6.3379,-6.3602,-6.3602,-6.3602,-6.3616,-6.5311,-6.6091,-6.6165,-6.78,-6.8208,-6.7651,-6.7651,-6.7168,-6.65,-6.7317,-6.7503,-6.7391,-6.8184,-6.8481,-6.8481,-6.8481,-6.9001,-6.9818,-7.0598,-7.1626,-7.2581,-7.2952,-7.2692,-7.2283,-7.2592,-7.2444,-7.2321,-7.2915,-7.325,-7.3361,-7.3138,-7.2655,-7.2135,-7.1886,-7.092,-7.019,-7.0747,-7.066,-7.0326,-7.0078,-7.0215,-7.0066,-6.9001,-6.863,-6.8481,-6.8481,-6.8481,-6.8481,-6.8481,-6.8481,-6.8481,-6.8481,-6.8481,-6.8481,-6.8481,-6.8481,-6.8481,-6.8481,-6.8481,-6.8481,-6.8481,-6.8481,-6.8481,-6.8481,-6.8481,-6.8481,-6.8481,-6.8481,-6.8481,-6.8506,-6.8697,-6.8814,0.0,0.0,0.0,-4.7701,0.0,0.0,0.0,0.0,-4.0583,0.0,0.0,0.0,0.0,0.0,0.0,-4.068,0.0,0.0,0.0,0.0,0.0,0.0,0.0,0.0,0.0,0.0,0.0,0.0,0.0,0.0,-5.4909,-5.7435,-5.9552,-6.1187,-6.2041,-6.2822,-6.3602,-6.3602,-6.3602,-6.3616,-6.5311,-6.6091,-6.6165,-6.78,-6.8481,-6.8444,-6.8444,-6.7999,-6.7317,-6.811,-6.8023,-6.7391,-6.8184,-6.8481,-6.8481,-6.8481,-6.9001,-6.9818,-7.0598,-7.1998,-7.325,-7.2506,-7.2246,-7.2035,-7.1255,-7.1552,-7.2209,-7.2246,-7.2804,-7.3212,-7.2432,-7.2246,-7.1961,-7.1118,-7.0895,-7.0858,-7.0895,-7.1552,-7.1849,-7.1032,-7.1552,-7.1589,-6.9955,-6.9001,-6.8481,-6.8481,-6.8481,-6.8481,-6.8481,-6.8481,-6.8481,-6.8481,-6.8481,-6.8481,-6.8481,-6.8481,-6.8481,-6.8481,-6.8481,-6.8481,-6.8481,-6.8481,-6.8481,-6.8481,-6.8481,-6.8481,-6.8481,-6.8481,-6.8481,-6.8481,-6.8506,-6.8506,0.0,0.0,-5.6023,-5.1639,0.0,0.0,0.0,0.0,0.0,0.0,0.0,0.0,0.0,0.0,-4.6141,-4.3986,-4.2946,0.0,0.0,0.0,0.0,0.0,0.0,0.0,0.0,0.0,0.0,0.0,0.0,0.0,0.0,-5.6766,-5.9218,-6.0295,-6.167,-6.2784,-6.3602,-6.3602,-6.3602,-6.3616,-6.5311,-6.6091,-6.6165,-6.78,-6.8481,-6.8481,-6.8481,-6.8333,-6.8134,-6.8394,-6.8333,-6.8134,-6.8394,-6.8481,-6.8481,-6.8481,-6.9335,-7.0672,-7.2072,-7.2927,-7.3361,-7.3101,-7.299,-7.2952,-7.2629,-7.2741,-7.299,-7.299,-7.3212,-7.3361,-7.3064,-7.299,-7.2889,-7.2629,-7.2146,-7.1923,-7.2444,-7.2369,-7.2135,-7.1812,-7.2023,-7.1812,-7.0698,-6.9818,-6.9113,-6.8556,-6.8481,-6.8481,-6.8481,-6.8481,-6.8481,-6.8481,-6.8481,-6.8481,-6.8481,-6.8481,-6.8704,-6.9261,-6.9261,-6.9521,-7.0078,-7.0078,-7.0078,-7.0078,-7.0078,-7.0078,-7.0078,-7.0078,-7.0078,-7.0078,-6.9521,-6.9001,-6.2354,-6.063,0.0,-5.5243,-5.2271,0.0,-4.6438,0.0,0.0,0.0,0.0,0.0,0.0,0.0,0.0,-4.6178,-4.4061,0.0,0.0,0.0,0.0,0.0,0.0,0.0,0.0,0.0,-4.4729,-4.5547,0.0,0.0,0.0,0.0,-5.7621,-5.8995,-6.0964,-6.2376,-6.3193,-6.3453,-6.3728,-6.4025,-6.5459,-6.6239,-6.6574,-6.7911,-6.8481,-6.8481,-6.8481,-6.8481,-6.8481,-6.8481,-6.8481,-6.8481,-6.8481,-6.8481,-6.8518,-6.8816,-6.9955,-7.1552,-7.2927,-7.3398,-7.3398,-7.3398,-7.3398,-7.3398,-7.3398,-7.3398,-7.3398,-7.3398,-7.3398,-7.3398,-7.3398,-7.3398,-7.3398,-7.3398,-7.3027,-7.2767,-7.3287,-7.299,-7.2655,-7.2655,-7.2655,-7.2332,-7.1515,-7.092,-7.0215,-6.91,-6.8667,-6.8481,-6.8481,-6.8481,-6.8481,-6.8481,-6.8481,-6.8481,-6.8481,-6.8481,-6.8704,-6.9224,-6.9261,-6.9484,-7.0004,-7.0041,-7.0041,-7.0041,-7.0041,-7.0041,-7.0041,-7.0041,-7.0041,-7.0004,-6.9484,-6.9001]},{"header":{"parameterUnit":"m.s-1","parameterCategory":1,"la1":30.6,"la2":29.2853,"lo1":-89.7004,"lo2":-87.6739,"dy":0.0162,"dx":0.0183,"nx":112,"ny":82,"refTime":"2026-05-02T00:00:00:Z","depth":0,"parameterNumber":3,"parameterNumberName":"V-component_of_WINDS"},"data":[0.0,0.0,0.0,0.0,0.0,0.0,0.0,0.0,0.0,0.0,0.0,0.0,0.0,0.0,0.0,0.0,0.0,0.0,0.0,0.0,0.0,0.0,0.0,0.0,0.0,0.0,0.0,0.0,0.0,0.0,0.0,0.0,0.0,0.0,0.0,0.0,0.0,0.0,0.0,0.0,0.0,0.0,0.0,0.0,0.0,0.0,0.0,0.0,0.0,0.0,0.0,0.0,0.0,0.0,0.0,0.0,0.0,0.0,0.0,0.0,0.0,0.0,0.0,0.0,0.0,0.0,0.0,0.0,0.0,0.0,0.0,0.0,0.0,0.0,0.0,0.0,0.0,0.0,0.0,0.0,0.0,0.0,0.0,0.0,0.0,0.0,0.0,0.0,0.0,0.0,0.0,0.8202,0.9133,0.9579,0.922,0.8769,0.8251,0.7737,0.0,0.0,0.0,0.0,0.0,0.0,0.0,0.0,0.0,0.0,0.0,0.0,0.0,0.0,0.0,0.0,0.0,0.0,0.0,0.0,0.0,0.0,0.0,0.0,0.0,0.0,0.0,0.0,0.0,0.0,0.0,0.0,0.0,0.0,0.0,0.0,0.0,0.0,0.0,0.0,0.0,0.0,0.0,0.0,0.0,0.0,0.0,0.0,0.0,0.0,0.0,0.0,0.0,0.0,0.0,0.0,0.0,0.0,0.0,0.0,0.0,0.0,0.0,0.0,0.0,0.0,0.0,0.0,0.0,0.0,0.0,0.0,0.0,0.0,0.0,0.0,0.0,0.0,0.0,0.0,0.0,0.0,0.0,0.0,0.0,0.0,0.0,0.0,0.0,0.0,0.0,0.0,0.0,0.0,0.0,0.0,0.0,0.0,0.0,0.0,0.0,0.0,0.0,0.0,0.7595,0.897,0.9628,0.9824,0.9465,0.9084,0.8519,0.7758,0.0,0.0,0.0,0.0,0.0,0.0,0.0,0.0,0.0,0.0,0.0,0.0,0.0,0.0,0.0,0.0,0.0,0.0,0.0,0.0,0.0,0.0,0.0,0.0,0.0,0.0,0.0,0.0,0.0,0.0,0.0,0.0,0.0,0.0,0.0,0.0,0.0,0.0,0.0,0.0,0.0,0.0,0.0,0.0,0.0,0.0,0.0,0.0,0.0,0.0,0.0,0.0,0.0,0.0,0.0,0.0,0.0,0.0,0.0,0.0,0.0,0.0,0.0,0.0,0.0,0.0,0.0,0.0,0.0,0.0,0.0,0.0,0.0,0.0,0.0,0.0,0.0,0.0,0.0,0.0,0.0,0.0,0.0,0.0,0.0,0.0,0.0,0.0,0.0,0.0,0.0,0.0,0.0,0.0,0.0,0.0,0.0,0.0,0.0,0.0,0.0,0.0,0.0,0.7502,0.8454,0.9313,0.9775,0.9878,0.9519,0.9095,0.8497,0.7655,0.6737,0.0,0.0,0.0,0.0,0.0,0.0,0.0,0.0,0.0,0.0,0.0,0.0,0.0,0.0,0.0,0.0,0.0,0.0,0.0,0.0,0.0,0.0,0.0,0.0,0.0,0.0,0.0,0.0,0.0,0.0,0.0,0.0,0.0,0.0,0.0,0.0,0.0,0.0,0.0,0.0,0.0,0.0,0.0,0.0,0.0,0.0,0.0,0.0,0.0,0.0,0.0,0.0,0.0,0.0,0.0,0.0,0.0,0.0,0.0,0.0,0.0,0.0,0.0,0.0,0.0,0.0,0.0,0.0,0.0,0.0,0.0,0.0,0.0,0.0,0.0,0.0,0.0,0.0,0.0,0.0,0.0,0.0,0.0,0.0,0.0,0.0,0.0,0.0,0.0,0.0,0.0,0.0,0.0,0.0,0.0,0.0,0.0,0.0,0.0,0.0,0.0,0.0,0.8443,0.916,0.9492,0.9851,0.9894,0.9476,0.9003,0.8356,0.7486,0.6648,0.0,0.0,0.0,0.0,0.0,0.0,0.0,0.0,0.0,0.0,0.0,0.0,0.0,0.0,0.0,0.0,0.0,0.0,0.0,0.0,0.0,0.0,0.0,0.0,0.0,0.0,0.0,0.0,0.0,0.0,0.0,0.0,0.0,0.0,0.0,0.0,0.0,0.0,0.0,0.0,0.0,0.0,0.0,0.0,0.0,0.0,0.0,0.0,0.0,0.0,0.0,0.0,0.0,0.0,0.0,0.0,0.0,0.0,0.0,0.0,0.0,0.0,0.0,0.0,0.0,0.0,0.0,0.0,0.0,0.0,0.0,0.0,0.0,0.0,0.0,0.0,0.0,0.0,0.0,0.0,0.0,0.0,0.0,0.0,0.0,0.0,0.0,0.0,0.0,0.0,0.0,0.0,0.0,0.0,0.0,0.0,0.0,0.0,0.0,0.0,0.0,0.0,0.8682,0.9378,0.9628,0.9976,0.9954,0.9367,0.8878,0.8193,0.7298,0.6468,0.0,0.0,0.0,0.0,0.0,0.0,0.0,0.0,0.0,0.0,0.0,0.0,0.0,0.0,0.0,0.0,0.0,0.0,0.0,0.0,0.0,0.0,0.0,0.0,0.0,0.0,0.0,0.0,0.0,0.0,0.0,0.0,0.0,0.0,0.0,0.0,0.0,0.0,0.0,0.0,0.0,0.0,0.0,0.0,0.0,0.0,0.0,0.0,0.0,0.0,0.0,0.0,0.0,0.0,0.0,0.0,0.0,0.0,0.0,0.0,0.0,0.0,0.0,0.0,0.0,0.0,0.0,0.0,0.0,0.0,0.0,0.0,0.0,0.0,0.0,0.0,0.0,0.0,0.0,0.0,0.0,0.0,0.0,0.0,0.0,0.0,0.0,0.0,0.0,0.0,0.0,0.0,0.0,0.0,0.0,0.0,0.0,0.0,0.0,0.0,0.0,0.0,0.8709,0.94,0.0,0.9921,0.9878,0.9351,0.8802,0.81,0.7265,0.0,0.0,0.0,0.0,0.0,0.0,0.0,0.0,0.0,0.0,0.0,0.0,0.0,0.0,0.0,0.0,0.0,0.0,0.0,0.0,0.0,0.0,0.0,0.0,0.0,0.0,0.0,0.0,0.0,0.0,0.0,0.0,0.0,0.0,0.0,0.0,0.0,0.0,0.0,0.0,0.0,0.0,0.0,0.0,0.0,0.0,0.0,0.0,0.0,0.0,0.0,0.0,0.0,0.0,0.0,0.0,0.0,0.0,0.0,0.0,0.0,0.0,0.0,0.0,0.0,0.0,0.0,0.0,0.0,0.0,0.0,0.0,0.0,0.0,0.0,0.0,0.0,0.0,0.0,0.0,0.0,0.0,0.0,0.0,0.0,0.0,0.0,0.0,0.0,0.0,0.0,0.0,0.0,0.0,0.0,0.0,0.0,0.0,0.0,0.0,0.0,0.0,0.7752,0.8774,0.9487,0.0,0.9916,0.9851,0.9296,0.8736,0.8024,0.7155,0.0,0.0,0.0,0.0,0.0,0.0,0.0,0.0,0.0,0.0,0.0,0.0,0.0,0.0,0.0,0.0,0.0,0.0,0.0,0.0,0.0,0.0,0.0,0.0,0.0,0.0,0.0,0.0,0.0,0.0,0.0,0.0,0.0,0.0,0.0,0.0,0.0,0.0,0.0,0.0,0.0,0.0,0.0,0.0,0.0,0.0,0.0,0.0,0.0,0.0,0.0,0.0,0.0,0.0,0.0,0.0,0.0,0.0,0.0,0.0,0.0,0.0,0.0,0.0,0.0,0.0,0.0,0.0,0.0,0.0,0.0,0.0,0.0,0.0,0.0,0.0,0.0,0.0,0.0,0.0,0.0,0.0,0.0,0.0,0.0,0.0,0.0,0.0,0.0,0.0,0.0,0.0,0.0,0.0,0.0,0.0,0.0,0.0,0.0,0.0,0.0,0.0,0.7763,0.8921,0.9666,0.9671,0.9987,0.9911,0.9198,0.8698,0.7959,0.0,0.0,0.0,0.0,0.0,0.0,0.0,0.0,0.0,0.0,0.0,0.0,0.0,0.0,0.0,0.0,0.0,0.0,0.0,0.0,0.0,0.0,0.0,0.0,0.0,0.0,0.0,0.0,0.0,0.0,0.0,0.0,0.0,0.0,0.0,0.0,0.0,0.0,0.0,0.0,0.0,0.0,0.0,0.0,0.0,0.0,0.0,0.0,0.0,0.0,0.0,0.0,0.0,0.0,0.0,0.0,0.0,0.0,0.0,0.0,0.0,0.0,0.0,0.0,0.0,0.0,0.0,0.0,0.0,0.0,0.0,0.0,0.0,0.0,0.0,0.0,0.0,0.0,0.0,0.0,0.0,0.0,0.0,0.0,0.0,0.0,0.0,0.0,0.0,0.0,0.0,0.0,0.0,0.0,0.0,0.0,0.0,0.0,0.0,0.0,0.0,0.0,0.0,0.7752,0.8774,0.9476,0.965,0.9911,0.9851,0.9302,0.8812,0.8111,0.7166,0.0,0.0,0.0,0.0,0.0,0.0,0.0,0.0,0.0,0.0,0.0,0.0,0.0,0.0,0.0,0.0,0.0,0.0,0.0,0.0,0.0,0.0,0.0,0.0,0.0,0.0,0.0,0.0,0.0,0.0,0.0,0.0,0.0,0.0,0.0,0.0,0.0,0.0,0.0,0.0,0.0,0.0,0.0,0.0,0.0,0.0,0.0,0.0,0.0,0.0,0.0,0.0,0.0,0.0,0.0,0.0,0.0,0.0,0.0,0.0,0.0,0.0,0.0,0.0,0.0,0.0,0.0,0.0,0.0,0.0,0.0,0.0,0.0,0.0,0.0,0.0,0.0,0.0,0.0,0.0,0.0,0.0,0.0,0.0,0.0,0.0,0.0,0.0,0.0,0.0,0.0,0.0,0.0,0.0,0.0,0.0,0.0,0.0,0.0,0.0,0.0,0.0,0.7752,0.8753,0.9454,0.965,0.9878,0.9824,0.9345,0.8954,0.828,0.7276,0.0,0.0,0.0,0.0,0.0,0.0,0.0,0.0,0.0,0.0,0.0,0.0,0.0,0.0,0.0,0.0,0.0,0.0,0.0,0.0,0.0,0.0,0.0,0.0,0.0,0.0,0.0,0.0,0.0,0.0,0.0,0.0,0.0,0.0,0.0,0.0,0.0,0.0,0.0,0.0,0.0,0.0,0.0,0.0,0.0,0.0,0.0,0.0,0.0,0.0,0.0,0.0,0.0,0.0,0.0,0.0,0.0,0.0,0.0,0.0,0.0,0.0,0.0,0.0,0.0,0.0,0.0,0.0,0.0,0.0,0.0,0.0,0.0,0.0,0.0,0.0,0.0,0.0,0.0,0.0,0.0,0.0,0.0,0.0,0.0,0.0,0.0,0.0,0.0,0.0,0.0,0.0,0.0,0.0,0.0,0.0,0.0,0.0,0.0,0.0,0.0,0.0,0.7763,0.8796,0.9503,0.9639,0.9851,0.9796,0.9329,0.9073,0.8432,0.7303,0.0,0.0,0.0,0.0,0.0,0.0,0.0,0.0,0.0,0.0,0.0,0.0,0.0,0.0,0.0,0.0,0.0,0.0,0.0,0.0,0.0,0.0,0.0,0.0,0.0,0.0,0.0,0.0,0.0,0.0,0.0,0.0,0.0,0.0,0.0,0.0,0.0,0.0,0.0,0.0,0.0,0.0,0.0,0.0,0.0,0.0,0.0,0.0,0.0,0.0,0.0,0.0,0.0,0.0,0.0,0.0,0.0,0.0,0.0,0.0,0.8318,0.0,0.0,0.0,0.0,0.0,0.0,0.0,0.0,0.0,0.0,0.0,0.0,0.0,0.0,0.0,0.0,0.0,0.0,0.0,0.0,0.0,0.0,0.0,0.0,0.0,0.0,0.0,0.0,0.0,0.0,0.0,0.0,0.0,0.0,0.0,0.0,0.0,0.0,0.0,0.0,0.0,0.7752,0.8655,0.9291,0.9503,0.9655,0.959,0.9204,0.8948,0.8378,0.7361,0.0,0.0,0.0,0.0,0.0,0.0,0.0,0.0,0.0,0.0,0.0,0.0,0.0,0.0,0.0,0.0,0.0,0.0,0.0,0.0,0.0,0.0,0.0,0.0,0.0,0.0,0.0,0.0,0.0,0.0,0.0,0.0,0.0,0.0,0.0,0.0,0.0,0.0,0.0,0.0,0.0,0.0,0.0,0.0,0.0,0.0,0.0,0.0,0.0,0.0,0.0,0.0,0.0,0.0,0.0,0.0,0.0,0.0,0.0,0.0,0.0,0.8769,0.0,0.0,0.0,0.0,0.0,0.0,0.0,0.0,0.0,0.0,0.0,0.0,0.0,0.0,0.0,0.0,0.0,0.0,0.0,0.0,0.0,0.0,0.0,0.0,0.0,0.0,0.0,0.0,0.0,0.0,0.0,0.0,0.0,0.0,0.0,0.0,0.0,0.0,0.0,0.0,0.7758,0.8611,0.9226,0.9459,0.9595,0.9525,0.9166,0.8965,0.8475,0.7568,0.6948,0.0,0.0,0.0,0.0,0.0,0.0,0.0,0.0,0.0,0.0,0.0,0.0,0.0,0.0,0.0,0.0,0.0,0.0,0.0,0.0,0.0,0.0,0.0,0.0,0.0,0.0,0.0,0.0,0.0,0.0,0.0,0.0,0.0,0.0,0.0,0.0,0.0,0.0,0.0,0.0,0.0,0.0,0.0,0.0,0.0,0.0,0.0,0.0,0.0,0.0,0.0,0.0,0.0,0.9862,1.0025,1.0036,1.0259,1.0427,1.0514,1.0036,0.9688,0.9443,0.0,0.0,0.0,0.0,0.0,0.0,0.0,0.0,0.0,0.0,0.0,0.0,0.0,0.0,0.0,0.0,0.0,0.0,0.0,0.0,0.0,0.0,0.0,0.0,0.0,0.797,0.7747,0.0,0.0,0.0,0.0,0.0,0.0,0.0,0.0,0.0,0.0,0.0,0.0,0.7796,0.8606,0.9193,0.9427,0.9546,0.947,0.9133,0.8922,0.8579,0.778,0.7203,0.6627,0.0,0.0,0.0,0.0,0.0,0.0,0.0,0.0,0.0,0.0,0.0,0.0,0.0,0.0,0.0,0.0,0.0,0.0,0.0,0.0,0.0,0.0,0.0,0.0,0.0,0.0,0.0,0.0,0.0,0.0,0.0,0.0,0.6654,0.6703,0.0,0.0,0.0,0.0,0.0,0.0,0.0,0.0,0.0,0.0,0.0,0.0,0.0,0.9503,0.9829,1.0106,1.0291,1.0394,1.0655,1.0775,1.078,1.0922,1.1047,1.1156,1.1183,0.0,1.0063,0.9818,0.0,0.0,0.0,0.0,0.0,0.0,0.0,0.0,0.0,0.0,0.0,0.0,0.0,0.0,0.0,0.0,0.0,0.0,0.0,0.0,0.0,0.0,0.8932,0.8704,0.872,0.8731,0.0,0.7899,0.7274,0.6931,0.6573,0.0,0.0,0.0,0.0,0.0,0.0,0.0,0.7982,0.8584,0.8998,0.9302,0.934,0.9253,0.8927,0.8861,0.8524,0.7888,0.7481,0.6942,0.6354,0.5888,0.0,0.0,0.0,0.0,0.0,0.0,0.0,0.0,0.0,0.0,0.0,0.0,0.0,0.0,0.0,0.0,0.0,0.0,0.0,0.0,0.0,0.0,0.0,0.0,0.0,0.0,0.0,0.0,0.0,0.6681,0.723,0.7301,0.7475,0.7513,0.0,0.0,0.0,0.0,0.0,0.0,0.0,0.0,0.0,0.9639,1.0003,1.0329,1.0628,1.0933,1.1112,1.1166,1.1406,1.1558,1.1629,1.1748,1.1835,1.1884,1.1938,1.1639,1.1074,1.0558,0.9915,0.9327,0.0,0.0,0.0,0.0,0.8513,0.8671,0.8736,0.8758,0.0,0.8818,0.0,0.0,0.0,0.0,0.0,0.0,0.0,0.0,0.0,0.0,0.0,0.903,0.9063,0.9101,0.891,0.853,0.8095,0.0,0.729,0.691,0.648,0.0,0.0,0.0,0.0,0.0,0.8032,0.8579,0.8922,0.9095,0.9166,0.9111,0.8872,0.8802,0.8573,0.8106,0.7796,0.7399,0.6866,0.6421,0.5981,0.0,0.0,0.0,0.0,0.0,0.0,0.0,0.0,0.0,0.0,0.0,0.0,0.0,0.0,0.0,0.0,0.0,0.0,0.0,0.0,0.0,0.0,0.0,0.0,0.0,0.0,0.0,0.0,0.7247,0.7758,0.791,0.8138,0.8204,0.0,0.0,0.0,0.0,0.0,0.0,0.9181,0.9584,0.9965,1.0422,1.0748,1.102,1.1237,1.1563,1.1726,1.1732,1.1938,1.2085,1.2172,1.2265,1.2308,1.2308,1.2308,1.214,1.1813,1.1183,1.0601,1.0068,0.9628,0.94,0.9313,0.9213,0.9367,0.9508,0.9595,0.9622,0.9628,0.9661,0.0,0.8867,0.8448,0.0,0.0,0.0,0.0,0.8628,0.889,0.9285,0.9492,0.9313,0.9334,0.934,0.9133,0.897,0.872,0.0,0.7883,0.7513,0.7062,0.0,0.0,0.0,0.0,0.7606,0.8084,0.859,0.8847,0.8879,0.8965,0.9003,0.8791,0.8742,0.8584,0.8194,0.7981,0.7638,0.722,0.6757,0.6345,0.6002,0.0,0.0,0.0,0.0,0.0,0.0,0.0,0.0,0.0,0.0,0.0,0.0,0.0,0.0,0.0,0.0,0.0,0.0,0.0,0.0,0.0,0.0,0.0,0.0,0.0,0.0,0.0,0.0,0.0,0.8513,0.8758,0.0,0.0,0.0,0.0,0.9052,0.9405,0.9764,1.0123,1.0367,1.0672,1.1047,1.1291,1.1482,1.1607,1.1851,1.1971,1.1971,1.2102,1.2167,1.2172,1.2178,1.2183,1.2183,1.2183,1.2102,1.1949,1.1574,1.1199,1.0829,1.0465,1.0318,1.0302,1.0182,1.0286,1.0568,1.0492,1.0492,1.0514,1.0628,1.0112,0.9362,0.8878,0.8557,0.0,0.0,0.8731,0.8911,0.9226,0.947,0.9655,0.9644,0.965,0.9617,0.9487,0.928,0.8976,0.0,0.8198,0.791,0.7546,0.0,0.7248,0.7448,0.76,0.7856,0.8339,0.8622,0.8823,0.8868,0.889,0.891,0.878,0.8666,0.8492,0.8188,0.7905,0.7595,0.7282,0.6861,0.6581,0.6568,0.5775,0.0,0.0,0.0,0.0,0.0,0.0,0.0,0.0,0.0,0.0,0.0,0.0,0.0,0.0,0.0,0.0,0.0,0.0,0.0,0.0,0.0,0.0,0.0,0.0,0.0,0.0,0.0,0.0,0.9356,0.9677,0.0,0.9704,0.9693,0.9791,1.003,1.0384,1.0715,1.0992,1.1237,1.146,1.1667,1.183,1.1938,1.1982,1.2063,1.2107,1.2107,1.215,1.221,1.2292,1.2292,1.2292,1.2292,1.2292,1.2172,1.1971,1.177,1.1476,1.1118,1.084,1.0683,1.0617,1.065,1.0715,1.0802,1.0878,1.0857,1.0759,1.0574,1.015,0.9666,0.9421,0.9128,0.8921,0.9111,0.9231,0.9334,0.9497,0.9661,0.9758,0.9688,0.9671,0.9633,0.9514,0.9302,0.9084,0.891,0.8617,0.8334,0.8133,0.7894,0.779,0.7954,0.8019,0.8133,0.8383,0.8622,0.8758,0.872,0.8785,0.8758,0.8562,0.8503,0.8339,0.8019,0.7883,0.7665,0.7293,0.7024,0.6794,0.6597,0.6167,0.5709,0.0,0.0,0.0,0.0,0.0,0.0,0.0,0.0,0.0,0.0,0.0,0.0,0.0,0.0,0.0,0.0,0.0,0.0,0.0,0.0,0.0,0.0,0.0,0.0,0.0,0.0,0.959,1.0025,1.0367,1.0552,1.0509,1.0509,1.0585,1.078,1.1101,1.1368,1.1569,1.177,1.1928,1.2047,1.2129,1.2172,1.2172,1.2172,1.2172,1.2172,1.2172,1.2216,1.2292,1.2292,1.2292,1.2292,1.2292,1.2178,1.1982,1.1868,1.165,1.1373,1.1177,1.1052,1.0987,1.1069,1.1101,1.1101,1.1101,1.1047,1.0922,1.0563,1.028,1.0052,0.99,0.9682,0.9519,0.9633,0.9666,0.9688,0.9764,0.9845,0.9878,0.9807,0.9726,0.965,0.9568,0.9362,0.9193,0.9193,0.8899,0.8611,0.8497,0.8307,0.8204,0.8285,0.8296,0.8339,0.8459,0.8611,0.8677,0.8595,0.8628,0.859,0.8432,0.8307,0.8127,0.7888,0.778,0.754,0.7288,0.7073,0.6844,0.6681,0.6227,0.5786,0.5246,0.0,0.0,0.0,0.0,0.0,0.0,0.0,0.0,0.0,0.0,0.0,0.0,0.0,0.0,0.0,0.0,0.0,0.0,0.0,0.0,0.0,0.0,0.0,0.8758,0.9318,0.9921,1.059,1.0797,1.0992,1.1112,1.1128,1.1177,1.1286,1.152,1.1705,1.1824,1.1933,1.2047,1.2167,1.2172,1.2172,1.2172,1.2172,1.2172,1.2172,1.2172,1.2172,1.2172,1.2172,1.2172,1.2167,1.2167,1.2096,1.1971,1.1857,1.1743,1.1618,1.1504,1.1543,1.1543,1.1543,1.1543,1.1505,1.1177,1.1096,1.1036,1.0677,1.0639,1.0514,1.028,1.0204,1.0177,1.0057,1.0019,1.0019,1.0019,1.0019,1.0019,1.0019,0.984,0.9671,0.9671,0.9476,0.9302,0.9302,0.9019,0.8742,0.8622,0.8503,0.8426,0.8421,0.8421,0.0,0.8573,0.859,0.8584,0.8584,0.8486,0.8416,0.8405,0.8079,0.7867,0.7856,0.7473,0.7203,0.7255,0.6986,0.6801,0.6796,0.6105,0.547,0.504,0.0,0.0,0.0,0.0,0.0,0.0,0.0,0.0,0.0,0.0,0.0,0.0,0.0,0.0,0.0,0.0,0.0,0.0,0.0,0.0,0.0,0.0,0.9111,0.9269,0.9954,1.0601,1.1025,1.1368,1.1585,1.1618,1.1699,1.1759,1.1786,1.1938,1.2036,1.2074,1.2102,1.2134,1.2172,1.2172,1.2172,1.2172,1.2172,1.2172,1.2172,1.2172,1.2172,1.2172,1.2172,1.2123,1.2036,1.2036,1.1922,1.1732,1.1699,1.1612,1.1504,1.1465,1.1543,1.1543,1.1543,1.14,1.1291,1.1052,1.0971,1.0938,1.0748,1.0628,1.0612,1.0378,1.0275,1.0177,1.0057,1.0019,1.0019,1.0019,1.0019,1.0019,1.0019,0.984,0.9671,0.9671,0.9476,0.9302,0.9302,0.9155,0.8997,0.8872,0.8753,0.8644,0.8557,0.8541,0.0,0.8584,0.859,0.8557,0.8475,0.8437,0.8345,0.8171,0.7981,0.7758,0.7497,0.7274,0.715,0.6953,0.6855,0.6757,0.6671,0.6219,0.5884,0.0,0.0,0.0,0.0,0.0,0.0,0.0,0.0,0.0,0.0,0.0,0.0,0.0,0.0,0.0,0.0,0.0,0.0,0.0,0.0,0.0,0.0,0.9144,0.9835,1.0057,1.0552,1.102,1.1384,1.1699,1.1911,1.196,1.2025,1.2063,1.2063,1.2129,1.2172,1.2172,1.2172,1.2172,1.2172,1.2172,1.2172,1.2172,1.2172,1.2172,1.2172,1.2172,1.2172,1.2172,1.2118,1.2058,0.0,1.1938,1.1813,1.1634,1.1634,1.1563,0.0,0.0,0.0,0.0,0.0,1.1335,1.1237,1.1003,1.0922,1.09,1.0775,1.0688,1.0601,1.0438,1.0335,1.0242,1.0068,1.0019,1.0019,1.0019,1.0019,1.0008,0.9954,0.9802,0.9655,0.9606,0.9438,0.9302,0.9302,0.9253,0.0,0.8911,0.8851,0.8725,0.8606,0.859,0.859,0.859,0.859,0.8546,0.8432,0.8372,0.8263,0.8136,0.785,0.0,0.0,0.0,0.7024,0.6883,0.6877,0.0,0.0,0.0,0.0,0.0,0.0,0.0,0.0,0.5543,0.5729,0.0,0.0,0.0,0.0,0.0,0.0,0.0,0.0,0.0,0.0,0.0,0.0,0.0,0.0,0.0,0.0,0.9748,1.0541,1.0873,1.1074,1.1308,1.1634,1.1873,1.2053,1.2161,1.2172,1.2172,1.2172,1.2172,1.2172,1.2172,0.0,0.0,0.0,0.0,1.2172,1.2172,1.2172,1.2172,1.2172,1.2172,1.2167,1.2145,1.2036,1.1976,1.1944,1.1841,1.1732,1.1618,1.1618,1.1552,1.1543,1.1543,1.1449,1.1422,1.1297,1.1243,1.1199,1.0976,0.0,0.0,1.077,1.0737,1.0693,1.046,1.0384,1.0335,1.009,1.0019,1.0019,1.0019,1.0019,0.9987,0.9867,0.9753,0.9633,0.9514,0.9389,0.9302,0.9302,0.9302,0.9231,0.8922,0.8861,0.8747,0.8606,0.859,0.859,0.859,0.859,0.8541,0.841,0.0,0.0,0.8108,0.7731,0.7535,0.7519,0.7192,0.7008,0.7008,0.7008,0.7008,0.7008,0.679,0.6632,0.6478,0.6468,0.6478,0.6484,0.6091,0.623,0.0,0.0,0.0,0.0,0.0,0.0,0.0,0.0,0.0,0.0,0.0,0.0,0.0,0.0,0.0,0.94,1.0155,1.0726,1.0895,1.1357,1.1743,1.19,1.2047,1.2145,1.2167,1.2172,1.2172,1.2172,1.2172,1.2172,1.2172,1.2172,0.0,1.2172,1.2172,1.2172,1.2172,1.2172,1.2172,1.2172,0.0,0.0,1.2025,1.1998,1.1884,1.1705,1.1683,1.1601,1.1487,1.1487,1.1476,1.1543,1.1543,1.1395,1.1291,1.1177,1.1074,1.0965,1.0824,1.077,1.077,1.0742,1.0737,1.0693,1.046,1.0384,0.0,1.009,1.0019,1.0019,1.0019,1.0019,0.9987,0.9867,0.9753,0.9633,0.9514,0.9389,0.9302,0.9302,0.9302,0.9231,0.8922,0.8863,0.884,0.8622,0.859,0.859,0.859,0.859,0.8508,0.8291,0.8183,0.8144,0.7926,0.7758,0.7622,0.7524,0.7269,0.7177,0.7177,0.7177,0.7177,0.7177,0.7128,0.7095,0.7073,0.7073,0.7067,0.7099,0.6747,0.6752,0.0,0.0,0.0,0.0,0.0,0.0,0.0,0.0,0.0,0.0,0.0,0.779,0.8394,0.0,0.9465,0.9949,1.053,1.0982,1.1161,1.1498,1.177,1.1889,1.2063,1.2172,1.2172,1.2172,1.2172,1.2172,1.2172,1.2172,1.2172,1.2172,1.2172,1.2172,1.2172,1.2172,1.2172,1.2172,1.2172,1.2172,1.2172,1.2107,1.1987,1.1928,1.1803,1.1634,1.1574,1.1509,1.1543,1.1543,1.1417,1.1362,1.1362,1.1324,1.1253,1.1074,1.0971,1.09,1.078,1.0737,1.0737,1.0737,1.0737,1.0693,1.046,1.0384,1.0335,1.009,1.0019,1.0019,1.0019,1.0019,0.9976,0.9796,0.9709,0.9617,0.9432,0.9345,0.9302,0.9302,0.9302,0.9231,0.8922,0.8884,0.8798,0.8622,0.859,0.859,0.859,0.859,0.8497,0.8258,0.8172,0.8133,0.7894,0.7769,0.7649,0.7529,0.7404,0.7339,0.7339,0.7339,0.7339,0.7339,0.7339,0.7339,0.7339,0.7339,0.7399,0.7513,0.7334,0.7365,0.0,0.0,0.0,0.0,0.0,0.0,0.0,0.0,0.7149,0.7627,0.8089,0.8491,0.8965,0.9478,1.003,1.0394,1.0819,1.1177,1.1389,1.1542,1.1672,1.177,1.1993,1.2134,1.2134,1.2156,1.2172,1.2172,1.2172,1.2172,1.2172,1.2172,1.2172,1.2172,1.2172,1.2172,1.2172,1.2172,1.2172,1.2172,1.2172,1.2096,1.1949,1.1862,1.1737,1.1596,1.1498,1.1543,1.1543,1.1427,1.1362,1.127,1.1221,1.1204,1.1183,1.0992,1.0905,1.0873,1.077,1.0737,1.0737,1.0737,1.0721,1.0661,1.0449,1.0367,1.0302,1.0085,1.0019,1.0019,1.0019,1.0003,0.9932,0.972,0.965,0.9574,0.9351,0.9302,0.9302,0.9302,0.9302,0.9231,0.8922,0.8884,0.8798,0.8622,0.859,0.859,0.859,0.8568,0.847,0.8258,0.8214,0.8111,0.7888,0.7785,0.7693,0.7595,0.7589,0.7578,0.7557,0.7573,0.7578,0.7615,0.7637,0.7707,0.7766,0.7766,0.7816,0.7916,0.7916,0.798,0.5939,0.6273,0.6681,0.6844,0.7051,0.7279,0.0,0.0,0.7888,0.8367,0.8769,0.9177,0.9575,0.997,1.028,1.0639,1.0927,1.1145,1.1275,1.1493,1.1639,1.1656,1.1868,1.2009,1.2009,1.2107,1.2172,1.2172,1.2172,1.2172,1.2172,1.2172,1.2172,1.2172,1.2172,1.2172,1.2172,1.2172,1.2172,1.2172,1.2172,1.2053,1.1835,1.1824,1.1694,1.1476,1.146,1.1543,1.1449,1.1335,1.1286,1.1253,1.1041,1.096,1.0954,1.0927,1.0851,1.0753,1.0742,1.0737,1.0737,1.0737,1.0666,1.0552,1.0422,1.0313,1.0193,1.0057,1.0019,1.0019,1.0019,0.9938,0.9824,0.9699,0.9584,0.947,0.9334,0.9302,0.9302,0.9302,0.9302,0.9231,0.8922,0.8884,0.8798,0.8622,0.859,0.859,0.859,0.8497,0.8383,0.8183,0.8138,0.8081,0.7883,0.7861,0.7845,0.7834,0.7834,0.7785,0.7687,0.778,0.7966,0.8099,0.8268,0.8447,0.8751,0.8751,0.8757,0.8769,0.8769,0.8459,0.6681,0.7023,0.7449,0.0,0.7785,0.803,0.8269,0.8416,0.8617,0.9024,0.94,0.9753,1.0095,1.0297,1.0525,0.0,1.1036,1.1166,1.1351,1.1406,1.1422,1.1422,1.1574,1.1732,1.1873,1.1938,1.1993,1.2058,1.2063,1.2096,1.2167,1.2172,1.2172,1.2172,1.2172,1.2172,1.2172,1.2102,1.2063,1.2063,1.1998,1.1879,1.171,1.171,1.1618,1.1543,1.1543,1.1543,1.1533,1.1324,1.1232,1.1156,1.0987,1.0878,1.0813,1.0813,1.078,1.0737,1.0737,1.0737,1.0737,1.0737,1.0655,1.0536,1.0422,1.0302,1.0177,1.0057,1.0019,1.0019,1.0019,0.9927,0.9807,0.9699,0.9574,0.9454,0.9329,0.9302,0.9302,0.9302,0.9253,0.915,0.8911,0.8894,0.8785,0.8611,0.859,0.859,0.859,0.8546,0.8443,0.8253,0.8062,0.7988,0.7877,0.7872,0.7872,0.7872,0.7872,0.785,0.7801,0.8033,0.8221,0.8291,0.8587,0.8732,0.8915,0.8915,0.8915,0.8915,0.8915,0.8732,0.7321,0.7635,0.0,0.8136,0.8361,0.8628,0.8867,0.8986,0.9144,0.947,0.9769,1.0036,1.0248,1.0405,1.0617,1.0949,1.1058,1.1172,1.1378,1.1357,1.1308,1.1275,1.1351,1.1476,1.165,1.1759,1.1851,1.1938,1.1971,1.2025,1.2118,1.215,1.2172,1.2172,1.2172,1.2156,1.2123,1.2031,1.1971,1.1938,1.1857,1.1754,1.1634,1.1601,1.1536,1.1543,1.1543,1.1543,1.1533,1.1324,1.1226,1.1134,1.0982,1.0862,1.078,1.0748,1.0737,1.0737,1.0737,1.0737,1.0732,1.0699,1.0606,1.0487,1.0373,1.0248,1.0134,1.0047,1.0019,1.0019,1.0019,0.9905,0.9769,0.9688,0.9552,0.941,0.9323,0.9302,0.9302,0.9302,0.9209,0.9025,0.89,0.8851,0.8725,0.8606,0.859,0.859,0.859,0.853,0.841,0.8209,0.7997,0.7872,0.7872,0.7872,0.7933,0.8055,0.8055,0.8055,0.8177,0.8427,0.8549,0.8671,0.8915,0.9037,0.9159,0.9159,0.9159,0.9159,0.9159,0.9159,0.7668,0.0,0.8158,0.8345,0.8671,0.8927,0.9231,0.9291,0.9362,0.9612,0.9758,0.9883,1.0008,1.0226,1.0471,1.071,1.0949,1.1145,1.1259,1.1378,1.1406,1.1286,1.1275,1.1281,0.0,1.1612,1.1819,1.1824,1.1928,1.1987,1.1993,1.2107,1.2172,1.2172,1.2172,1.2112,1.1993,1.1987,1.1933,1.1824,1.1819,1.1754,1.1634,1.1514,1.146,1.1543,1.1543,1.1543,1.1533,1.1324,1.127,1.1243,1.1009,1.0916,1.09,1.078,1.0737,1.0737,1.0737,1.0737,1.0715,1.0601,1.0481,1.0367,1.0248,1.0123,1.0025,1.0019,1.0019,1.0019,1.0019,0.9845,0.9671,0.9671,0.9487,0.9307,0.9307,0.9302,0.9302,0.9302,0.9209,0.9025,0.89,0.8851,0.8725,0.8606,0.859,0.859,0.859,0.8388,0.8198,0.8136,0.801,0.7872,0.7872,0.7872,0.8055,0.8372,0.8372,0.8549,0.8854,0.8854,0.9037,0.9275,0.9275,0.9457,0.9761,0.9761,0.9761,0.9761,0.9761,0.9761,0.7974,0.0,0.8461,0.8671,0.8981,0.9226,0.9389,0.9487,0.9568,0.9655,0.9699,0.9764,0.9878,1.003,1.0248,1.0563,1.0824,1.1047,1.1243,1.1308,1.1291,1.1172,1.1161,0.0,0.0,0.0,0.0,1.1683,1.1732,1.1824,1.1982,1.2025,1.2085,1.2167,1.2091,1.2031,1.1987,1.1835,1.1737,1.1699,1.1618,1.1558,1.1514,1.1471,1.1543,1.1543,1.1543,1.1411,1.133,1.1291,1.1177,1.1031,1.0949,1.0873,1.0791,1.0753,1.0737,1.0737,1.0737,1.0737,1.0715,1.0596,1.0481,1.0362,1.0242,1.0117,1.0019,1.0019,1.0019,1.0003,0.9921,0.9786,0.965,0.9568,0.9421,0.9302,0.9302,0.9302,0.9302,0.9302,0.9144,0.8927,0.889,0.8785,0.8633,0.8595,0.859,0.859,0.859,0.8383,0.822,0.8176,0.7992,0.7872,0.7872,0.8122,0.8305,0.8372,0.861,0.8793,0.8915,0.9098,0.9214,0.9275,0.9518,0.97,0.9822,0.9822,0.9822,0.9822,0.9822,0.9822,0.8311,0.8499,0.8773,0.8927,0.916,0.9334,0.9459,0.9514,0.953,0.9487,0.941,0.9383,0.9497,0.9622,0.9851,1.0291,1.0639,1.0938,1.1177,1.1286,1.1297,1.1177,1.1128,0.0,0.0,0.0,0.0,1.1493,1.1585,1.1705,1.1857,1.1944,1.2004,1.2047,1.2009,1.1949,1.1862,1.171,1.1612,1.1569,1.1493,1.1543,1.1543,1.1543,1.1543,1.1543,1.1543,1.1384,1.127,1.127,1.1161,1.0982,1.0938,1.0873,1.0797,1.0753,1.0737,1.0737,1.0737,1.071,1.0655,1.0536,1.0416,1.0297,1.0177,1.0085,1.0019,1.0019,1.0019,0.9992,0.9867,0.9753,0.9639,0.9514,0.9394,0.9302,0.9302,0.9302,0.9302,0.9302,0.9111,0.8884,0.8884,0.8747,0.859,0.859,0.859,0.8573,0.853,0.8356,0.822,0.8176,0.7992,0.7933,0.8055,0.8305,0.8488,0.8732,0.8915,0.9098,0.922,0.9396,0.9457,0.9457,0.97,0.9822,0.9822,0.9822,0.9822,0.9822,0.9822,0.9822,0.8592,0.8801,0.8927,0.9041,0.9231,0.9351,0.9449,0.9378,0.9258,0.9133,0.8905,0.8774,0.0,0.0,0.9302,0.9894,1.0405,1.0813,1.1058,1.1302,1.1411,0.0,0.0,0.0,0.0,0.0,0.0,1.1264,0.0,1.1629,1.1634,1.1851,1.1922,1.1824,1.1917,1.1862,1.1639,1.1629,1.1569,1.1543,1.1543,1.1543,1.1543,1.1543,1.1543,1.1543,1.1449,1.1378,1.1264,1.1264,1.1194,1.1074,1.0965,1.0916,1.0895,1.078,1.0737,1.0737,1.0737,1.0655,1.0618,1.0422,1.0302,1.0182,1.0057,1.0019,1.0019,1.0019,1.0019,0.9992,0.9862,0.9748,0.9639,0.9508,0.9389,0.9302,0.9302,0.9302,0.9302,0.9302,0.9111,0.8879,0.8863,0.8742,0.859,0.859,0.859,0.8546,0.8432,0.8312,0.8187,0.813,0.8004,0.8055,0.8372,0.8433,0.8671,0.9275,0.9335,0.9457,0.9761,0.9822,0.9822,0.9822,0.9822,0.9822,0.9822,0.9822,0.9822,0.9822,0.9822,0.9822,0.8595,0.8919,0.922,0.9253,0.9421,0.9514,0.928,0.9198,0.9095,0.8791,0.8465,0.8301,0.0,0.0,0.0,0.9525,1.0172,0.0,1.0933,1.1248,0.0,1.1286,0.0,1.1204,1.115,1.1194,0.0,0.0,1.1417,1.1542,1.1634,1.1694,1.1754,1.1819,1.1759,1.1699,1.1634,1.1547,1.1487,1.1543,1.1543,1.1543,1.1543,1.1543,1.1543,1.1449,1.1357,1.1253,1.1145,1.1145,1.102,1.0835,1.0895,1.0862,1.078,1.0748,1.0737,1.0737,1.0737,1.0655,1.0618,1.0422,1.0302,1.0182,1.0057,1.0019,1.0019,1.0019,1.0019,0.997,0.9764,0.9693,0.9617,0.94,0.9329,0.9302,0.9302,0.9302,0.9302,0.9302,0.9111,0.8825,0.8715,0.8628,0.859,0.859,0.859,0.8546,0.8432,0.8312,0.8187,0.813,0.8004,0.8055,0.8372,0.861,0.8915,0.9275,0.9518,0.97,0.9822,0.9822,0.9822,0.9822,0.9822,0.9822,0.9822,0.9822,0.9822,0.9822,0.9822,0.9883,0.8747,0.9139,0.9454,0.94,0.9449,0.9427,0.9122,0.882,0.8649,0.8339,0.7905,0.0,0.0,0.0,0.0,0.0,0.0,0.0,1.071,1.1112,1.1351,0.0,1.127,0.0,1.1259,1.1264,1.1297,0.0,1.1505,1.1482,1.1552,1.1607,1.1645,1.1661,1.1645,1.1612,1.1558,1.1487,1.1543,1.1543,1.1543,1.1543,1.1543,1.1543,1.1543,1.1449,0.0,1.1204,1.1101,1.1047,1.0911,1.0742,1.0813,1.0797,1.0737,1.0737,1.0737,1.0732,1.0677,1.0579,1.0471,1.0405,1.0264,1.0112,1.0041,1.0019,1.0019,1.0019,0.9981,0.99,0.9715,0.9628,0.9541,0.9351,0.9302,0.9302,0.9302,0.9302,0.9275,0.9171,0.8971,0.8803,0.8628,0.859,0.859,0.859,0.859,0.8546,0.8432,0.8312,0.8166,0.8054,0.7971,0.8116,0.8549,0.8793,0.9098,0.9518,0.97,0.9822,0.9822,0.9822,0.9822,0.9822,0.9822,0.9822,0.9822,0.9822,0.9822,0.9822,0.989,0.9903,0.9117,0.9432,0.9661,0.9519,0.9405,0.9247,0.8879,0.8508,0.8079,0.779,0.0,0.7029,0.7334,0.7426,0.7758,0.8636,0.0,0.996,1.0443,1.0938,1.1253,1.127,1.1286,1.134,1.1533,1.1357,1.134,1.1449,1.1543,1.1543,1.1543,1.1558,1.1563,1.146,1.1558,1.1563,1.1455,1.1543,1.1543,1.1543,1.1543,1.1543,1.1543,1.1543,1.1449,1.1511,0.0,0.0,1.1069,1.0949,1.0835,1.0737,1.0737,1.0737,1.0737,1.0737,1.0737,1.0721,1.0596,1.0481,1.0384,1.0367,1.021,1.0019,1.0019,1.0019,1.0019,1.0019,0.9932,0.9813,0.9699,0.9579,0.9454,0.9334,0.9302,0.9302,0.9302,0.9302,0.9231,0.8997,0.8954,0.8941,0.8767,0.8723,0.8723,0.8723,0.8723,0.8679,0.8563,0.8312,0.8149,0.7921,0.7944,0.8238,0.8854,0.8915,0.922,0.9761,0.9822,0.9822,0.9822,0.9822,0.9822,0.9822,0.9842,0.9849,0.9849,0.9869,0.9883,0.9883,0.9957,1.0031,0.9389,0.9612,0.9758,0.9541,0.947,0.9291,0.8655,0.8259,0.0,0.0,0.6748,0.6552,0.6709,0.6942,0.7361,0.8156,0.0,0.0,0.0,0.0,1.1166,0.0,0.0,0.0,0.0,0.0,0.0,0.0,0.0,1.1543,1.1543,1.1476,1.1476,1.1543,1.1476,1.1476,1.1543,1.1543,1.1543,1.1543,1.1543,1.1543,1.1543,1.1543,1.14,1.1297,1.1183,0.0,1.0944,1.0819,1.0759,1.0737,1.0737,1.0737,1.0737,1.0737,1.0737,1.0721,1.0596,1.0481,1.0367,1.0269,1.0139,1.0019,1.0019,1.0019,1.0019,1.0019,0.9932,0.9813,0.9699,0.9579,0.9454,0.9334,0.9302,0.9302,0.9302,0.9302,0.9308,0.9416,0.9365,0.9423,0.9509,0.9528,0.9528,0.9528,0.9528,0.948,0.9347,0.8629,0.8182,0.8097,0.8245,0.8488,0.8854,0.9098,0.9396,0.9761,0.9822,0.9822,0.9822,0.9822,0.9822,0.9822,0.9883,0.995,0.995,1.0141,1.0202,1.0202,1.0229,1.0304,0.9546,0.9753,0.9878,0.9639,0.9443,0.9133,0.8475,0.0,0.0,0.0,0.6427,0.619,0.6474,0.0,0.0,0.0,0.0,0.0,0.0,0.0,0.0,0.0,0.0,0.0,0.0,0.0,0.0,0.0,0.0,1.1543,1.1543,1.1543,1.1543,1.1543,1.1543,1.1543,1.1543,1.1543,1.1543,1.1543,1.1543,1.1543,1.1543,1.1389,1.133,1.1264,1.1085,0.0,1.0911,1.0786,1.0737,1.0737,1.0737,1.0737,1.0737,1.0737,1.0737,1.071,1.053,1.0471,1.0433,1.0188,1.0068,1.0019,1.0019,1.0019,1.0019,1.0019,0.9889,0.9737,0.9682,0.953,0.9378,0.9318,0.9302,0.9302,0.9302,0.9446,0.9612,0.9572,0.9689,0.9791,0.9795,0.9771,0.9728,0.9728,0.9728,0.9703,0.9635,0.9187,0.8834,0.8642,0.8685,0.8866,0.9105,0.9214,0.9457,0.9761,0.9822,0.9822,0.9822,0.9835,0.9876,0.9876,1.0093,1.0168,1.0168,1.0243,1.0283,1.0283,1.0358,1.0426,0.9666,0.9856,0.996,0.9699,0.9383,0.8954,0.8274,0.766,0.0,0.0,0.624,0.6012,0.6322,0.0,0.657,0.0,0.0,0.0,0.0,0.0,0.0,0.0,0.0,0.0,0.0,0.0,0.0,0.0,0.0,0.0,1.1543,1.1543,1.1543,1.1543,1.1543,1.1543,1.1543,1.1543,1.1543,1.1543,1.1543,1.1438,1.1411,1.1313,1.1243,1.1188,1.0998,0.0,0.0,1.0775,1.0737,1.0737,1.0737,1.0737,1.0737,1.0737,1.0721,1.0666,1.046,1.0443,1.0465,1.0128,1.0041,1.0052,1.003,1.0019,1.0014,0.9987,0.9829,0.9666,0.9639,0.9544,0.9446,0.9518,0.959,0.959,0.959,0.9807,0.9988,0.9936,1.0104,1.0184,1.0153,1.004,0.9965,0.9933,0.9927,0.9927,0.9927,0.9833,0.967,0.9418,0.9299,0.9293,0.9371,0.9494,0.961,0.9917,0.9917,0.9917,0.9917,1.0032,1.0038,1.0038,1.0249,1.0324,1.0324,1.0358,1.0378,1.0378,1.0487,1.0541,0.9834,0.9921,0.9938,0.959,0.9318,0.8894,0.7964,0.0,0.0,0.623,0.5984,0.5971,0.6178,0.6322,0.6578,0.0,0.0,0.8335,0.0,0.0,0.0,0.0,0.0,0.0,0.0,0.0,0.0,0.0,0.0,0.0,1.1543,1.1543,1.1543,1.1543,1.1543,1.1543,1.1543,1.1543,1.1543,1.1543,1.1543,1.1395,1.1291,1.1275,1.1156,1.0949,1.0927,0.0,0.0,1.0742,1.0737,1.0737,1.0737,1.0737,1.0737,1.0737,1.0666,1.0552,1.0433,1.0394,1.0362,1.0101,1.0095,1.0166,1.0052,1.0019,0.9998,0.9883,0.9764,0.9644,0.953,0.9697,0.9951,1.0311,1.0383,1.0383,1.0383,1.0455,1.0491,1.0638,1.0748,1.0722,1.0791,1.0799,1.0745,1.0611,1.0591,1.0591,1.0591,1.0578,1.0504,1.0402,1.0011,0.9735,0.9786,1.0046,1.0236,1.0236,1.0236,1.0236,1.0236,1.0249,1.0256,1.0256,1.0399,1.0473,1.0473,1.0609,1.0677,1.0677,1.0697,1.0697,0.9544,0.9661,0.9742,0.9449,0.909,0.8678,0.805,0.0,0.6912,0.6499,0.6131,0.5969,0.6229,0.6276,0.6466,0.7077,0.752,0.7977,0.8604,0.0,0.0,0.0,0.0,0.0,0.0,0.0,0.0,0.0,0.0,0.0,1.1543,1.1543,1.1543,1.1543,1.1543,1.1543,1.1543,1.1543,1.1543,1.1543,1.1378,1.1319,1.127,1.1123,1.1009,1.0916,1.084,0.0,0.0,1.0737,1.0737,1.0737,1.0737,1.0737,1.0726,1.0655,1.0596,1.0612,1.034,1.0367,1.0438,1.0123,1.0313,1.0594,1.0157,1.0019,0.9992,0.9873,0.9758,0.9714,0.9815,1.005,1.0311,1.0455,1.0527,1.0527,1.0527,1.0671,1.0809,1.0895,1.1031,1.1144,1.1233,1.1002,1.086,1.0799,1.0778,1.0717,1.0717,1.0717,1.0697,1.0636,1.0364,1.0172,1.0092,1.0213,1.0283,1.0283,1.0283,1.0283,1.0283,1.0365,1.0405,1.0405,1.0555,1.0629,1.0629,1.069,1.0717,1.0717,1.0717,1.0717,0.9275,0.9459,0.9595,0.928,0.8963,0.8612,0.0,0.7493,0.6977,0.6745,0.637,0.6159,0.6366,0.6401,0.6567,0.7118,0.7407,0.7744,0.8238,0.0,0.0,0.0,0.0,0.0,0.0,0.0,0.0,0.0,0.0,0.0,0.0,1.1543,1.1543,1.1543,1.1543,1.1543,1.1543,1.1543,1.1438,1.14,1.1313,1.1237,1.1161,1.0998,1.09,1.0862,0.0,0.0,0.0,1.0737,1.0737,1.0732,1.0699,1.0683,1.0666,1.0547,1.0481,1.0433,1.0302,1.034,1.0492,1.0313,1.0583,1.085,1.0476,1.0408,1.0374,1.0134,1.0052,0.9991,1.0381,1.0559,1.0684,1.0866,1.0847,1.0815,1.0815,1.1038,1.1188,1.1188,1.1317,1.1443,1.1396,1.1179,1.0995,1.0887,1.0819,1.0717,1.0717,1.0717,1.0717,1.0717,1.0622,1.0521,1.0419,1.0412,1.0412,1.0412,1.0412,1.0412,1.0412,1.0507,1.0561,1.0561,1.0663,1.0717,1.0717,1.0717,1.0717,1.0717,1.0717,1.0717,0.9176,0.94,0.9552,0.9003,0.8979,0.8768,0.0,0.7469,0.7162,0.6789,0.6573,0.6519,0.6675,0.6824,0.6943,0.715,0.7411,0.7646,0.772,0.0,0.0,0.0,0.0,0.0,0.0,0.0,0.0,0.0,0.0,0.0,0.0,1.1543,1.1543,1.1543,1.1543,1.1543,1.1543,1.1543,1.1395,1.1275,1.127,1.115,1.0922,1.0922,1.0851,0.0,0.0,0.0,0.0,1.0737,1.0737,1.0726,1.0606,1.0639,1.0547,1.0433,1.0313,1.0226,1.034,1.0307,1.0283,1.0673,1.0832,1.0893,1.1227,1.1262,1.1207,1.0944,1.0669,1.0637,1.1139,1.1147,1.1148,1.165,1.1721,1.1619,1.1619,1.1619,1.1619,1.1619,1.1619,1.1565,1.1416,1.126,1.1111,1.09,1.0819,1.0717,1.0717,1.0717,1.0717,1.0717,1.0717,1.0717,1.0717,1.0717,1.0717,1.0717,1.0717,1.0717,1.0717,1.0717,1.0717,1.0717,1.0717,1.0717,1.0717,1.0717,1.0717,1.0717,1.0717,1.0717,0.8705,0.8789,0.8925,0.88,0.8603,0.8308,0.8071,0.7503,0.7001,0.6849,0.6674,0.6559,0.6675,0.6824,0.7031,0.7429,0.7472,0.7579,0.0,0.0,0.0,0.0,0.0,0.0,0.0,0.0,0.0,0.0,0.0,0.0,0.0,1.1378,1.1368,1.1543,1.1543,1.1543,1.1543,1.1373,1.1308,1.127,1.1107,1.1163,1.134,1.1249,0.0,0.0,0.0,0.0,0.0,1.147,1.1435,1.1423,1.1294,1.1247,1.123,1.1101,1.1163,1.1187,1.1045,1.1092,1.1261,1.1155,1.139,1.1663,1.1586,1.1357,1.1073,1.0804,1.0883,1.1021,1.1121,1.1286,1.1603,1.1628,1.1653,1.1619,1.1619,1.1619,1.1619,1.1619,1.1619,1.1606,1.1558,1.1423,1.1267,1.1118,1.0968,1.0772,1.0731,1.0717,1.0717,1.0717,1.0717,1.0717,1.0717,1.0717,1.0717,1.0717,1.0717,1.0717,1.0717,1.0717,1.0717,1.0717,1.0717,1.0717,1.0717,1.0717,1.0717,1.0717,1.0717,1.0717,0.8319,0.8483,0.8648,0.8584,0.8384,0.8184,0.8072,0.7498,0.6962,0.696,0.677,0.6607,0.6756,0.6862,0.7092,0.7536,0.7576,0.0,0.0,0.0,0.0,0.0,0.0,0.0,0.0,0.0,0.0,0.0,0.0,0.0,0.0,1.1794,1.1766,1.1846,1.15,1.1324,1.1324,1.1248,1.1183,1.1139,1.1158,1.1317,1.1519,1.1605,0.0,0.0,0.0,0.0,0.0,1.1816,1.1749,1.1694,1.1567,1.1512,1.15,1.15,1.1519,1.158,1.1458,1.1494,1.1647,1.1632,1.1875,1.2121,1.1832,1.1515,1.1264,1.1212,1.1289,1.1457,1.1431,1.159,1.1809,1.1721,1.166,1.1619,1.1619,1.1619,1.1619,1.1619,1.1619,1.1619,1.1619,1.1491,1.1362,1.126,1.1124,1.0975,1.0826,1.0806,1.0785,1.0724,1.0717,1.0717,1.0717,1.0717,1.0717,1.0717,1.0717,1.0717,1.0717,1.0717,1.0717,1.0717,1.0717,1.0717,1.0717,1.0717,1.0717,1.0717,1.0717,1.0717,0.0,0.8347,0.8612,0.8359,0.8332,0.8247,0.7865,0.7428,0.0,0.7085,0.6905,0.6763,0.6862,0.7011,0.7213,0.7563,0.7746,0.0,0.0,0.0,0.0,0.0,0.0,0.0,0.0,0.0,0.0,0.0,0.0,0.0,0.0,1.2447,1.238,1.238,1.1595,1.1171,1.1187,1.1182,1.1116,1.1001,1.1419,1.1603,1.1486,1.1902,0.0,0.0,0.0,0.0,0.0,1.1843,1.1763,1.1641,1.1506,1.1458,1.1464,1.1549,1.164,1.1671,1.1703,1.166,1.1634,1.1997,1.2192,1.2203,1.1918,1.183,1.1857,1.1993,1.1938,1.1877,1.1999,1.1938,1.1843,1.1823,1.1714,1.1619,1.1619,1.1619,1.1619,1.1619,1.1619,1.1619,1.1619,1.1504,1.1402,1.1396,1.1267,1.1124,1.0982,1.0894,1.084,1.0765,1.0751,1.0744,1.0738,1.0724,1.0717,1.0717,1.0717,1.0717,1.0717,1.0717,1.0717,1.0717,1.0717,1.0717,1.0717,1.0717,1.0717,1.0717,1.0717,1.0717,0.7599,0.0,0.8194,0.8195,0.8135,0.8052,0.0,0.7423,0.7065,0.6957,0.6883,0.6842,0.6876,0.7143,0.7414,0.7712,0.7991,0.0,0.0,0.0,0.0,0.0,0.0,0.0,0.0,0.0,0.0,0.0,0.0,0.0,0.0,1.2307,1.2234,1.2234,1.1969,1.1926,1.2134,1.1948,1.1968,1.1932,1.1915,1.2099,1.2401,1.2484,0.0,0.0,0.0,0.0,1.2827,1.2602,1.2496,1.245,1.2304,1.2311,1.2417,1.2417,1.2556,1.2802,1.2529,1.2516,1.2609,1.2353,1.2114,1.1925,1.185,1.183,1.1816,1.1742,1.1857,1.1965,1.1775,1.1864,1.1952,1.1721,1.1647,1.1619,1.1619,1.1619,1.1619,1.1619,1.1619,1.1619,1.1619,1.1592,1.1525,1.1409,1.1362,1.128,1.1131,1.1111,1.1097,1.1063,1.1056,1.1016,1.084,1.0785,1.0717,1.0717,1.0717,1.0717,1.0717,1.0717,1.0717,1.0717,1.0717,1.0717,1.0717,1.0717,1.0717,1.0717,1.0717,1.0717,0.7394,0.7697,0.7942,0.8092,0.7981,0.7892,0.7739,0.7366,0.6997,0.6984,0.693,0.6923,0.7109,0.7319,0.7597,0.7963,0.8336,0.0,0.0,0.0,0.0,0.0,0.0,0.0,0.0,0.0,0.0,0.0,0.0,0.0,0.0,1.2849,1.2765,1.2765,1.2689,1.256,1.2289,1.2215,1.2179,1.2179,1.2272,1.2484,1.2733,1.2899,1.3115,0.0,0.0,0.0,1.2956,1.2793,1.2684,1.2617,1.2535,1.2596,1.2739,1.2807,1.2976,1.3152,1.299,1.2901,1.2779,1.2332,1.2074,1.1911,1.1775,1.1735,1.1735,1.1721,1.183,1.1918,1.1762,1.1837,1.1898,1.1674,1.1619,1.1619,1.1619,1.1619,1.1619,1.1619,1.1619,1.1619,1.1619,1.1619,1.1592,1.1511,1.1497,1.1443,1.1287,1.1267,1.124,1.1241,1.1234,1.1131,1.1056,1.0968,1.0867,1.0731,1.0717,1.0717,1.0717,1.0717,1.0717,1.0717,1.0717,1.0717,1.0717,1.0717,1.0717,1.0717,1.0717,1.0717,0.7289,0.7584,0.7855,0.7982,0.7997,0.7868,0.7706,0.7339,0.0,0.0,0.0,0.7115,0.7387,0.7597,0.0,0.0,0.0,0.0,0.0,0.0,0.0,0.0,0.0,0.0,0.0,0.0,0.0,0.0,0.0,0.0,0.0,1.3471,1.3403,1.3403,1.3403,1.3065,1.2318,1.2318,1.2318,1.2318,1.265,1.2816,1.2816,1.3238,1.3315,0.0,0.0,0.0,1.2725,1.2705,1.2617,1.2501,1.2501,1.261,1.2779,1.2915,1.3064,1.3207,1.318,1.2963,1.263,1.225,1.2081,1.1979,1.1728,1.164,1.1647,1.1762,1.1816,1.183,1.183,1.183,1.1803,1.1681,1.1633,1.1619,1.1619,1.1619,1.1619,1.1619,1.1619,1.1619,1.1619,1.1619,1.1619,1.1619,1.1619,1.1572,1.1443,1.1423,1.1375,1.1246,1.1233,1.1219,1.1199,1.1199,1.1084,1.0806,1.0765,1.0744,1.0724,1.0717,1.0717,1.0717,1.0717,1.0717,1.0717,1.0717,1.0717,1.0717,1.0717,1.0731,0.7262,0.7584,0.7882,0.8167,0.8309,0.8309,0.7982,0.7726,0.7502,0.0,0.0,0.0,0.0,0.8072,0.0,0.0,0.0,0.0,0.0,0.0,0.0,0.0,0.0,0.0,0.0,0.0,0.0,0.0,0.0,0.0,0.0,1.341,1.3403,1.3403,1.3403,1.3321,1.3231,1.3231,1.3231,1.3231,1.3231,1.3321,1.3314,1.3397,1.3315,0.0,0.0,1.2895,1.2718,1.2589,1.2522,1.2501,1.2501,1.2678,1.2929,1.2949,1.3132,1.3349,1.322,1.2895,1.2528,1.2454,1.2176,1.1857,1.1809,1.1714,1.1626,1.1647,1.1735,1.183,1.183,1.183,1.1823,1.1803,1.1708,1.1619,1.1619,1.1619,1.1619,1.1619,1.1619,1.1619,1.1619,1.1619,1.1619,1.1619,1.1619,1.1613,1.1586,1.1586,1.1572,1.1552,1.1552,1.1497,1.1369,1.1355,1.128,1.1104,1.0982,1.0786,1.0724,1.0717,1.0717,1.0717,1.0717,1.0717,1.0717,1.0717,1.0717,1.0717,1.0717,1.0792,0.7109,0.7522,0.7882,0.8194,0.8499,0.8669,0.8452,0.8174,0.7963,0.0,0.0,0.0,0.0,0.0,0.0,0.0,0.0,0.0,0.0,0.0,0.0,0.0,0.0,0.0,0.0,0.0,0.0,0.0,0.0,0.0,0.0,0.0,1.3403,1.3403,1.3322,1.3275,1.3275,1.32,1.3241,1.3403,1.3403,1.3403,1.3403,1.3403,1.3275,1.3057,0.0,1.2827,1.2603,1.2528,1.2501,1.2501,1.2501,1.2637,1.2847,1.2929,1.3091,1.3254,1.3112,1.2976,1.2834,1.2678,1.2427,1.2162,1.2006,1.185,1.1714,1.164,1.1667,1.1735,1.1809,1.183,1.185,1.1938,1.1843,1.1735,1.1735,1.1674,1.1619,1.1619,1.1619,1.1619,1.1619,1.1619,1.1619,1.1619,1.1619,1.1619,1.1619,1.1619,1.1619,1.1619,1.1619,1.1592,1.1518,1.1511,1.1416,1.1179,1.1097,1.1029,1.0962,1.0962,1.0962,1.0962,1.0962,1.0962,1.0962,1.0962,1.0962,1.0962,1.0962,1.0995,0.6984,0.7421,0.7801,0.8174,0.8608,0.8851,0.8791,0.8587,0.8438,0.8525,0.0,0.0,0.0,0.0,0.0,0.0,0.0,0.0,0.0,0.0,0.0,0.0,0.0,0.0,0.0,0.0,0.0,0.0,0.0,0.0,0.0,0.0,1.3383,1.3349,1.3234,1.3159,1.3125,1.3017,1.3071,1.3295,1.3295,1.3315,1.3349,1.3349,1.3227,1.309,1.2976,1.2807,1.2556,1.2515,1.2501,1.2501,1.2501,1.2596,1.2752,1.2901,1.303,1.3112,1.3037,1.3057,1.3091,1.2895,1.2705,1.2515,1.2284,1.206,1.1864,1.1755,1.1674,1.1653,1.1796,1.1809,1.1816,1.1972,1.1918,1.183,1.183,1.1748,1.1667,1.1667,1.164,1.1619,1.1619,1.1619,1.1619,1.1619,1.1619,1.1619,1.1619,1.1619,1.1619,1.1619,1.1619,1.1619,1.1619,1.1619,1.1518,1.1287,1.1206,1.1234,1.1234,1.1234,1.1234,1.1234,1.1234,1.1234,1.1234,1.1234,1.1234,1.1234,1.1234,1.1255,0.7011,0.7265,0.7589,0.8176,0.8608,0.8878,0.8871,0.8851,0.8927,0.9118,0.0,0.0,0.0,0.0,0.0,0.0,0.0,0.0,0.0,0.0,0.0,0.0,0.0,0.0,0.0,0.0,0.0,0.0,0.0,0.0,0.0,0.0,0.0,1.3193,1.318,1.3112,1.3056,1.2969,1.2969,1.299,1.299,1.3064,1.3186,1.3186,1.318,1.3152,1.3017,1.2868,1.2705,1.2562,1.2501,1.2501,1.2501,1.2596,1.2752,1.2901,1.305,1.299,1.3112,1.3078,1.2996,1.3105,1.2949,1.2712,1.2684,1.2386,1.2115,1.2033,1.183,1.1653,1.1796,1.1735,1.1674,1.1816,1.1837,1.183,1.183,1.1823,1.1816,1.1816,1.1708,1.1619,1.1619,1.1619,1.1619,1.1619,1.1619,1.1619,1.1619,1.1619,1.1619,1.1619,1.1619,1.1619,1.1619,1.1619,1.1613,1.1586,1.1321,1.1234,1.1234,1.1234,1.1234,1.1234,1.1234,1.1234,1.1234,1.1234,1.1234,1.1234,1.1234,1.124,0.7335,0.7393,0.7495,0.7997,0.8465,0.8893,0.9273,0.9496,0.97,0.9937,1.0032,0.0,0.0,0.0,0.0,0.0,0.0,0.0,0.0,0.0,0.0,0.0,0.0,0.0,0.0,0.0,0.0,0.0,0.0,0.0,0.0,0.0,0.0,1.3044,1.2949,1.2915,1.2963,1.2773,1.2725,1.282,1.2915,1.307,1.3044,1.3044,1.299,1.2895,1.284,1.2732,1.2583,1.2528,1.2501,1.2501,1.2501,1.2535,1.2596,1.2651,1.2739,1.2827,1.2881,1.2983,1.3105,1.3152,1.3098,1.299,1.2901,1.2623,1.2318,1.223,1.2134,1.2053,1.1816,1.1789,1.1789,1.1938,1.1898,1.1857,1.1952,1.1898,1.1857,1.1952,1.1857,1.1748,1.1748,1.1681,1.1619,1.1619,1.1619,1.1619,1.1619,1.1619,1.1619,1.1619,1.1619,1.1619,1.1619,1.1619,1.1619,1.1619,1.1511,1.145,1.145,1.145,1.145,1.145,1.145,1.145,1.145,1.145,1.145,1.145,1.145,1.1477,0.7833,0.7605,0.7489,0.7991,0.8452,0.8954,0.9598,0.9978,1.0354,1.0636,1.0744,1.0806,1.0914,0.0,0.0,0.0,0.0,0.0,0.0,0.0,0.0,0.0,0.0,0.0,0.0,0.0,0.0,0.0,0.0,0.0,0.0,0.0,0.0,0.0,1.2786,1.2759,1.2813,1.261,1.2556,1.2657,1.2766,1.284,1.2888,1.2888,1.2854,1.28,1.2752,1.2671,1.2569,1.2522,1.2501,1.2501,1.2501,1.2501,1.2501,1.2501,1.2569,1.2664,1.2712,1.2861,1.3051,1.3146,1.3173,1.3166,1.3112,1.2854,1.2556,1.2454,1.2477,1.2493,1.2633,1.2415,1.2154,1.2118,1.2098,1.2004,1.1965,1.1904,1.1877,1.2033,1.1938,1.183,1.183,1.1748,1.1674,1.1626,1.1619,1.1619,1.1619,1.1619,1.1619,1.1619,1.1619,1.1619,1.1619,1.1619,1.1619,1.1619,1.1619,1.1619,1.1619,1.1619,1.1619,1.1619,1.1619,1.1619,1.1619,1.1619,1.1619,1.1619,1.1619,1.1619,0.8528,0.7905,0.7569,0.8176,0.8615,0.908,0.9829,1.029,1.0629,1.1077,1.1294,1.1396,1.1396,0.0,0.0,0.0,0.0,0.0,0.0,0.0,0.0,0.0,0.0,0.0,0.0,0.0,0.0,0.0,0.0,0.0,0.0,0.0,0.0,0.0,1.2725,1.2657,1.2508,1.2501,1.2501,1.2501,1.2501,1.2583,1.2725,1.2725,1.2813,1.2949,1.2793,1.2725,1.2718,1.2562,1.2501,1.2501,1.2501,1.2501,1.2501,1.2501,1.2501,1.2522,1.2678,1.2725,1.2779,1.3078,1.3173,1.32,1.3356,1.3091,1.2732,1.2732,1.272,1.2955,1.4202,1.3655,1.276,1.2338,1.2308,1.2269,1.1903,1.183,1.1877,1.2033,1.1938,1.1837,1.1837,1.183,1.1782,1.164,1.1619,1.1619,1.1619,1.1619,1.1619,1.1619,1.1619,1.1619,1.1619,1.1619,1.1619,1.1619,1.1619,1.1619,1.1619,1.1619,1.1619,1.1619,1.1619,1.1619,1.1619,1.1619,1.1619,1.1619,1.1619,1.1619,0.8577,0.8101,0.0,0.8567,0.0,0.0,0.0,1.0907,0.0,0.0,1.1993,1.1959,1.1742,0.0,0.0,0.0,0.0,0.0,0.0,0.0,0.0,0.0,0.0,0.0,0.0,0.0,0.0,0.0,0.0,0.0,0.0,0.0,0.0,0.0,1.2569,1.2603,1.2664,1.2556,1.2556,1.2664,1.2556,1.2528,1.2569,1.2569,1.2596,1.2637,1.2589,1.2569,1.2569,1.2522,1.2501,1.2501,1.2501,1.2501,1.2501,1.2501,1.2501,1.2508,1.2556,1.2637,1.2759,1.2963,1.3091,1.32,1.3356,1.3234,1.3024,1.2922,1.3191,1.3641,1.4785,1.495,1.4675,1.389,1.3161,1.2496,1.1955,1.183,1.1911,1.2169,1.2101,1.2026,1.2135,1.1972,1.1816,1.1775,1.1681,1.1619,1.1619,1.1619,1.1619,1.1619,1.1619,1.1619,1.1619,1.1619,1.1619,1.1619,1.1619,1.1619,1.1619,1.1619,1.1619,1.1619,1.1619,1.1619,1.1619,1.1619,1.1619,1.1619,1.1619,1.1619,0.872,0.8428,0.0,0.9028,0.9564,1.0188,1.124,0.0,0.0,0.0,0.0,0.0,0.0,0.0,0.0,0.0,0.0,0.0,0.0,0.0,0.0,0.0,0.0,0.0,0.0,0.0,0.0,0.0,0.0,0.0,0.0,0.0,0.0,0.0,1.2501,1.2549,1.2637,1.2549,1.2549,1.2637,1.2549,1.2501,1.2501,1.2501,1.2501,1.2508,1.2569,1.2556,1.2508,1.2569,1.2556,1.2501,1.2501,1.2501,1.2501,1.2501,1.2501,1.2501,1.2501,1.2562,1.2671,1.2888,1.3017,1.3125,1.3336,1.3295,1.3152,1.3071,1.3461,1.4199,1.5837,1.6214,1.6028,1.5005,1.4147,1.3362,1.2388,1.2177,1.2255,1.2284,1.2257,1.2243,1.2251,1.2047,1.1904,1.1837,1.1852,1.1907,1.2043,1.1907,1.1835,1.1835,1.1691,1.1619,1.1619,1.1619,1.1619,1.1619,1.1619,1.1619,1.1619,1.1619,1.1619,1.1619,1.1619,1.1619,1.1619,1.1619,1.1619,1.1619,1.1619,1.1619,0.8913,0.8813,0.0,0.9569,1.0249,0.0,1.2067,1.2298,1.2345,0.0,0.0,0.0,0.0,0.0,0.0,0.0,0.0,0.0,0.0,0.0,0.0,0.0,0.0,0.0,0.0,0.0,0.0,0.0,0.0,0.0,0.0,0.0,0.0,1.2501,1.2501,1.2501,1.2501,1.2501,1.2501,0.0,1.2501,1.2501,1.2501,1.2501,1.2501,1.2508,1.2651,1.263,1.2515,1.2651,1.2623,1.2501,1.2501,1.2501,1.2501,1.2501,1.2501,1.2579,1.2579,1.2585,1.2725,1.302,1.313,1.3192,1.348,1.3466,1.3349,1.3322,1.3764,1.4712,1.7062,1.7474,1.702,1.6013,1.5397,1.4694,1.3451,1.3047,1.2949,1.2619,1.2502,1.2398,1.2128,1.2149,1.2013,1.187,1.2177,1.2517,1.2869,1.2589,1.2381,1.2309,1.1877,1.1653,1.164,1.164,1.1633,1.1619,1.1619,1.1619,1.1619,1.1619,1.1619,1.1619,1.1619,1.1619,1.1619,1.1619,1.1619,1.1619,1.1619,1.1619,0.9373,0.9321,0.0,0.0,1.1068,1.1714,1.2182,1.2379,0.0,0.0,0.0,0.0,0.0,0.0,0.0,0.0,0.0,0.0,0.0,0.0,0.0,0.0,0.0,0.0,0.0,0.0,0.0,0.0,0.0,0.0,0.0,0.0,0.0,1.2501,1.2501,1.2501,1.2501,1.2501,1.2501,0.0,1.2501,1.2501,1.2501,1.2501,1.2501,1.2501,1.2535,1.2528,1.2501,1.2535,1.2528,1.2501,1.2501,1.2501,1.2501,1.2501,1.2733,1.2965,1.2965,1.3275,1.3725,1.3844,1.4077,1.4224,1.4407,1.4361,1.4281,1.4033,1.4787,1.6005,1.7549,1.8319,1.8751,1.8863,1.796,1.6812,1.5902,1.506,1.4416,1.4082,1.3374,1.2728,1.2347,1.2142,1.2203,1.2466,1.3384,1.3943,1.3722,1.3869,1.3796,1.314,1.2409,1.1918,1.1796,1.1782,1.1735,1.1626,1.1619,1.1619,1.1619,1.1619,1.1619,1.1619,1.1619,1.1619,1.1619,1.1619,1.1619,1.1619,1.1619,1.1619,0.9979,0.0,0.0,1.1122,0.0,1.202,1.2325,0.0,0.0,0.0,0.0,0.0,0.0,0.0,0.0,0.0,0.0,0.0,0.0,0.0,0.0,0.0,0.0,0.0,0.0,0.0,0.0,0.0,0.0,0.0,0.0,1.2501,1.2501,1.2501,1.2501,1.2501,1.2501,1.2501,1.2501,1.2501,1.2501,1.2501,1.2501,1.2501,1.2501,1.2508,1.2576,1.2569,1.2508,1.2583,1.2569,1.2501,1.2501,1.2501,1.2508,1.2583,1.2844,1.3311,1.3926,1.4501,1.5129,1.5772,1.6161,1.6355,1.6532,1.645,1.6341,1.6148,1.6599,1.7355,1.8672,1.9378,1.9972,2.0642,1.9708,1.8311,1.7293,1.6596,1.5985,1.5074,1.4367,1.3571,1.2487,1.2155,1.2174,1.2764,1.3783,1.4455,1.4463,1.46,1.4527,1.3946,1.2868,1.2108,1.2025,1.1801,1.1701,1.1626,1.1619,1.1619,1.1619,1.1619,1.1619,1.1619,1.1619,1.1619,1.1619,1.1619,1.1619,1.1619,1.1619,1.1619,1.0516,0.0,1.1386,1.1662,1.1932,0.0,0.0,0.0,0.0,0.0,0.0,0.0,0.0,0.0,0.0,0.0,0.0,0.0,0.0,0.0,0.0,0.0,0.0,0.0,0.0,0.0,0.0,0.0,0.0,0.0,1.2501,1.2501,1.2501,1.2501,1.2501,1.2501,1.2501,1.2501,1.2501,1.2501,1.2501,1.2501,1.2501,1.2501,1.2501,1.2508,1.2637,1.2617,1.2515,1.2637,1.2617,1.2501,1.2501,1.2501,1.2522,1.2671,1.3047,1.3676,1.4947,1.5855,1.6642,1.7901,1.844,1.8711,1.8775,1.8617,1.8385,1.8309,1.8436,1.8782,1.9817,2.0352,2.083,2.1712,2.0927,1.9793,1.8683,1.8207,1.7613,1.6376,1.5386,1.4269,1.2787,1.2171,1.2125,1.2904,1.4099,1.4943,1.5274,1.5551,1.548,1.4908,1.3482,1.2475,1.2381,1.1969,1.1687,1.166,1.1681,1.1694,1.1694,1.1694,1.1681,1.1653,1.1633,1.1619,1.1619,1.1619,1.1619,1.1691,1.1691,1.1763,1.0799,0.0,1.1816,0.0,1.1857,1.2108,0.0,0.0,0.0,0.0,0.0,0.0,0.0,0.0,0.0,0.0,0.0,0.0,0.0,0.0,0.0,0.0,0.0,0.0,0.0,0.0,0.0,0.0,0.0,0.0,1.2501,1.2501,1.2501,1.2501,1.2501,1.2501,1.2501,1.2501,1.2501,1.2501,1.2501,1.2501,1.2501,1.2501,1.2501,1.2501,1.2522,1.2522,1.2501,1.2522,1.2522,1.2501,1.2501,1.2501,1.2522,1.2671,1.3197,1.4155,1.5556,1.6686,1.7734,1.9015,1.9554,1.9695,1.9454,1.9394,1.9284,1.8905,1.9296,1.9905,2.0233,2.0921,2.1601,2.1859,2.1894,2.1817,2.1458,2.0577,1.9759,1.918,1.6619,1.4187,1.3102,1.2575,1.2484,1.3096,1.5166,1.6592,1.6498,1.7636,1.7927,1.6543,1.5004,1.3699,1.2984,1.2367,1.1945,1.1809,1.1932,1.2006,1.2006,1.2006,1.1938,1.1803,1.1681,1.1619,1.1619,1.1619,1.1763,1.2122,1.2122,1.233,1.1346,1.1712,1.1888,0.0,1.1837,0.0,0.0,0.0,0.0,0.0,0.0,0.0,0.0,0.0,0.0,0.0,0.0,0.0,0.0,0.0,0.0,0.0,0.0,0.0,0.0,0.0,0.0,0.0,0.0,1.2345,1.2264,1.2257,1.2257,1.2257,1.2257,1.2257,1.2257,1.2257,1.245,1.2755,1.2755,1.2881,1.3197,1.3197,1.2965,1.2501,1.2501,1.2501,1.2501,1.2501,1.2501,1.2501,1.2501,1.2501,1.2528,1.2773,1.341,1.4456,1.6606,1.8003,1.9292,2.1181,2.1839,2.1827,2.1726,2.1491,2.1234,2.1088,2.1159,2.1337,2.1458,2.1735,2.2085,2.2114,2.2174,2.2309,2.2114,2.155,2.0706,1.9478,1.6968,1.4863,1.4302,1.3333,1.3081,1.4128,1.58,1.7136,1.7484,1.838,1.8581,1.751,1.5777,1.4494,1.4011,1.3139,1.2602,1.2624,1.2695,1.2738,1.2738,1.2582,1.2398,1.2335,1.1889,1.1701,1.1619,1.1619,1.1835,1.2194,1.2832,1.3111,1.155,1.1727,1.1854,1.1676,0.0,0.0,0.0,0.0,0.0,0.0,0.0,0.0,0.0,0.0,0.0,0.0,0.0,0.0,0.0,0.0,0.0,0.0,0.0,0.0,0.0,0.0,0.0,0.0,0.0,1.2182,1.2142,1.2135,1.2135,1.2135,1.2135,1.2155,1.2121,1.2121,1.2381,1.2828,1.3166,1.3626,1.413,1.4475,1.4345,1.3722,1.312,1.2811,1.2811,1.2811,1.2811,1.2811,1.2811,1.2811,1.2845,1.3123,1.388,1.513,1.7529,1.9182,2.0635,2.2735,2.3375,2.3351,2.3285,2.2971,2.2721,2.2648,2.2491,2.2334,2.2334,2.2334,2.2334,2.2334,2.2334,2.2334,2.2334,2.2035,2.1354,1.9754,1.7869,1.6359,1.5947,1.4857,1.4465,1.5515,1.6762,1.7836,1.8505,1.9211,1.9323,1.8605,1.7023,1.5947,1.5595,1.4627,1.413,1.4266,1.4322,1.4271,1.4054,1.3522,1.3132,1.2938,1.2229,1.1857,1.1674,1.164,1.1835,1.2409,1.3531,1.3888,1.0953,1.123,0.0,1.1291,0.0,0.0,0.0,0.0,0.0,0.0,0.0,0.0,0.0,0.0,0.0,0.0,0.0,0.0,0.0,0.0,0.0,0.0,0.0,0.0,0.0,0.0,0.0,0.0,0.0,1.2149,1.2135,1.2135,1.2135,1.2135,1.2135,1.2135,1.2277,1.2277,1.2436,1.2596,1.3935,1.4843,1.5294,1.6612,1.715,1.6998,1.4653,1.3667,1.3667,1.3667,1.3667,1.3667,1.3667,1.3667,1.3682,1.3867,1.4892,1.6404,1.8258,1.9916,2.1453,2.2905,2.3375,2.3357,2.285,2.2745,2.2673,2.243,2.2346,2.2334,2.2334,2.2334,2.2334,2.2334,2.2334,2.2334,2.2334,2.2259,2.1951,2.0791,1.9963,1.9054,1.8112,1.7433,1.7047,1.7316,1.8486,1.9348,1.9715,2.0705,2.1066,2.026,1.9442,1.8705,1.7988,1.7369,1.6964,1.6973,1.7086,1.6828,1.6074,1.5225,1.4389,1.3483,1.2643,1.2121,1.1823,1.1687,1.1972,1.2824,1.3888,1.4386,1.0617,1.0999,0.0,0.0,0.0,0.0,0.0,0.0,0.0,0.0,0.0,0.0,0.0,0.0,0.0,0.0,0.0,0.0,0.0,0.0,0.0,0.0,0.0,0.0,0.0,0.0,0.0,0.0,0.0,0.0,1.1789,1.1994,1.214,1.214,1.2431,1.2598,1.2656,1.2656,1.3044,1.3969,1.475,1.5715,1.6861,1.7602,1.802,1.8158,1.7245,1.6559,1.6092,1.6092,1.6092,1.6092,1.6092,1.6092,1.6118,1.6242,1.6823,1.7792,1.9551,2.0596,2.1445,2.2867,2.3225,2.2899,2.2782,2.2612,2.2455,2.2358,2.2334,2.237,2.2539,2.2467,2.2334,2.2334,2.2334,2.2334,2.2334,2.2334,2.2085,2.1468,2.0626,1.9785,1.9266,1.8469,1.814,1.8893,1.9446,2.0047,2.0704,2.1208,2.1258,2.0729,1.9994,1.9395,1.9033,1.8303,1.7956,1.8105,1.8108,1.793,1.7407,1.633,1.5463,1.4871,1.3391,1.236,1.183,1.1782,1.2063,1.2824,1.4654,1.523,1.0491,1.0844,0.0,0.0,0.0,0.0,0.0,0.0,0.0,0.0,0.0,0.0,0.0,0.0,0.0,0.0,0.0,0.0,0.0,0.0,0.0,0.0,0.0,0.0,0.0,0.0,0.0,0.0,0.0,0.0,1.1633,1.1979,1.2409,1.2904,1.3658,1.4016,1.388,1.3945,1.4432,1.5354,1.6137,1.7112,1.8287,1.9096,1.9553,1.9725,1.9801,1.9067,1.7768,1.7768,1.7768,1.7768,1.7768,1.7768,1.7788,1.7932,1.8337,1.9162,2.0462,2.1267,2.1861,2.2972,2.308,2.283,2.2648,2.2479,2.2334,2.2334,2.2319,2.2515,2.2685,2.26,2.2467,2.2467,2.2406,2.2334,2.2334,2.2334,2.2184,2.196,2.1359,2.0843,2.0639,2.0078,1.9874,2.0575,2.0676,2.0957,2.1562,2.1702,2.1667,2.1436,2.0912,2.0614,2.0478,1.9968,1.9735,1.9822,1.9833,1.9606,1.9002,1.8006,1.7017,1.6195,1.4457,1.3205,1.2349,1.2024,1.214,1.2907,1.5106,1.5929,0.0,0.0,0.0,0.0,0.0,0.0,0.0,0.0,0.0,0.0,0.0,0.0,0.0,0.0,0.0,0.0,0.0,0.0,0.0,0.0,0.0,0.0,0.0,0.0,0.0,0.0,0.0,0.0,0.0,1.1626,1.1619,1.2051,1.2975,1.4449,1.5767,1.6339,1.6131,1.6339,1.6554,1.6775,1.8141,1.9052,1.9513,2.1171,2.186,2.1885,2.2212,2.0962,1.8699,1.8699,1.8699,1.8699,1.8699,1.8699,1.8699,1.8699,1.9364,2.0363,2.0991,2.1951,2.2843,2.3062,2.3121,2.3012,2.2503,2.2346,2.2334,2.2346,2.2527,2.2733,2.2733,2.2745,2.2745,2.2733,2.2527,2.2346,2.2259,2.2334,2.2334,2.2334,2.2334,2.2334,2.2334,2.2334,2.2334,2.2334,2.2334,2.2334,2.2334,2.2334,2.2334,2.2334,2.2334,2.2334,2.2334,2.2334,2.2334,2.2334,2.2334,2.1948,2.1037,2.0274,1.9057,1.7483,1.5786,1.4481,1.3574,1.2356,1.2202,1.3072,1.5096,1.6343,1.0807,0.0,0.0,0.0,0.0,0.0,0.0,0.0,0.0,0.0,0.0,0.0,0.0,0.0,0.0,0.0,0.0,0.0,0.0,0.0,0.0,0.0,0.0,0.0,0.0,0.0,0.0,0.0,1.2598,1.2598,1.2474,1.3611,1.4813,1.6018,1.6703,1.6986,1.6997,1.6986,1.7339,1.791,1.879,1.9562,2.0213,2.121,2.1691,2.1873,2.1945,2.1707,2.1274,2.1274,2.1274,2.1274,2.1274,2.1274,2.1274,2.1274,2.147,2.1825,2.2413,2.265,2.2769,2.3159,2.308,2.2806,2.2661,2.2491,2.237,2.2564,2.2673,2.277,2.2963,2.308,2.3128,2.2742,2.2673,2.2564,2.2307,2.2334,2.2334,2.2334,2.2334,2.2334,2.2334,2.2334,2.2334,2.2334,2.2334,2.2334,2.2334,2.2334,2.2334,2.2334,2.2334,2.2334,2.2334,2.2334,2.2334,2.2334,2.2334,2.2035,2.151,2.0661,1.9757,1.8709,1.6797,1.5548,1.5048,1.2967,1.2388,1.3072,1.5185,1.6785,1.1504,1.1528,0.0,0.0,0.0,0.0,0.0,0.0,0.0,0.0,0.0,0.0,0.0,0.0,0.0,0.0,0.0,0.0,0.0,0.0,0.0,0.0,0.0,0.0,0.0,0.0,0.0,1.4322,1.4322,1.4352,1.4457,1.5655,1.6795,1.765,1.8342,1.8692,1.8692,1.8692,1.8901,1.9401,1.9863,2.0344,2.0793,2.139,2.1667,2.1716,2.1933,2.2054,2.2102,2.2211,2.2334,2.2334,2.2334,2.2334,2.2334,2.2334,2.2334,2.2406,2.2939,2.3024,2.2963,2.3309,2.3237,2.2947,2.2794,2.2697,2.2673,2.2721,2.2814,2.3043,2.3309,2.3333,2.32,2.2963,2.2721,2.2527,2.2295,2.2334,2.2334,2.2334,2.2334,2.2334,2.2334,2.2334,2.2334,2.2334,2.2334,2.2334,2.2334,2.2334,2.2334,2.2334,2.2334,2.2334,2.2334,2.2334,2.2334,2.2334,2.2334,2.2184,2.196,2.1424,2.0812,1.9984,1.8461,1.7198,1.6282,1.3746,1.3052,1.4114,1.5506,1.6946,1.2385,1.2252,1.2067,0.0,0.0,0.0,1.1783,1.2166,0.0,0.0,0.0,0.0,0.0,0.0,0.0,0.0,0.0,0.0,0.0,0.0,0.0,0.0,0.0,0.0,0.0,1.6316,1.6202,1.6202,1.6202,1.6413,1.6846,1.791,1.8692,1.9133,2.0179,2.0665,2.0665,2.0665,2.0665,2.0665,2.1038,2.1159,2.1147,2.1619,2.1728,2.151,2.1969,2.2054,2.1885,2.22,2.2235,2.2334,2.2334,2.2334,2.2334,2.2334,2.2334,2.2406,2.2939,2.3121,2.3169,2.3393,2.3399,2.3291,2.2887,2.2963,2.3072,2.2879,2.3104,2.3471,2.37,2.3466,2.3157,2.3133,2.2745,2.237,2.2346,2.2334,2.2334,2.2334,2.2334,2.2334,2.2334,2.2334,2.2334,2.2334,2.2334,2.2334,2.2334,2.2334,2.2334,2.2334,2.2334,2.2334,2.2334,2.2334,2.2334,2.2334,2.2334,2.2334,2.2334,2.2334,2.1873,2.1112,2.0274,1.9018,1.7291,1.4753,1.4286,1.5719,1.6074,1.6844,1.3266,1.3085,1.2861,1.2909,0.0,0.0,0.0,1.2627,0.0,0.0,0.0,0.0,0.0,0.0,0.0,0.0,0.0,0.0,0.0,0.0,0.0,0.0,0.0,0.0,0.0,1.7097,1.7067,1.7067,1.7067,1.7348,1.8051,1.8563,1.9192,1.9831,2.0388,2.0665,2.0665,2.0665,2.0665,2.0747,2.116,2.1281,2.1147,2.1619,2.1728,2.1486,2.1583,2.1728,2.1873,2.1921,2.2152,2.2334,2.2334,2.2334,2.2334,2.2334,2.2334,2.2406,2.2939,2.3121,2.3206,2.3611,2.3544,2.3351,2.3333,2.3176,2.3157,2.3249,2.3447,2.37,2.3748,2.3531,2.3321,2.3169,2.2879,2.2588,2.2382,2.2334,2.2334,2.2334,2.2334,2.2334,2.2334,2.2334,2.2334,2.2334,2.2334,2.2334,2.2334,2.2334,2.2334,2.2334,2.2334,2.2334,2.2334,2.2334,2.2334,2.2334,2.2334,2.2334,2.2334,2.2334,2.2035,2.1585,2.036,1.9264,1.8046,1.66,1.6082,1.6559,1.649,1.7204,1.4473,1.4111,1.3676,1.3544,0.0,0.0,0.0,0.0,0.0,0.0,0.0,0.0,0.0,0.0,0.0,0.0,0.0,0.0,0.0,0.0,0.0,0.0,0.0,0.0,0.0,1.8871,1.8749,1.8627,1.8616,1.8809,1.9347,1.9565,1.9911,2.0388,2.0596,2.0665,2.0665,2.0665,2.0665,2.0747,2.1221,2.1402,2.1281,2.1824,2.1848,2.1486,2.1619,2.1595,2.1486,2.1764,2.1945,2.2078,2.2285,2.2334,2.2334,2.2334,2.2334,2.2406,2.2939,2.3121,2.3206,2.3671,2.3676,2.3599,2.3333,2.3152,2.3206,2.3538,2.3664,2.376,2.376,2.355,2.3212,2.3157,2.2818,2.2491,2.237,2.2334,2.2334,2.2334,2.2334,2.2334,2.2334,2.2334,2.2334,2.2334,2.2334,2.2334,2.2334,2.2334,2.2334,2.2334,2.2334,2.2334,2.2334,2.2334,2.2334,2.2334,2.2334,2.2334,2.2334,2.2334,2.2184,2.196,2.136,2.083,2.0322,1.9265,1.8046,1.6838,1.7117,1.7711,0.0,0.0,0.0,0.0,0.0,1.2711,0.0,0.0,0.0,0.0,0.0,0.0,0.0,0.0,0.0,0.0,0.0,0.0,0.0,0.0,0.0,0.0,0.0,0.0,0.0,2.0171,1.9953,1.9748,1.9736,1.9845,2.011,2.0219,2.0376,2.0593,2.0641,2.0665,2.0665,2.0665,2.0665,2.0747,2.1221,2.1474,2.1498,2.2029,2.2005,2.1571,2.1776,2.1595,2.1172,2.1667,2.1873,2.1897,2.2237,2.2334,2.2334,2.2334,2.2334,2.2406,2.2939,2.3121,2.3206,2.3671,2.3736,2.3683,2.3266,2.3157,2.3212,2.3647,2.3724,2.3748,2.37,2.3406,2.3109,2.306,2.2685,2.2334,2.2334,2.237,2.2319,2.2346,2.2307,2.2394,2.2346,2.2334,2.2334,2.2334,2.2334,2.2334,2.2334,2.2334,2.2334,2.2334,2.2334,2.2334,2.2334,2.2334,2.2334,2.2334,2.2334,2.2334,2.2334,2.2334,2.2334,2.2334,2.2334,2.2334,2.2334,2.1499,1.9852,1.7414,1.7963,1.8393,0.0,0.0,0.0,0.0,1.4014,0.0,0.0,0.0,0.0,0.0,0.0,0.0,0.0,0.0,0.0,0.0,0.0,0.0,0.0,0.0,0.0,0.0,0.0,0.0,0.0,0.0,1.9193,1.9169,1.9169,1.9289,1.9608,2.0014,2.0291,2.0315,2.0545,2.0665,2.0665,2.0665,2.0665,2.0747,2.1221,2.1474,2.1498,2.2029,2.2176,2.1824,2.186,2.1704,2.145,2.1752,2.1873,2.1897,2.2237,2.2334,2.2334,2.2334,2.2334,2.2406,2.2939,2.3121,2.3206,2.3671,2.3604,2.3363,2.314,2.3212,2.3339,2.3399,2.3592,2.3712,2.3483,2.3273,2.306,2.283,2.2552,2.2334,2.2334,2.2515,2.2612,2.2382,2.2527,2.2612,2.237,2.2334,2.2334,2.2334,2.2334,2.2334,2.2334,2.2334,2.2334,2.2334,2.2334,2.2334,2.2334,2.2334,2.2334,2.2334,2.2334,2.2334,2.2334,2.2334,2.2334,2.2334,2.2334,2.2334,2.2334,2.181,2.0864,1.9425,1.9085,1.8991,0.0,0.0,0.0,0.0,0.0,0.0,1.253,0.0,1.2542,0.0,0.0,0.0,0.0,0.0,0.0,0.0,0.0,0.0,0.0,0.0,0.0,0.0,0.0,0.0,0.0,0.0,0.0,0.0,0.0,1.8396,1.8976,1.9676,2.0122,2.0279,2.0533,2.0665,2.0665,2.0665,2.0665,2.0747,2.1221,2.1474,2.1498,2.2029,2.2114,2.1873,2.1873,2.1716,2.1498,2.1764,2.1873,2.1897,2.2237,2.2334,2.2334,2.2334,2.243,2.2612,2.2988,2.3152,2.3345,2.3719,2.3592,2.3387,2.3502,2.3478,2.3411,2.3556,2.3676,2.3736,2.3628,2.3478,2.3249,2.314,2.279,2.26,2.2757,2.2757,2.2697,2.2588,2.2648,2.2648,2.2382,2.2334,2.2334,2.2334,2.2334,2.2334,2.2334,2.2334,2.2334,2.2334,2.2334,2.2334,2.2334,2.2334,2.2334,2.2334,2.2334,2.2334,2.2334,2.2334,2.2334,2.2334,2.2334,2.2334,2.2334,2.2109,2.1798,2.1262,2.0572,2.0142,1.8263,0.0,0.0,0.0,0.0,0.0,0.0,0.0,0.0,0.0,0.0,0.0,0.0,0.0,0.0,0.0,0.0,0.0,0.0,0.0,0.0,0.0,0.0,0.0,0.0,0.0,0.0,0.0,0.0,0.0,1.842,1.9229,1.982,2.0158,2.0424,2.0593,2.0665,2.0665,2.0665,2.0747,2.1221,2.1474,2.1498,2.2029,2.2162,2.1981,2.1981,2.1824,2.1607,2.1873,2.1933,2.1897,2.2237,2.2334,2.2334,2.2334,2.2503,2.277,2.3024,2.3273,2.3495,2.3616,2.3531,2.3399,2.3587,2.3538,2.3411,2.3604,2.3712,2.3748,2.3676,2.3519,2.3351,2.3357,2.3043,2.2891,2.3072,2.2959,2.285,2.2854,2.2814,2.2766,2.2503,2.2382,2.2334,2.2334,2.2334,2.2334,2.2334,2.2334,2.2334,2.2334,2.2334,2.2334,2.2334,2.2334,2.2334,2.2334,2.2334,2.2334,2.2334,2.2334,2.2334,2.2334,2.2334,2.2334,2.2334,2.2334,2.2334,2.2259,2.166,2.1285,0.0,0.0,0.0,1.5499,0.0,0.0,0.0,0.0,1.3137,0.0,0.0,0.0,0.0,0.0,0.0,1.3218,0.0,0.0,0.0,0.0,0.0,0.0,0.0,0.0,0.0,0.0,0.0,0.0,0.0,0.0,1.7841,1.8662,1.935,1.9881,2.0158,2.0412,2.0665,2.0665,2.0665,2.0747,2.1221,2.1474,2.1498,2.2029,2.2334,2.2321,2.2321,2.2176,2.1873,2.2212,2.2102,2.1897,2.2237,2.2334,2.2334,2.2334,2.2503,2.277,2.3024,2.3393,2.3712,2.3471,2.3387,2.3406,2.3152,2.3249,2.3375,2.3387,2.3568,2.37,2.3447,2.3387,2.3381,2.3193,2.3121,2.3109,2.3121,2.3249,2.3345,2.308,2.3249,2.3261,2.273,2.2503,2.2334,2.2334,2.2334,2.2334,2.2334,2.2334,2.2334,2.2334,2.2334,2.2334,2.2334,2.2334,2.2334,2.2334,2.2334,2.2334,2.2334,2.2334,2.2334,2.2334,2.2334,2.2334,2.2334,2.2334,2.2334,2.2334,2.2259,2.2259,0.0,0.0,1.8203,1.6779,0.0,0.0,0.0,0.0,0.0,0.0,0.0,0.0,0.0,0.0,1.4992,1.4292,1.3954,0.0,0.0,0.0,0.0,0.0,0.0,0.0,0.0,0.0,0.0,0.0,0.0,0.0,0.0,1.8444,1.9241,1.9591,2.0038,2.04,2.0665,2.0665,2.0665,2.0747,2.1221,2.1474,2.1498,2.2029,2.2334,2.2334,2.2334,2.2285,2.2138,2.2223,2.2285,2.2138,2.2223,2.2334,2.2334,2.2334,2.2612,2.3048,2.3418,2.3695,2.3748,2.3664,2.3628,2.3616,2.3599,2.3635,2.3628,2.3628,2.37,2.3748,2.3652,2.3628,2.3683,2.3599,2.3442,2.3369,2.3538,2.3514,2.3351,2.3333,2.3315,2.3333,2.2971,2.277,2.2539,2.2358,2.2334,2.2334,2.2334,2.2334,2.2334,2.2334,2.2334,2.2334,2.2334,2.2334,2.2406,2.2588,2.2588,2.2673,2.2854,2.2854,2.2854,2.2854,2.2854,2.2854,2.2854,2.2854,2.2854,2.2854,2.2673,2.2503,2.0335,1.97,0.0,1.795,1.6984,0.0,1.5089,0.0,0.0,0.0,0.0,0.0,0.0,0.0,0.0,1.5004,1.4316,0.0,0.0,0.0,0.0,0.0,0.0,0.0,0.0,0.0,1.4533,1.4799,0.0,0.0,0.0,0.0,1.8722,1.9169,1.9808,2.0267,2.0533,2.0617,2.0783,2.088,2.1269,2.1523,2.1631,2.2066,2.2334,2.2334,2.2334,2.2334,2.2334,2.2334,2.2334,2.2334,2.2334,2.2334,2.2346,2.2443,2.273,2.3249,2.3695,2.376,2.376,2.376,2.376,2.376,2.376,2.376,2.376,2.376,2.376,2.376,2.376,2.376,2.376,2.376,2.364,2.3556,2.3724,2.3628,2.3519,2.3519,2.3519,2.3502,2.3237,2.3043,2.2814,2.2452,2.2394,2.2334,2.2334,2.2334,2.2334,2.2334,2.2334,2.2334,2.2334,2.2334,2.2406,2.2576,2.2588,2.2661,2.283,2.2842,2.2842,2.2842,2.2842,2.2842,2.2842,2.2842,2.2842,2.283,2.2661,2.2503]}]]